[[{"header":{"parameterUnit":"m.s-1","parameterCategory":1,"la1":30.6,"la2":29.2853,"lo1":-89.7004,"lo2":-87.6739,"dx":0.0162,"dy":0.0183,"nx":112,"ny":82,"refTime":"2023-01-29T18:00:00:Z","depth":0,"parameterNumber":2,"parameterNumberName":"U-component_of_WINDS"},"data":[0.0,0.0,0.0,0.0,0.0,0.0,0.0,0.0,0.0,0.0,0.0,0.0,0.0,0.0,0.0,0.0,0.0,0.0,0.0,0.0,0.0,0.0,0.0,0.0,0.0,0.0,0.0,0.0,0.0,0.0,0.0,0.0,0.0,0.0,0.0,0.0,0.0,0.0,0.0,0.0,0.0,0.0,0.0,0.0,0.0,0.0,0.0,0.0,0.0,0.0,0.0,0.0,0.0,0.0,0.0,0.0,0.0,0.0,0.0,0.0,0.0,0.0,0.0,0.0,0.0,0.0,0.0,0.0,0.0,0.0,0.0,0.0,0.0,0.0,0.0,0.0,0.0,0.0,0.0,0.0,0.0,0.0,0.0,0.0,0.0,0.0,0.0,0.0,0.0,0.0,0.0,7.0787,7.0678,7.0585,7.0554,7.0451,7.0419,7.0419,0.0,0.0,0.0,0.0,0.0,0.0,0.0,0.0,0.0,0.0,0.0,0.0,0.0,0.0,0.0,0.0,0.0,0.0,0.0,0.0,0.0,0.0,0.0,0.0,0.0,0.0,0.0,0.0,0.0,0.0,0.0,0.0,0.0,0.0,0.0,0.0,0.0,0.0,0.0,0.0,0.0,0.0,0.0,0.0,0.0,0.0,0.0,0.0,0.0,0.0,0.0,0.0,0.0,0.0,0.0,0.0,0.0,0.0,0.0,0.0,0.0,0.0,0.0,0.0,0.0,0.0,0.0,0.0,0.0,0.0,0.0,0.0,0.0,0.0,0.0,0.0,0.0,0.0,0.0,0.0,0.0,0.0,0.0,0.0,0.0,0.0,0.0,0.0,0.0,0.0,0.0,0.0,0.0,0.0,0.0,0.0,0.0,0.0,0.0,0.0,0.0,0.0,0.0,0.0,7.0843,7.0737,7.0647,7.0554,7.0451,7.0419,7.0419,7.0419,0.0,0.0,0.0,0.0,0.0,0.0,0.0,0.0,0.0,0.0,0.0,0.0,0.0,0.0,0.0,0.0,0.0,0.0,0.0,0.0,0.0,0.0,0.0,0.0,0.0,0.0,0.0,0.0,0.0,0.0,0.0,0.0,0.0,0.0,0.0,0.0,0.0,0.0,0.0,0.0,0.0,0.0,0.0,0.0,0.0,0.0,0.0,0.0,0.0,0.0,0.0,0.0,0.0,0.0,0.0,0.0,0.0,0.0,0.0,0.0,0.0,0.0,0.0,0.0,0.0,0.0,0.0,0.0,0.0,0.0,0.0,0.0,0.0,0.0,0.0,0.0,0.0,0.0,0.0,0.0,0.0,0.0,0.0,0.0,0.0,0.0,0.0,0.0,0.0,0.0,0.0,0.0,0.0,0.0,0.0,0.0,0.0,0.0,0.0,0.0,0.0,0.0,0.0,7.0815,7.0729,7.0678,7.0547,7.0451,7.0419,7.0419,7.0419,7.0419,7.0419,0.0,0.0,0.0,0.0,0.0,0.0,0.0,0.0,0.0,0.0,0.0,0.0,0.0,0.0,0.0,0.0,0.0,0.0,0.0,0.0,0.0,0.0,0.0,0.0,0.0,0.0,0.0,0.0,0.0,0.0,0.0,0.0,0.0,0.0,0.0,0.0,0.0,0.0,0.0,0.0,0.0,0.0,0.0,0.0,0.0,0.0,0.0,0.0,0.0,0.0,0.0,0.0,0.0,0.0,0.0,0.0,0.0,0.0,0.0,0.0,0.0,0.0,0.0,0.0,0.0,0.0,0.0,0.0,0.0,0.0,0.0,0.0,0.0,0.0,0.0,0.0,0.0,0.0,0.0,0.0,0.0,0.0,0.0,0.0,0.0,0.0,0.0,0.0,0.0,0.0,0.0,0.0,0.0,0.0,0.0,0.0,0.0,0.0,0.0,0.0,0.0,0.0,7.0729,7.0669,7.0609,7.0483,7.0419,7.0419,7.0419,7.0419,7.0419,7.0419,0.0,0.0,0.0,0.0,0.0,0.0,0.0,0.0,0.0,0.0,0.0,0.0,0.0,0.0,0.0,0.0,0.0,0.0,0.0,0.0,0.0,0.0,0.0,0.0,0.0,0.0,0.0,0.0,0.0,0.0,0.0,0.0,0.0,0.0,0.0,0.0,0.0,0.0,0.0,0.0,0.0,0.0,0.0,0.0,0.0,0.0,0.0,0.0,0.0,0.0,0.0,0.0,0.0,0.0,0.0,0.0,0.0,0.0,0.0,0.0,0.0,0.0,0.0,0.0,0.0,0.0,0.0,0.0,0.0,0.0,0.0,0.0,0.0,0.0,0.0,0.0,0.0,0.0,0.0,0.0,0.0,0.0,0.0,0.0,0.0,0.0,0.0,0.0,0.0,0.0,0.0,0.0,0.0,0.0,0.0,0.0,0.0,0.0,0.0,0.0,0.0,0.0,7.0719,7.0669,7.0593,7.0477,7.0419,7.0419,7.0419,7.0419,7.0419,7.0419,0.0,0.0,0.0,0.0,0.0,0.0,0.0,0.0,0.0,0.0,0.0,0.0,0.0,0.0,0.0,0.0,0.0,0.0,0.0,0.0,0.0,0.0,0.0,0.0,0.0,0.0,0.0,0.0,0.0,0.0,0.0,0.0,0.0,0.0,0.0,0.0,0.0,0.0,0.0,0.0,0.0,0.0,0.0,0.0,0.0,0.0,0.0,0.0,0.0,0.0,0.0,0.0,0.0,0.0,0.0,0.0,0.0,0.0,0.0,0.0,0.0,0.0,0.0,0.0,0.0,0.0,0.0,0.0,0.0,0.0,0.0,0.0,0.0,0.0,0.0,0.0,0.0,0.0,0.0,0.0,0.0,0.0,0.0,0.0,0.0,0.0,0.0,0.0,0.0,0.0,0.0,0.0,0.0,0.0,0.0,0.0,0.0,0.0,0.0,0.0,0.0,0.0,7.0681,7.0601,0.0,7.0413,7.0419,7.0419,7.0419,7.0419,7.0419,0.0,0.0,0.0,0.0,0.0,0.0,0.0,0.0,0.0,0.0,0.0,0.0,0.0,0.0,0.0,0.0,0.0,0.0,0.0,0.0,0.0,0.0,0.0,0.0,0.0,0.0,0.0,0.0,0.0,0.0,0.0,0.0,0.0,0.0,0.0,0.0,0.0,0.0,0.0,0.0,0.0,0.0,0.0,0.0,0.0,0.0,0.0,0.0,0.0,0.0,0.0,0.0,0.0,0.0,0.0,0.0,0.0,0.0,0.0,0.0,0.0,0.0,0.0,0.0,0.0,0.0,0.0,0.0,0.0,0.0,0.0,0.0,0.0,0.0,0.0,0.0,0.0,0.0,0.0,0.0,0.0,0.0,0.0,0.0,0.0,0.0,0.0,0.0,0.0,0.0,0.0,0.0,0.0,0.0,0.0,0.0,0.0,0.0,0.0,0.0,0.0,0.0,7.0719,7.0631,7.0547,0.0,7.0419,7.0419,7.0419,7.0419,7.0419,7.0419,0.0,0.0,0.0,0.0,0.0,0.0,0.0,0.0,0.0,0.0,0.0,0.0,0.0,0.0,0.0,0.0,0.0,0.0,0.0,0.0,0.0,0.0,0.0,0.0,0.0,0.0,0.0,0.0,0.0,0.0,0.0,0.0,0.0,0.0,0.0,0.0,0.0,0.0,0.0,0.0,0.0,0.0,0.0,0.0,0.0,0.0,0.0,0.0,0.0,0.0,0.0,0.0,0.0,0.0,0.0,0.0,0.0,0.0,0.0,0.0,0.0,0.0,0.0,0.0,0.0,0.0,0.0,0.0,0.0,0.0,0.0,0.0,0.0,0.0,0.0,0.0,0.0,0.0,0.0,0.0,0.0,0.0,0.0,0.0,0.0,0.0,0.0,0.0,0.0,0.0,0.0,0.0,0.0,0.0,0.0,0.0,0.0,0.0,0.0,0.0,0.0,0.0,7.0713,7.0648,7.0533,7.0419,7.0419,7.0419,7.0419,7.0419,7.0419,0.0,0.0,0.0,0.0,0.0,0.0,0.0,0.0,0.0,0.0,0.0,0.0,0.0,0.0,0.0,0.0,0.0,0.0,0.0,0.0,0.0,0.0,0.0,0.0,0.0,0.0,0.0,0.0,0.0,0.0,0.0,0.0,0.0,0.0,0.0,0.0,0.0,0.0,0.0,0.0,0.0,0.0,0.0,0.0,0.0,0.0,0.0,0.0,0.0,0.0,0.0,0.0,0.0,0.0,0.0,0.0,0.0,0.0,0.0,0.0,0.0,0.0,0.0,0.0,0.0,0.0,0.0,0.0,0.0,0.0,0.0,0.0,0.0,0.0,0.0,0.0,0.0,0.0,0.0,0.0,0.0,0.0,0.0,0.0,0.0,0.0,0.0,0.0,0.0,0.0,0.0,0.0,0.0,0.0,0.0,0.0,0.0,0.0,0.0,0.0,0.0,0.0,0.0,7.0642,7.0533,7.0686,7.1254,7.1331,7.156,7.2166,7.1675,7.1331,7.1331,0.0,0.0,0.0,0.0,0.0,0.0,0.0,0.0,0.0,0.0,0.0,0.0,0.0,0.0,0.0,0.0,0.0,0.0,0.0,0.0,0.0,0.0,0.0,0.0,0.0,0.0,0.0,0.0,0.0,0.0,0.0,0.0,0.0,0.0,0.0,0.0,0.0,0.0,0.0,0.0,0.0,0.0,0.0,0.0,0.0,0.0,0.0,0.0,0.0,0.0,0.0,0.0,0.0,0.0,0.0,0.0,0.0,0.0,0.0,0.0,0.0,0.0,0.0,0.0,0.0,0.0,0.0,0.0,0.0,0.0,0.0,0.0,0.0,0.0,0.0,0.0,0.0,0.0,0.0,0.0,0.0,0.0,0.0,0.0,0.0,0.0,0.0,0.0,0.0,0.0,0.0,0.0,0.0,0.0,0.0,0.0,0.0,0.0,0.0,0.0,0.0,0.0,7.1063,7.1292,7.1636,7.2166,7.2248,7.2444,7.2974,7.252,7.2215,7.2204,0.0,0.0,0.0,0.0,0.0,0.0,0.0,0.0,0.0,0.0,0.0,0.0,0.0,0.0,0.0,0.0,0.0,0.0,0.0,0.0,0.0,0.0,0.0,0.0,0.0,0.0,0.0,0.0,0.0,0.0,0.0,0.0,0.0,0.0,0.0,0.0,0.0,0.0,0.0,0.0,0.0,0.0,0.0,0.0,0.0,0.0,0.0,0.0,0.0,0.0,0.0,0.0,0.0,0.0,0.0,0.0,0.0,0.0,0.0,0.0,0.0,0.0,0.0,0.0,0.0,0.0,0.0,0.0,0.0,0.0,0.0,0.0,0.0,0.0,0.0,0.0,0.0,0.0,0.0,0.0,0.0,0.0,0.0,0.0,0.0,0.0,0.0,0.0,0.0,0.0,0.0,0.0,0.0,0.0,0.0,0.0,0.0,0.0,0.0,0.0,0.0,0.0,7.1904,7.2549,7.3041,7.3117,7.3098,7.3143,7.3219,7.3143,7.3098,7.3084,0.0,0.0,0.0,0.0,0.0,0.0,0.0,0.0,0.0,0.0,0.0,0.0,0.0,0.0,0.0,0.0,0.0,0.0,0.0,0.0,0.0,0.0,0.0,0.0,0.0,0.0,0.0,0.0,0.0,0.0,0.0,0.0,0.0,0.0,0.0,0.0,0.0,0.0,0.0,0.0,0.0,0.0,0.0,0.0,0.0,0.0,0.0,0.0,0.0,0.0,0.0,0.0,0.0,0.0,0.0,0.0,0.0,0.0,0.0,0.0,7.036,0.0,0.0,0.0,0.0,0.0,0.0,0.0,0.0,0.0,0.0,0.0,0.0,0.0,0.0,0.0,0.0,0.0,0.0,0.0,0.0,0.0,0.0,0.0,0.0,0.0,0.0,0.0,0.0,0.0,0.0,0.0,0.0,0.0,0.0,0.0,0.0,0.0,0.0,0.0,0.0,0.0,7.272,7.2872,7.325,7.3861,7.3938,7.4243,7.4927,7.4358,7.3938,7.3972,7.3365,0.0,0.0,0.0,0.0,0.0,0.0,0.0,0.0,0.0,0.0,0.0,0.0,0.0,0.0,0.0,0.0,0.0,0.0,0.0,0.0,0.0,0.0,0.0,0.0,0.0,0.0,0.0,0.0,0.0,0.0,0.0,0.0,0.0,0.0,0.0,0.0,0.0,0.0,0.0,0.0,0.0,0.0,0.0,0.0,0.0,0.0,0.0,0.0,0.0,0.0,0.0,0.0,0.0,0.0,0.0,0.0,0.0,0.0,0.0,0.0,7.0898,0.0,0.0,0.0,0.0,0.0,0.0,0.0,0.0,0.0,0.0,0.0,0.0,0.0,0.0,0.0,0.0,0.0,0.0,0.0,0.0,0.0,0.0,0.0,0.0,0.0,0.0,0.0,0.0,0.0,0.0,0.0,0.0,0.0,0.0,0.0,0.0,0.0,0.0,0.0,0.0,7.3559,7.3941,7.4358,7.4778,7.4816,7.5004,7.5462,7.508,7.4816,7.4816,7.4434,0.0,0.0,0.0,0.0,0.0,0.0,0.0,0.0,0.0,0.0,0.0,0.0,0.0,0.0,0.0,0.0,0.0,0.0,0.0,0.0,0.0,0.0,0.0,0.0,0.0,0.0,0.0,0.0,0.0,0.0,0.0,0.0,0.0,0.0,0.0,0.0,0.0,0.0,0.0,0.0,0.0,0.0,0.0,0.0,0.0,0.0,0.0,0.0,0.0,0.0,0.0,0.0,0.0,7.0898,7.0898,7.0898,7.0898,7.0898,7.0898,7.0898,7.0898,7.0898,7.0898,0.0,0.0,0.0,0.0,0.0,0.0,0.0,0.0,0.0,0.0,0.0,0.0,0.0,0.0,0.0,0.0,0.0,0.0,0.0,0.0,0.0,0.0,0.0,0.0,7.1887,7.2234,7.1514,0.0,0.0,0.0,0.0,0.0,0.0,0.0,0.0,0.0,0.0,0.0,7.4434,7.5042,7.5501,7.5501,7.5501,7.5501,7.5501,7.5501,7.5501,7.5501,7.5501,7.5195,0.0,0.0,0.0,0.0,0.0,0.0,0.0,0.0,0.0,0.0,0.0,0.0,0.0,0.0,0.0,0.0,0.0,0.0,0.0,0.0,0.0,0.0,0.0,0.0,0.0,0.0,0.0,0.0,0.0,0.0,0.0,0.0,6.5897,6.5897,0.0,0.0,0.0,0.0,0.0,0.0,0.0,0.0,0.0,0.0,0.0,0.0,0.0,7.0744,7.0744,7.086,7.0898,7.0898,7.0898,7.0898,7.0898,7.0898,7.0898,7.0898,7.0898,0.0,7.0898,7.0898,0.0,0.0,0.0,0.0,0.0,0.0,0.0,0.0,0.0,0.0,0.0,0.0,0.0,0.0,0.0,0.0,0.0,0.0,0.0,0.0,0.0,0.0,7.2195,7.2954,7.3251,7.3301,0.0,7.3168,7.3147,7.3147,7.3168,0.0,0.0,0.0,0.0,0.0,0.0,0.0,7.531,7.5424,7.5501,7.5501,7.5501,7.5501,7.5501,7.5501,7.5501,7.5501,7.5501,7.5424,7.531,7.531,0.0,0.0,0.0,0.0,0.0,0.0,0.0,0.0,0.0,0.0,0.0,0.0,0.0,0.0,0.0,0.0,0.0,0.0,0.0,0.0,0.0,0.0,0.0,0.0,0.0,0.0,0.0,0.0,0.0,6.5897,6.5897,6.5897,6.5897,6.609,0.0,0.0,0.0,0.0,0.0,0.0,0.0,0.0,0.0,7.036,7.0706,7.0898,7.0898,7.0898,7.0898,7.0898,7.0898,7.0898,7.0898,7.0898,7.0898,7.0898,7.0898,7.0898,7.0898,7.0898,7.0898,7.0898,0.0,0.0,0.0,0.0,7.0898,7.0898,7.0898,7.0898,7.0898,7.0898,0.0,0.0,0.0,0.0,0.0,0.0,0.0,0.0,0.0,0.0,7.3024,7.3437,7.386,7.4168,7.411,7.4514,7.4697,0.0,7.3952,7.4107,7.4889,0.0,0.0,0.0,0.0,7.5501,7.5501,7.5501,7.5653,7.6147,7.6185,7.6376,7.687,7.6453,7.6185,7.6185,7.5765,7.5501,7.5501,7.5501,7.5501,0.0,0.0,0.0,0.0,0.0,0.0,0.0,0.0,0.0,0.0,0.0,0.0,0.0,0.0,0.0,0.0,0.0,0.0,0.0,0.0,0.0,0.0,0.0,0.0,0.0,0.0,0.0,0.0,6.5897,6.5974,6.6167,6.6205,6.6513,0.0,0.0,0.0,0.0,0.0,0.0,7.0014,7.0552,7.0898,7.0898,7.0898,7.0898,7.0898,7.0898,7.0898,7.0898,7.0898,7.0898,7.0898,7.0898,7.0898,7.0898,7.0898,7.0898,7.0898,7.0898,7.0898,7.0898,7.0898,7.0898,7.0898,7.0898,7.0898,7.0937,7.1168,7.1206,7.1245,7.1503,7.158,7.158,7.158,0.0,0.0,0.0,0.0,7.3542,7.3763,7.3822,7.388,7.4072,7.4601,7.4985,7.4947,7.5387,7.5626,0.0,7.4752,7.4816,7.5462,0.0,0.0,0.0,0.0,7.5879,7.6109,7.6147,7.6376,7.6985,7.7026,7.7294,7.7941,7.7409,7.7026,7.7023,7.6453,7.6147,7.6147,7.5918,7.5803,7.5803,0.0,0.0,0.0,0.0,0.0,0.0,0.0,0.0,0.0,0.0,0.0,0.0,0.0,0.0,0.0,0.0,0.0,0.0,0.0,0.0,0.0,0.0,0.0,0.0,0.0,0.0,0.0,0.0,0.0,6.6936,6.7051,0.0,0.0,0.0,0.0,6.9629,7.0398,7.0821,7.0821,7.0898,7.0898,7.0898,7.0898,7.0898,7.0898,7.0898,7.0898,7.0898,7.0898,7.0898,7.0898,7.0898,7.0898,7.0898,7.0898,7.0898,7.0898,7.0898,7.0898,7.0898,7.0898,7.0898,7.0898,7.0898,7.0898,7.1014,7.1849,7.2118,7.2272,7.3108,7.3366,7.3366,7.3366,7.3399,0.0,0.0,7.3495,7.3688,7.4447,7.4639,7.487,7.5707,7.5861,7.5861,7.5861,7.5731,7.5612,0.0,7.5535,7.5501,7.5501,0.0,7.5765,7.6526,7.6641,7.6947,7.7785,7.7861,7.79,7.7938,7.7946,7.795,7.7988,7.795,7.7948,7.7938,7.79,7.7861,7.7861,7.7061,7.6641,7.6641,7.5879,0.0,0.0,0.0,0.0,0.0,0.0,0.0,0.0,0.0,0.0,0.0,0.0,0.0,0.0,0.0,0.0,0.0,0.0,0.0,0.0,0.0,0.0,0.0,0.0,0.0,0.0,0.0,0.0,6.7051,6.759,0.0,6.9167,6.9513,6.9898,7.0437,7.0744,7.0898,7.0898,7.0898,7.0898,7.0898,7.0898,7.0898,7.0898,7.0898,7.0898,7.0898,7.0898,7.0898,7.0937,7.1503,7.1734,7.1772,7.2338,7.2569,7.2569,7.2569,7.2234,7.1772,7.2377,7.2569,7.2569,7.2569,7.2569,7.2608,7.2916,7.3042,7.3101,7.3409,7.3486,7.3601,7.413,7.4255,7.4379,7.4947,7.5101,7.5178,7.5447,7.5553,7.563,7.5861,7.5938,7.6032,7.6459,7.648,7.6602,7.7061,7.6717,7.63,7.6262,7.6755,7.7214,7.7517,7.7526,7.7642,7.7948,7.7986,7.8213,7.8787,7.8826,7.9018,7.9552,7.9094,7.8864,7.8825,7.8328,7.7986,7.7986,7.7719,7.7526,7.7555,7.7253,7.6832,0.0,0.0,0.0,0.0,0.0,0.0,0.0,0.0,0.0,0.0,0.0,0.0,0.0,0.0,0.0,0.0,0.0,0.0,0.0,0.0,0.0,0.0,0.0,0.0,0.0,0.0,6.7321,6.7898,6.8475,6.9167,7.0014,7.009,7.0321,7.086,7.0898,7.0898,7.0898,7.0898,7.0898,7.0898,7.0898,7.0898,7.0898,7.1168,7.1321,7.1321,7.1657,7.1772,7.1811,7.2377,7.2619,7.2668,7.3273,7.3504,7.3504,7.3773,7.3542,7.308,7.3388,7.3504,7.3504,7.3504,7.3504,7.3542,7.3812,7.4091,7.4341,7.4341,7.4341,7.4418,7.4985,7.5139,7.5255,7.5861,7.6015,7.6015,7.6015,7.6207,7.6399,7.6322,7.6494,7.6831,7.7245,7.7294,7.7411,7.7905,7.752,7.7138,7.7144,7.7638,7.8097,7.84,7.8444,7.856,7.8789,7.8827,7.9056,7.9628,7.9705,7.9896,8.0468,8.001,7.9705,7.9705,7.9133,7.8827,7.8827,7.8598,7.8444,7.8438,7.8135,7.775,7.7138,0.0,0.0,0.0,0.0,0.0,0.0,0.0,0.0,0.0,0.0,0.0,0.0,0.0,0.0,0.0,0.0,0.0,0.0,0.0,0.0,0.0,0.0,0.0,6.709,6.7128,6.7821,6.9513,6.9706,7.0052,7.0821,7.0898,7.0898,7.0898,7.0898,7.0898,7.0898,7.0898,7.0898,7.0937,7.0937,7.0937,7.0975,7.1811,7.2234,7.2234,7.3108,7.352,7.352,7.3559,7.3542,7.3543,7.3543,7.3581,7.362,7.4418,7.4755,7.4678,7.388,7.3581,7.3581,7.3581,7.3581,7.3688,7.4456,7.5293,7.6015,7.6015,7.6015,7.6015,7.6015,7.6015,7.6015,7.6015,7.6053,7.6053,7.6053,7.6698,7.7275,7.716,7.7713,7.8244,7.8168,7.8099,7.8027,7.8065,7.8061,7.8056,7.8064,7.8065,7.8369,7.9208,7.9361,0.0,8.0391,8.0506,8.0506,8.0506,8.0506,8.0506,8.0506,8.0506,8.0506,8.0506,8.0506,8.0506,8.0506,7.9743,7.9361,7.9361,7.8484,7.8024,7.8053,0.0,0.0,0.0,0.0,0.0,0.0,0.0,0.0,0.0,0.0,0.0,0.0,0.0,0.0,0.0,0.0,0.0,0.0,0.0,0.0,0.0,0.0,6.709,6.709,6.8205,6.9167,6.9629,7.0206,7.0667,7.0898,7.0898,7.0898,7.0898,7.0898,7.0898,7.0898,7.0898,7.1168,7.1811,7.1849,7.2157,7.2762,7.3031,7.3119,7.3149,7.3409,7.3486,7.3524,7.4101,7.437,7.4418,7.5024,7.5293,7.5332,7.5553,7.5668,7.563,7.537,7.5293,7.5293,7.5293,7.5293,7.5332,7.5592,7.5822,7.6015,7.6015,7.6015,7.6015,7.6015,7.6015,7.613,7.6775,7.6929,7.7083,7.7651,7.7959,7.8083,7.7985,7.8041,7.8292,7.8863,7.8941,7.9094,7.9705,7.9818,7.9627,7.9055,7.9437,7.9896,8.0162,8.02,0.0,8.0468,8.0506,8.0506,8.0506,8.0506,8.0506,8.0506,8.0506,8.0506,8.0506,8.0506,8.0506,8.0506,8.0315,8.02,8.02,7.9361,7.8941,0.0,0.0,0.0,0.0,0.0,0.0,0.0,0.0,0.0,0.0,0.0,0.0,0.0,0.0,0.0,0.0,0.0,0.0,0.0,0.0,0.0,0.0,6.7705,6.8205,6.8205,6.9052,6.9821,7.0167,7.0629,7.0898,7.0898,7.0898,7.0898,7.0898,7.0898,7.1052,7.1426,7.1464,7.1849,7.2723,7.2745,7.2976,7.3476,7.385,7.4014,7.3995,7.4379,7.4533,7.4533,7.5024,7.5216,7.5255,7.5784,7.6015,7.6015,7.6015,7.6015,0.0,0.0,0.0,0.0,0.0,7.6015,7.6015,7.6015,7.6245,7.6544,7.6544,7.6775,7.7044,7.7044,7.7044,7.716,7.7651,7.7814,7.79,7.8323,7.8699,7.8908,7.8793,7.8971,7.9285,7.9705,7.9781,7.9934,8.043,8.0506,0.0,7.9857,8.02,8.0506,8.0506,8.0506,8.0621,8.1002,8.104,8.1193,8.1499,8.1537,8.1537,8.1537,8.1537,0.0,0.0,0.0,8.085,8.0506,8.0506,0.0,0.0,0.0,7.9781,7.9781,7.9285,0.0,0.0,7.8326,7.802,0.0,0.0,0.0,0.0,0.0,0.0,0.0,0.0,0.0,0.0,0.0,0.0,0.0,0.0,0.0,0.0,6.8706,6.9744,6.9821,6.986,7.009,7.0821,7.0898,7.0898,7.0898,7.0898,7.0937,7.1052,7.1052,7.1426,7.23,0.0,0.0,0.0,0.0,7.3688,7.3803,7.4495,7.487,7.487,7.563,7.6015,7.6015,7.6092,7.613,7.613,7.6245,7.6284,7.6284,7.6284,7.6284,7.6284,7.6207,7.6207,7.6284,7.6284,7.6284,7.6284,7.6284,0.0,0.0,7.7429,7.7891,7.8498,7.8498,7.8498,7.8536,7.8613,7.8631,7.8646,7.8685,7.923,7.978,7.9587,8.0086,8.0582,8.0506,8.0582,8.0659,8.0659,8.0697,8.0773,8.0773,8.0697,8.0659,8.0659,8.0697,8.1078,8.1842,8.1919,8.2187,8.2913,0.0,0.0,8.2989,8.2989,8.2989,8.2989,8.2339,8.1575,8.0812,8.0773,8.0735,8.0659,8.0659,8.0582,8.0506,8.0506,8.0506,8.0468,7.8942,7.8256,0.0,0.0,0.0,0.0,0.0,0.0,0.0,0.0,0.0,0.0,0.0,0.0,0.0,0.0,0.0,6.8975,6.9475,6.9937,7.0591,7.0667,7.0744,7.0898,7.0898,7.0898,7.0898,7.0898,7.1168,7.1887,7.1964,7.2338,7.3185,7.3245,7.3611,7.4447,7.4486,7.4832,7.5485,7.5668,7.5745,7.5745,0.0,0.0,7.6015,7.6736,7.7044,7.7083,7.7728,7.8036,7.8036,7.8023,7.8023,7.7938,7.7301,7.7424,7.8031,7.8015,7.8015,7.8015,7.8015,7.8122,7.8267,7.8254,7.8377,7.8492,7.8492,7.8492,0.0,7.9331,7.9523,7.9638,8.0254,8.0404,8.0389,8.0353,8.0468,8.0506,8.0506,8.1078,8.1537,8.1537,8.2071,8.2492,8.2492,8.1995,8.1537,8.1537,8.211,8.2569,8.2759,8.276,8.2835,8.2988,8.2988,8.2988,8.2988,8.2988,8.2988,8.2988,8.2875,8.2684,8.2493,8.2493,8.2225,8.1537,8.1537,8.1193,8.0506,8.0506,8.0506,8.0506,8.02,8.0047,0.0,0.0,0.0,0.0,0.0,0.0,0.0,0.0,0.0,0.0,0.0,6.6628,0.0,0.0,6.8706,6.9552,7.0052,7.0437,7.0821,7.0898,7.0898,7.0898,7.0898,7.0898,7.0898,7.1283,7.1734,7.2157,7.2591,7.3245,7.4081,7.4101,7.4456,7.5293,7.5332,7.5592,7.6015,7.6015,7.6207,7.6659,7.6659,7.6852,7.7275,7.7707,7.7908,7.7908,7.8323,7.8515,7.8515,7.8492,7.8762,7.91,7.8723,7.85,7.8531,7.8492,7.8523,7.8523,7.8523,7.8784,7.9131,7.9177,7.9453,7.9792,7.9792,7.9792,7.9908,8.0331,8.0369,8.0376,8.075,8.0729,8.0697,8.1116,8.1193,8.1269,8.1652,8.211,8.2416,8.2416,8.276,8.299,8.299,8.3028,8.2913,8.2454,8.276,8.3142,8.3601,8.3638,8.379,8.421,8.4248,8.4248,8.4248,8.4248,8.4057,8.3675,8.3638,8.3448,8.3028,8.299,8.2798,8.2416,8.2416,8.2187,8.1729,8.1729,8.1729,8.1729,8.1729,8.1308,0.0,0.0,0.0,0.0,0.0,0.0,0.0,0.0,6.5897,6.5897,6.6551,6.7128,6.7321,6.8629,6.9744,6.9898,7.0475,7.0898,7.0898,7.0898,7.0975,7.1129,7.1129,7.1129,7.1129,7.1926,7.2503,7.2657,7.3332,7.4072,7.4909,7.4947,7.5255,7.5976,7.6169,7.6245,7.6245,7.6399,7.6861,7.7545,7.7545,7.7891,7.8507,7.8677,7.8762,7.8762,7.8954,7.9031,7.9031,7.9031,7.9415,8.0061,8.0061,7.9638,7.9031,7.9031,7.9031,7.9031,7.9031,7.9453,8.0061,8.0061,8.0523,8.1093,8.1093,8.1093,8.1131,8.1246,8.1208,8.1145,8.1265,8.1193,8.1231,8.188,8.2034,8.2225,8.2874,8.3142,8.3257,8.3255,8.3368,8.3523,8.3523,8.4057,8.421,8.3368,8.3408,8.3752,8.444,8.4555,8.4784,8.5435,8.5511,8.5511,8.5511,8.5511,8.5244,8.4593,8.4518,8.4212,8.3486,8.3486,8.341,8.3257,8.3257,8.3181,8.299,8.299,8.299,8.299,8.299,8.2264,6.5897,6.5897,6.5897,6.5897,6.5897,6.5897,0.0,0.0,6.5897,6.5897,6.6551,6.7321,6.8129,6.9052,6.9937,7.0667,7.0821,7.0898,7.0898,7.0898,7.1168,7.1964,7.2041,7.2041,7.2041,7.2839,7.3647,7.437,7.4524,7.4947,7.5822,7.5861,7.5899,7.6015,7.6775,7.716,7.716,7.7869,7.8262,7.8377,7.8377,7.8416,7.8531,7.93,7.9677,7.9715,8.0446,8.0823,8.0823,8.0823,8.0862,8.0939,8.0939,8.09,8.0823,8.0823,8.0823,8.0823,8.0823,8.0862,8.0939,8.0939,8.1016,8.1093,8.1093,8.1093,8.1246,8.1893,8.197,8.2061,8.2756,8.2835,8.2759,8.2835,8.2875,8.2912,8.2988,8.3599,8.4173,8.4133,8.4746,8.5244,8.5244,8.532,8.509,8.4288,8.4746,8.5282,8.5358,8.5397,8.5397,8.5511,8.5511,8.5511,8.5511,8.5511,8.5473,8.5397,8.5358,8.532,8.5244,8.5244,8.49,8.4174,8.4136,8.3754,8.299,8.299,8.299,8.299,8.299,8.2875,6.5897,6.5897,0.0,0.0,6.5897,6.5897,6.5897,6.5897,6.6013,6.6513,6.7244,6.8116,6.8975,6.9821,7.0514,0.0,7.0898,7.0898,7.0898,7.1321,7.1772,7.2157,7.3053,7.3476,7.2986,7.3707,7.4361,7.4678,7.5178,7.563,7.5976,7.6476,7.6775,7.6775,7.7574,7.8006,7.7985,7.8339,7.8762,7.9261,7.9261,7.9492,8.0023,8.0369,8.0561,8.0561,8.0939,8.1093,8.1093,8.1093,8.1362,8.1785,8.1785,8.2093,8.2439,8.1477,8.1093,8.1093,8.1093,8.14,8.1785,8.1823,8.2131,8.2547,8.2547,8.2547,8.2586,8.2848,8.2847,8.2832,8.3142,8.3104,8.3142,8.3639,8.3753,8.3866,8.4364,8.4746,8.4975,8.4975,8.566,8.623,8.623,8.6694,8.6887,8.6581,8.635,8.6235,8.6235,8.6696,8.7001,8.6999,8.7001,8.7001,8.7001,8.7001,8.7001,8.7001,8.6543,8.6275,8.6275,8.5779,8.5358,8.5015,8.5015,8.4824,8.4441,8.4441,8.4441,8.4441,8.4441,8.4441,6.5897,0.0,0.0,6.5897,6.5897,6.5897,6.5897,6.6051,6.6423,6.7,6.8001,6.8963,6.9578,7.036,7.0898,7.0898,7.0898,7.0975,7.1206,7.1811,7.2349,7.285,7.3947,7.4601,7.4226,7.4716,7.5062,7.5062,7.5861,7.6361,7.6361,7.716,7.7622,7.763,7.843,7.8861,7.8877,7.9107,7.953,8.0138,8.0138,8.0484,8.1093,8.1323,8.1439,8.1439,8.167,8.1785,8.1785,8.1785,8.2131,8.267,8.267,8.3016,8.3439,8.2247,8.1785,8.1785,8.1785,8.217,8.267,8.267,8.3086,8.3587,8.3618,8.3587,8.3625,8.3702,8.3707,8.3713,8.379,8.3752,8.3866,8.4478,8.4631,8.486,8.5662,8.5893,8.5932,8.6161,8.6729,8.7184,8.7142,8.7683,8.811,8.811,8.7725,8.7419,8.719,8.7727,8.811,8.8068,8.811,8.811,8.811,8.811,8.811,8.811,8.7498,8.7154,8.7154,8.6543,8.6237,8.6237,8.6237,8.6123,8.5855,8.5855,8.5741,8.5511,8.5511,8.5511,0.0,0.0,6.5897,6.5897,6.5897,6.5897,6.5897,6.65,6.7064,6.7077,6.8462,6.9655,6.9694,7.0387,7.0898,7.0898,7.0898,7.1206,7.2041,7.2157,7.2811,7.4447,7.4678,7.5024,0.0,7.5938,7.5976,7.5976,7.6775,7.7237,7.7237,7.8036,7.8468,7.8454,7.93,7.9754,7.9754,8.0631,8.1016,8.1054,8.1054,8.1054,8.1131,8.19,8.2247,8.2324,8.317,8.3516,8.3516,8.3516,8.3516,8.3555,8.3555,8.3555,8.3593,8.3516,8.3516,8.3516,8.3516,8.3516,8.3555,8.3555,8.3593,8.3599,8.3593,8.3599,8.372,8.4374,8.4552,8.4708,8.5282,8.5435,8.5435,8.5473,8.5473,8.5702,8.6579,8.677,8.6999,8.7842,8.8033,8.803,8.8023,8.8065,8.8107,8.8107,8.8759,8.895,8.8145,8.811,8.811,8.811,8.811,8.811,8.811,8.811,8.811,8.811,8.8071,8.8071,8.8071,8.8033,8.7995,8.7995,8.7995,8.7613,8.6772,8.6772,8.6352,8.5511,8.5511,8.5511,0.0,0.0,6.5897,6.5897,6.6282,6.6705,6.6692,6.7346,6.8116,6.8693,6.9297,6.9862,7.0387,7.0706,7.0898,7.0898,7.1387,7.1849,7.2157,7.3168,7.4063,7.4639,7.5216,0.0,0.0,0.0,0.0,7.6813,7.7121,7.7545,7.8062,7.89,7.9331,7.9338,8.0215,8.0669,8.0669,8.0939,8.1093,8.1093,8.1631,8.19,8.19,8.2785,8.317,8.317,8.3478,8.3593,8.3593,8.3593,8.3939,8.4478,8.4478,8.4786,8.5247,8.5247,8.5247,8.5093,8.3978,8.3978,8.4478,8.4478,8.4824,8.5286,8.5247,8.5286,8.5291,8.5483,8.547,8.5588,8.6235,8.6388,8.6503,8.7078,8.7231,8.7307,8.7613,8.7687,8.776,8.8027,8.8565,8.8909,8.8905,8.9367,8.9791,8.9791,8.9523,8.9409,8.9752,8.9752,8.9752,8.9752,8.9752,8.9752,8.9752,8.9752,8.9752,8.9752,8.9218,8.8912,8.8912,8.8377,8.811,8.811,8.811,8.7957,8.7651,8.7651,8.7498,8.7231,8.7231,8.7231,0.0,6.5897,6.5974,6.6269,6.6731,6.7192,6.75,6.8257,6.9027,6.9566,6.9939,7.0298,7.0783,7.0898,7.1014,7.1283,7.1811,7.2388,7.3042,7.4024,7.4832,7.5139,7.5668,7.613,0.0,0.0,0.0,7.7237,7.7852,7.8438,7.8954,7.9792,8.0254,8.0254,8.0823,8.1093,8.1093,8.1093,8.1246,8.1554,8.2362,8.2747,8.2785,8.367,8.4055,8.4093,8.4362,8.4478,8.4478,8.4478,8.4824,8.5324,8.5324,8.5632,8.6126,8.6126,8.6351,8.6461,8.501,8.4863,8.5324,8.5324,8.567,8.617,8.6478,8.6555,8.6632,8.6824,8.6809,8.6814,8.7269,8.7305,8.7419,8.7995,8.811,8.8186,8.8453,8.8527,8.86,8.8943,8.9443,8.9749,8.9749,9.0207,9.0593,9.0593,9.0364,9.0287,9.0555,9.0593,9.0593,9.0593,9.0593,9.0593,9.0593,9.0593,9.0593,9.0593,9.0058,8.9752,8.9752,8.9256,8.8988,8.8988,8.8988,8.8835,8.853,8.853,8.8377,8.811,8.811,8.811,6.5897,6.5936,6.6128,6.6885,6.7179,6.7462,6.8282,6.9143,6.9772,6.9772,7.0375,7.0898,0.0,0.0,7.1245,7.208,7.2272,7.2888,7.4486,7.4755,7.5062,0.0,0.0,0.0,0.0,0.0,0.0,7.7429,0.0,7.9831,7.9869,8.0669,8.1093,8.1093,8.1093,8.1131,8.117,8.1208,8.1593,8.2362,8.3247,8.367,8.3708,8.4555,8.4978,8.5016,8.5786,8.6094,8.6094,8.6132,8.617,8.617,8.6209,8.6274,8.6338,8.6338,8.6902,8.7511,8.6582,8.6247,8.6247,8.6247,8.6247,8.6401,8.7248,8.7478,8.7632,8.8325,8.8454,8.8385,8.8305,8.8224,8.8145,8.8221,8.8262,8.8453,8.9218,8.937,8.96,9.044,9.0593,9.0631,9.0669,9.0669,9.0669,9.0746,9.1395,9.1586,9.0784,9.0708,9.0746,9.0746,9.0746,9.0746,9.0746,9.0746,9.0708,9.0669,9.0669,9.0631,9.0593,9.0593,9.0593,9.0593,9.0593,9.0211,8.937,8.937,8.8988,8.8224,8.8224,8.8224,6.5897,6.6346,6.6846,6.7039,6.8078,6.9104,6.9323,6.999,7.0579,7.0579,7.0771,7.0898,0.0,0.0,0.0,7.2157,7.3245,0.0,7.4639,7.5255,0.0,0.0,0.0,7.7044,7.7275,7.8438,0.0,0.0,7.9561,8.0061,8.0746,8.0977,8.1093,8.1093,8.1093,8.14,8.1977,8.2631,8.3054,8.3285,8.4132,8.4555,8.4593,8.544,8.5786,8.5824,8.6017,8.6094,8.6132,8.6852,8.7154,8.7192,8.7911,8.8205,8.8205,8.8205,8.8352,8.8545,8.8282,8.8143,8.8117,8.8051,8.8017,8.8055,8.8286,8.8363,8.8406,8.8598,8.8534,8.8539,8.9113,8.911,8.9179,8.9829,8.9982,9.002,9.0211,9.0287,9.0326,9.0555,9.0593,9.0784,9.1395,9.1472,9.1701,9.2351,9.2656,9.2465,9.1586,9.2045,9.2465,9.2465,9.2465,9.2465,9.2465,9.2465,9.2198,9.1548,9.1472,9.1243,9.0631,9.0593,9.0593,9.0593,9.0593,9.0478,9.0287,9.0287,9.0173,8.9982,8.9982,8.9982,6.6346,6.6769,6.7295,6.8052,6.8976,6.9785,7.0144,7.0579,7.0898,7.0898,7.0898,0.0,0.0,0.0,0.0,0.0,0.0,0.0,7.5216,7.5707,7.613,0.0,7.7006,0.0,7.8323,7.9254,7.9946,0.0,8.0369,8.0561,8.1054,8.1093,8.1246,8.1631,8.1631,8.2016,8.2862,8.3747,8.417,8.417,8.5016,8.544,8.544,8.5901,8.6324,8.6671,0.0,8.6929,8.7314,8.7911,8.8097,8.8174,8.8699,8.8922,8.8952,8.8952,8.9214,8.9552,8.9493,8.9733,8.9902,8.9002,8.8738,8.8815,8.9128,8.9248,8.929,8.9675,8.9683,8.965,9.0072,9.0032,9.0023,9.0478,9.0593,9.0593,9.0593,9.0593,9.0708,9.1052,9.1434,9.1854,9.2274,9.2351,9.2542,9.3038,9.3421,9.3497,9.3,9.3038,9.3115,9.3115,9.3115,9.3115,9.3115,9.3115,9.2886,9.2389,9.2351,9.216,9.1739,9.1701,9.1701,9.1701,9.1319,9.1128,9.1128,9.0784,9.0593,9.0593,9.0593,9.0593,6.6885,6.7295,6.7795,6.931,6.9772,7.0054,7.0733,7.0898,7.0898,7.0898,0.0,7.0937,7.1052,0.0,7.2657,7.3534,0.0,7.5139,7.5899,7.6092,7.6438,7.7198,7.7506,7.8207,7.9677,7.9908,8.0292,8.1054,8.1093,8.1093,8.1093,8.1208,8.1631,8.2477,8.2593,8.3016,8.3747,8.4632,8.5055,8.5093,8.5786,8.617,8.6286,8.6286,8.6781,8.7589,8.7687,8.8104,8.8836,8.9007,8.9077,8.9077,8.9261,8.933,8.9378,8.9378,8.9908,9.0583,9.0537,9.0972,9.1329,8.9709,8.9145,8.9266,8.9898,9.0094,9.0248,9.0979,9.11,9.0952,9.0954,9.0799,9.0679,9.0593,9.0669,9.0784,9.0784,9.0861,9.1128,9.1854,9.258,9.3153,9.3268,9.3268,9.3306,9.3421,9.407,9.4567,9.4567,9.3917,9.3421,9.3421,9.3421,9.3421,9.3421,9.3421,9.3382,9.3268,9.3268,9.3229,9.3115,9.3115,9.3115,9.3115,9.2351,9.1969,9.1969,9.1281,9.0937,9.0937,9.0937,9.0937,6.7039,6.8167,6.931,6.9618,7.0208,7.0733,7.086,7.0898,0.0,0.0,0.0,7.1129,7.1849,7.2685,0.0,7.437,0.0,0.0,0.0,0.0,7.7121,0.0,0.0,0.0,0.0,0.0,0.0,0.0,0.0,8.1093,8.1093,8.1747,8.2516,8.3362,8.4055,8.4516,8.467,8.5478,8.5901,8.5901,8.6017,8.6478,8.7171,8.7198,8.7732,8.8573,8.8598,0.0,8.893,8.9724,9.0083,9.0218,9.097,9.136,9.1411,9.1411,9.1489,9.1644,9.1566,9.1643,9.1666,9.1153,9.0911,9.0884,9.1005,9.1048,9.1018,9.1171,9.11,9.0952,9.0954,9.0799,9.0679,9.0593,9.1128,9.1586,9.1586,9.216,9.2695,9.2847,9.3,9.3344,9.407,9.4185,9.4414,9.5064,9.5293,9.5407,9.5407,9.5255,9.5178,9.5178,9.5178,9.5178,9.5178,9.5178,9.4872,9.4223,9.4185,9.3841,9.3115,9.3115,9.3115,9.3115,9.2962,9.2886,9.2886,9.2733,9.2656,9.2656,9.2656,9.2656,6.7641,6.8719,6.9797,7.0221,7.0618,7.0898,7.0898,0.0,0.0,0.0,0.0,7.1168,7.2041,0.0,0.0,0.0,0.0,0.0,0.0,0.0,0.0,0.0,0.0,0.0,0.0,0.0,0.0,0.0,0.0,8.1747,8.1747,8.2978,8.3862,8.4247,8.5093,8.5517,8.5517,8.5901,8.6094,8.6094,8.6588,8.7044,8.7468,8.7988,8.8675,8.9523,8.9578,8.9909,9.0393,9.0875,9.1113,9.1205,9.1683,9.1863,9.1888,9.1888,9.1888,9.1888,9.1838,9.1812,9.1759,9.1649,9.1531,9.1438,9.1341,9.1275,9.1241,9.121,9.1136,9.118,9.1567,9.1529,9.1525,9.1942,9.224,9.2465,9.2465,9.3153,9.3803,9.3803,9.4108,9.4529,9.4949,9.5025,9.5178,9.5522,9.5598,9.5598,9.5598,9.5598,9.5598,9.5598,9.5598,9.5598,9.5598,9.5598,9.5446,9.5064,9.5025,9.4834,9.4414,9.4414,9.4414,9.4414,9.3994,9.3803,9.3803,9.3306,9.3115,9.3115,9.3115,9.3115,6.845,6.9309,7.0102,7.0744,7.0898,7.0898,7.0898,7.0898,0.0,0.0,0.0,7.1245,7.2338,0.0,0.0,0.0,0.0,0.0,0.0,0.0,0.0,0.0,0.0,0.0,0.0,0.0,0.0,0.0,0.0,0.0,8.2862,8.417,8.4978,8.517,8.5786,8.6094,8.6094,8.6319,8.6396,8.6396,8.734,8.7911,8.8104,8.8853,8.9656,9.0535,9.0586,9.103,9.1771,9.1786,9.1863,9.1936,9.1936,9.1936,9.196,9.196,9.196,9.1936,9.1936,9.2004,9.2148,9.2096,9.187,9.157,9.1374,9.1424,9.1544,9.1514,9.1595,9.1867,9.2448,9.2488,9.2563,9.3361,9.3425,9.3421,9.3612,9.4185,9.4681,9.4681,9.5178,9.5598,9.5598,9.5598,9.5598,9.5598,9.5598,9.5598,9.5598,9.5598,9.5675,9.5866,9.5713,9.5598,9.5598,9.5598,9.5598,9.5598,9.5598,9.5598,9.5598,9.5598,9.5598,9.5598,9.4987,9.4681,9.4681,9.3955,9.365,9.365,9.365,9.365,6.936,7.014,7.0821,7.0898,7.0898,7.0898,7.0898,0.0,0.0,0.0,7.1052,7.158,7.3185,0.0,0.0,0.0,0.0,0.0,0.0,0.0,0.0,0.0,0.0,0.0,0.0,0.0,0.0,0.0,0.0,0.0,8.467,8.4824,8.5247,8.5978,8.6055,8.6094,8.6094,8.6961,8.7379,8.7379,8.8321,8.92,8.9972,9.0072,9.0663,9.1571,9.1616,9.1773,0.0,9.1863,9.1999,9.2088,9.2088,9.2112,9.2151,9.2151,9.2171,9.2151,9.211,9.2549,9.3163,9.3013,9.2335,9.157,9.14,9.1914,9.2469,9.2399,9.2903,9.3443,9.3485,9.3371,9.3483,9.4113,9.4299,9.449,9.5216,9.5446,9.5484,9.5484,9.556,9.5598,9.5598,9.5598,9.5598,9.5598,9.5598,9.5598,9.5598,9.5598,9.5904,9.6706,9.6057,9.5598,9.5598,9.5598,9.5598,9.5598,9.5598,9.5598,9.5598,9.5598,9.5598,9.5598,9.5522,9.5484,9.5484,9.5407,9.5369,9.5369,9.5369,9.5369,6.9602,7.0294,7.0898,7.0898,7.0937,7.0975,7.0975,0.0,0.0,7.1067,7.1502,7.2259,7.3442,7.4075,0.0,0.0,0.0,0.0,0.0,0.0,0.0,0.0,0.0,0.0,0.0,0.0,0.0,0.0,0.0,0.0,8.5792,8.5697,8.5819,8.612,8.6159,8.6422,8.7025,8.7364,8.7819,8.8359,8.927,8.9948,9.0354,9.0942,9.1423,9.1812,9.1838,9.1912,0.0,9.2044,9.2071,9.2171,9.2171,9.2501,9.2965,9.2965,9.3297,9.3745,9.3687,9.384,9.4086,9.3943,9.3567,9.3186,9.3068,9.3245,9.3417,9.3354,9.3515,9.3826,9.4328,9.4753,9.5058,9.5236,9.5227,9.5304,9.5522,9.5598,9.5598,9.5598,9.5598,9.5598,9.5598,9.5598,9.5789,9.6286,9.6363,9.6554,9.705,9.7089,9.7241,9.7585,9.6898,9.6363,9.6363,9.6363,9.6172,9.5637,9.5598,9.5598,9.5598,9.5598,9.5598,9.5598,9.5598,9.5598,9.5598,9.5598,9.5598,9.5598,9.5598,9.5598,6.9986,7.0475,7.0898,7.0937,7.0975,7.1002,0.0,0.0,0.0,7.1131,7.1855,7.2706,7.3557,7.4397,7.5204,0.0,0.0,7.6426,0.0,0.0,0.0,0.0,0.0,0.0,0.0,0.0,0.0,0.0,0.0,0.0,8.6384,8.6261,8.6191,8.6254,8.6485,8.694,8.758,8.815,8.8721,8.9368,9.0277,9.0787,9.0842,9.1515,9.1863,9.1936,9.1936,9.2005,0.0,9.2112,9.2326,9.2593,9.2593,9.3155,9.3895,9.3895,9.4284,9.4812,9.4757,9.4873,9.4984,9.4846,9.4925,9.5078,9.4936,9.4659,9.4337,9.427,9.4359,9.4595,9.5174,9.5713,9.6058,9.5856,9.5814,9.5772,9.5686,9.5643,9.5643,9.5598,9.5598,9.5675,9.5942,9.5981,9.6286,9.7127,9.7241,9.7471,9.8044,9.812,9.8197,9.8464,9.7967,9.7547,9.728,9.7241,9.6974,9.6363,9.6324,9.6324,9.6324,9.6095,9.5981,9.5981,9.5713,9.5598,9.5598,9.5598,9.5598,9.5598,9.5598,9.5598,7.0667,7.0898,7.0937,7.0975,7.1014,7.1017,0.0,0.0,0.0,7.1214,7.1971,7.2861,7.3644,7.4479,7.5252,7.6088,7.6204,0.0,0.0,0.0,0.0,0.0,0.0,0.0,0.0,0.0,0.0,0.0,0.0,0.0,8.6384,8.6423,8.6423,8.6423,8.7194,8.758,8.7619,8.9407,9.0315,9.04,9.1333,9.1812,9.1888,9.1888,9.196,9.211,9.211,9.2132,0.0,9.2187,9.2749,9.3578,9.3578,9.4115,9.4885,9.4885,9.4894,9.4902,9.4812,9.5301,9.5942,9.5738,9.6269,9.6941,9.6803,9.6081,9.5263,9.5118,9.5668,9.6212,9.6136,9.6098,9.6058,9.5941,9.59,9.5859,9.5814,9.581,9.5768,9.5643,9.5598,9.5866,9.6745,9.6898,9.7165,9.7967,9.8082,9.8082,9.812,9.812,9.8426,9.9266,9.9381,9.9037,9.8158,9.8082,9.8082,9.8082,9.8082,9.8082,9.8082,9.7318,9.6898,9.6898,9.6019,9.5598,9.5598,9.5598,9.5598,9.5598,9.5598,9.5598,7.0821,7.0937,7.0975,7.0975,7.1094,7.1124,7.1153,0.0,0.0,0.0,0.0,7.3828,7.4672,7.5484,7.6127,7.6359,7.6838,7.7471,0.0,0.0,0.0,0.0,0.0,0.0,0.0,0.0,0.0,0.0,0.0,0.0,8.661,8.7151,8.7472,8.736,8.7649,8.8373,8.9549,9.0211,9.0805,9.1425,9.1721,9.1912,9.2044,9.2044,9.2071,9.2171,9.2171,9.2519,9.3172,9.3172,9.3694,9.4481,9.4481,9.5026,9.5782,9.5782,9.6171,9.6647,9.662,9.674,9.6935,9.6703,9.6799,9.6979,9.6898,9.6529,9.6073,9.5973,9.6132,9.6288,9.6251,9.6251,9.6213,9.6058,9.6058,9.6019,9.5859,9.5814,9.5964,9.6456,9.6522,9.6745,9.7585,9.7738,9.8006,9.8846,9.8999,9.919,9.9725,9.9801,9.9916,10.0183,10.0183,9.9878,9.9075,9.8999,9.8732,9.8158,9.812,9.812,9.812,9.7853,9.7738,9.7738,9.7471,9.7318,9.7318,9.7318,9.705,9.6477,9.5866,9.5598,0.0,7.0975,7.1002,7.1069,7.1139,0.0,0.0,0.0,0.0,0.0,0.0,0.0,0.0,7.5989,7.6531,7.6531,7.7195,7.7974,0.0,0.0,0.0,0.0,0.0,0.0,0.0,0.0,0.0,0.0,0.0,0.0,8.7202,8.773,8.83,8.8841,8.8907,8.9423,9.0559,9.0894,9.1408,9.1999,9.1999,9.2028,9.2132,9.2132,9.2326,9.271,9.271,9.3266,0.0,9.413,9.4627,9.5433,9.542,9.5966,9.6731,9.6678,9.7028,9.7481,9.7437,9.7401,9.7382,9.7176,9.7031,9.6953,9.6841,9.6692,9.6497,9.6397,9.6325,9.6288,9.6288,9.6288,9.6288,9.6213,9.6213,9.6251,9.6403,9.6399,9.6626,9.7427,9.7489,9.7713,9.851,9.8624,9.8884,9.9725,9.984,9.9992,10.0489,10.0604,10.0604,10.0604,10.0604,10.0413,9.9878,9.984,9.961,9.9075,9.9037,9.9037,9.9037,9.877,9.8579,9.8579,9.8273,9.812,9.812,9.812,9.7853,9.7356,9.6783,9.6554,0.0,0.0,0.0,0.0,0.0,0.0,0.0,0.0,0.0,0.0,0.0,0.0,0.0,0.0,7.6648,7.6687,7.7384,7.8177,0.0,0.0,0.0,0.0,0.0,0.0,0.0,0.0,0.0,0.0,0.0,0.0,8.8073,8.8189,8.8965,9.0555,9.0671,9.071,9.071,9.1524,9.1983,9.211,9.211,9.2132,9.2226,9.2265,9.2766,0.0,9.3655,9.4208,9.5096,9.5096,9.5627,9.6391,9.6395,9.6889,9.7591,9.7511,9.7496,9.7481,9.7398,9.7401,9.7382,9.7153,9.7006,9.687,9.6761,9.6597,9.6459,9.6429,9.6361,9.6288,9.6288,9.6326,9.6403,9.6403,9.6442,9.6674,9.7366,9.748,9.7709,9.8434,9.8461,9.8643,9.9523,9.9587,9.9725,10.0489,10.0604,10.0604,10.0604,10.0604,10.0604,10.0604,10.0604,10.0604,10.0604,10.0604,10.0604,10.0604,10.0604,10.0604,10.0604,9.9878,9.9496,9.9496,9.8693,9.8273,9.8273,9.8235,9.8197,9.8197,9.812,9.812,0.0,0.0,0.0,0.0,0.0,0.0,0.0,0.0,0.0,0.0,0.0,0.0,0.0,0.0,0.0,7.7466,7.8263,7.9078,0.0,0.0,0.0,0.0,0.0,0.0,0.0,0.0,0.0,0.0,0.0,8.7204,8.8145,8.8805,8.9701,9.0869,9.1491,9.1801,9.1756,9.1996,9.2171,9.219,9.219,9.2226,9.2315,9.2977,9.3414,9.3705,9.4368,9.5173,9.599,9.599,9.6508,9.7288,9.7277,9.7421,9.7591,9.7578,9.7525,9.7496,9.7433,9.7398,9.7363,9.7106,9.7006,9.6953,9.6812,9.6661,9.6459,9.6429,9.6361,9.6288,9.6288,9.6749,9.7211,9.7211,9.7711,9.825,9.8404,9.8404,9.8594,9.9399,9.947,9.9611,10.0365,10.0519,10.0467,10.0604,10.0604,10.0604,10.0604,10.0604,10.0604,10.0604,10.0604,10.0604,10.0604,10.0604,10.0604,10.0604,10.0604,10.0604,10.0604,10.0413,10.0298,10.0298,10.0107,9.9992,9.9992,9.9381,9.9075,9.9075,9.8426,9.812,0.0,0.0,0.0,0.0,0.0,0.0,0.0,0.0,0.0,0.0,0.0,0.0,0.0,0.0,0.0,0.0,7.865,0.0,0.0,0.0,0.0,0.0,0.0,0.0,0.0,0.0,0.0,0.0,0.0,8.7894,8.8847,8.9702,9.0615,9.1525,9.2009,9.2226,9.2152,9.219,9.2226,9.226,9.226,9.2487,9.2976,9.3443,9.4095,9.4925,9.5393,9.6068,9.6919,9.6919,9.7202,9.7641,9.7622,9.76,9.7616,9.7591,9.7564,9.7496,9.741,9.7381,9.7304,9.7082,9.7006,9.7057,9.7345,9.724,9.7032,9.6579,9.6628,9.6865,9.6865,9.748,9.8096,9.8096,9.8442,9.8904,9.9288,9.9327,9.9557,10.0403,10.0515,10.0467,10.0885,10.0913,10.0825,10.0696,10.0612,10.0604,10.0604,10.0604,10.0604,10.0604,10.0604,10.0604,10.0604,10.0604,10.0604,10.0604,10.0604,10.0604,10.0604,10.0604,10.0604,10.0604,10.0604,10.0604,10.0604,10.0183,9.9954,9.9954,9.9458,9.9266,0.0,0.0,0.0,0.0,0.0,0.0,0.0,0.0,0.0,0.0,0.0,0.0,0.0,0.0,0.0,0.0,0.0,0.0,0.0,0.0,0.0,0.0,0.0,0.0,0.0,0.0,0.0,0.0,0.0,8.8728,8.9635,9.053,9.1387,9.2204,9.2293,9.2293,9.2221,9.2243,9.226,9.2308,9.2308,9.282,9.3704,9.386,9.4769,9.6324,9.6441,9.6919,9.7602,9.7602,9.7659,9.7675,9.765,9.7593,9.76,9.7616,9.7578,9.7496,9.7449,9.7362,9.7302,9.7237,9.72,9.7328,9.808,9.816,9.7843,9.711,9.728,9.7711,9.7711,9.8365,9.8981,9.8981,9.9096,9.9365,10.0096,10.0289,10.0481,10.1212,10.1287,10.1208,10.1206,10.1,10.0793,10.0787,10.0696,10.0566,10.0604,10.0604,10.0604,10.0604,10.0604,10.0604,10.0604,10.0604,10.0604,10.0604,10.0604,10.0604,10.0604,10.0604,10.0604,10.0604,10.0604,10.0604,10.0604,10.0604,10.0604,10.0604,10.0604,10.0604,0.0,0.0,0.0,0.0,0.0,0.0,0.0,0.0,0.0,0.0,0.0,0.0,0.0,0.0,0.0,0.0,0.0,0.0,0.0,0.0,0.0,0.0,0.0,0.0,0.0,0.0,0.0,0.0,0.0,8.8779,8.9644,9.054,9.1412,9.2338,9.2366,9.238,9.238,9.2391,9.2352,9.2393,9.2393,9.2834,9.3727,9.4468,9.5387,9.6422,0.0,9.7494,9.7667,9.7667,9.7675,9.7714,9.7675,9.7659,9.7593,9.76,9.7577,9.7564,9.7455,9.7401,9.748,9.8008,9.8143,9.822,9.8989,9.9042,9.8884,9.873,9.8628,9.8596,9.8596,9.925,9.9904,9.9904,10.0404,10.1019,10.1096,10.1096,10.1212,10.1289,10.1327,10.1326,10.1208,10.1206,10.1081,10.0831,10.0825,10.0703,10.0604,10.0604,10.0604,10.0604,10.0604,10.0604,10.0604,10.0604,10.0604,10.0604,10.0604,10.0604,10.0604,10.0604,10.0604,10.0604,10.0604,10.0604,10.0604,10.0604,10.0604,10.0604,10.0604,10.0604,7.133,0.0,0.0,0.0,0.0,0.0,0.0,0.0,0.0,0.0,0.0,0.0,0.0,0.0,0.0,0.0,0.0,0.0,0.0,0.0,0.0,0.0,0.0,0.0,0.0,0.0,0.0,0.0,0.0,8.9489,9.0415,9.13,9.1938,9.238,9.2456,9.2429,9.2429,9.2456,9.2456,9.2468,9.2897,9.3582,9.45,9.5359,9.6236,9.7112,9.7503,9.7667,9.7714,9.7714,9.7714,9.7714,9.7714,9.7659,9.7593,9.7589,9.7591,9.7511,9.7433,9.7692,9.8083,9.8364,9.8672,9.9138,9.987,9.9963,9.9956,10.0273,9.9977,9.9481,9.9481,10.0096,10.0712,10.0712,10.1019,10.1289,10.1289,10.1289,10.1289,10.1289,10.1289,10.1288,10.1287,10.1208,10.1165,10.1004,10.0913,10.0825,10.0696,10.0612,10.0604,10.0604,10.0604,10.0604,10.0604,10.0604,10.0604,10.0604,10.0604,10.0604,10.0604,10.0604,10.0604,10.0604,10.0604,10.0604,10.0604,10.0604,10.0604,10.0604,10.0604,10.0604,7.164,7.225,0.0,0.0,0.0,0.0,0.0,0.0,0.0,0.0,0.0,0.0,0.0,0.0,0.0,0.0,0.0,0.0,0.0,0.0,0.0,0.0,0.0,0.0,0.0,0.0,0.0,0.0,8.927,9.0142,9.1041,9.1925,9.2405,9.2417,9.249,9.25,9.25,9.251,9.251,9.25,9.332,9.4188,9.5113,9.6011,9.6878,9.7714,9.7714,9.7714,9.7714,9.7714,9.7714,9.7714,9.7714,9.7659,9.7593,9.7589,9.7695,9.7769,9.7722,9.8216,9.8939,9.9052,9.9459,9.9991,10.0789,10.0914,10.091,10.1427,10.1015,10.0404,10.0404,10.0789,10.1289,10.1289,10.1289,10.1289,10.1289,10.1289,10.1289,10.1289,10.1289,10.1289,10.1289,10.1287,10.1208,10.1167,10.1004,10.0913,10.0787,10.0696,10.0612,10.0604,10.0604,10.0604,10.0604,10.0604,10.0604,10.0604,10.0604,10.0604,10.0604,10.0604,10.0604,10.0604,10.0604,10.0604,10.0604,10.0604,10.0604,10.0604,10.0604,10.0604,7.2435,7.2793,0.0,0.0,0.0,0.0,0.0,0.0,0.0,0.0,0.0,0.0,0.0,0.0,0.0,0.0,0.0,0.0,0.0,0.0,0.0,0.0,0.0,0.0,0.0,0.0,0.0,8.8437,8.9285,9.0184,9.1028,9.1937,9.2417,9.249,9.252,9.249,9.249,9.2507,9.2507,9.2529,9.3387,9.4255,9.5137,9.5996,9.6894,9.7714,9.7714,9.7714,9.7714,9.7714,9.7714,9.7714,9.7714,9.7659,9.7593,9.7611,9.8084,9.8708,9.8634,9.9111,9.9931,10.0688,10.0803,10.0922,10.1697,10.1796,10.1572,10.162,10.1514,10.1404,10.1212,10.1289,10.1289,10.1289,10.1289,10.1289,10.1289,10.1289,10.1289,10.1289,10.1289,10.1289,10.1289,10.1327,10.1288,10.1208,10.1206,10.1123,10.0831,10.0825,10.0703,10.0604,10.0604,10.0604,10.0604,10.0604,10.0604,10.0604,10.0604,10.0604,10.0604,10.0604,10.0604,10.0604,10.0604,10.0604,10.0604,10.0604,10.0604,10.0604,10.0604,10.0604,7.2754,7.3643,7.4645,7.5415,0.0,0.0,0.0,0.0,0.0,0.0,0.0,0.0,0.0,0.0,0.0,0.0,0.0,0.0,0.0,0.0,0.0,0.0,0.0,0.0,0.0,0.0,8.835,8.9246,9.0106,9.0989,9.1859,9.2245,9.2471,9.252,9.2498,9.2514,9.2514,9.2522,9.2756,9.3326,9.4193,9.5052,9.5957,9.6816,9.7401,9.7714,9.7714,9.7714,9.7714,9.7714,9.7714,9.7714,9.7714,9.7659,9.768,9.8196,9.8552,9.8864,9.9405,10.0098,10.0785,10.1078,10.1401,10.1802,10.1995,10.2,10.1812,10.1693,10.1588,10.1478,10.1289,10.1289,10.1289,10.1289,10.1289,10.1289,10.1289,10.1289,10.1289,10.1289,10.1289,10.1289,10.1289,10.1289,10.1327,10.1326,10.1208,10.1206,10.1081,10.0875,10.0825,10.0703,10.0612,10.0604,10.0604,10.0604,10.0604,10.0604,10.0604,10.0604,10.0604,10.0604,10.0604,10.0604,10.0604,10.0604,10.0604,10.0604,10.0604,10.0604,10.0604,10.0604,7.3511,7.4553,7.5541,7.5923,0.0,0.0,0.0,0.0,0.0,0.0,0.0,0.0,0.0,0.0,0.0,0.0,0.0,0.0,0.0,0.0,0.0,0.0,0.0,0.0,0.0,8.7974,8.8884,8.9755,9.0638,9.1481,9.239,9.2471,9.2498,9.2498,9.2514,9.2482,9.2482,9.2756,9.3341,9.4239,9.5098,9.5801,9.6425,9.7284,9.7714,9.7714,9.7714,9.7714,9.7714,9.7714,9.7714,9.7714,9.7714,9.7823,9.8119,9.8675,9.9188,9.9709,10.0292,10.0987,10.1699,10.1623,10.1911,10.2303,10.21,10.2107,10.1903,10.1688,10.162,10.1588,10.1404,10.1289,10.1289,10.1289,10.1289,10.1289,10.1289,10.1289,10.1289,10.1289,10.1289,10.1289,10.1289,10.1289,10.1289,10.1289,10.1287,10.1208,10.1167,10.1004,10.0913,10.0787,10.0734,10.0604,10.0604,10.0604,10.0604,10.0604,10.0604,10.0604,10.0604,10.0604,10.0604,10.0604,10.0604,10.0604,10.0604,10.0604,10.0604,10.0604,10.0604,10.0604,7.4937,7.5507,0.0,0.0,0.0,0.0,0.0,0.0,0.0,0.0,0.0,0.0,0.0,0.0,0.0,0.0,0.0,0.0,0.0,0.0,0.0,0.0,0.0,0.0,8.7209,8.7988,8.8898,8.9832,9.0651,9.1532,9.2451,9.249,9.2498,9.2482,9.2482,9.2482,9.2482,9.3341,9.4239,9.5098,9.5996,9.6386,9.6425,9.7323,9.7714,9.7714,9.7714,9.7714,9.7714,9.7714,9.7714,9.7714,9.7714,9.8221,9.8994,9.8938,9.9963,10.1384,10.1386,10.1899,10.2594,10.2518,10.2378,10.2303,10.21,10.2107,10.1981,10.1826,10.1693,10.1588,10.1516,10.1404,10.1289,10.1289,10.1289,10.1289,10.1289,10.1289,10.1289,10.1289,10.1289,10.1289,10.1289,10.1289,10.1289,10.1289,10.1289,10.1288,10.1208,10.1206,10.1085,10.0831,10.0734,10.0604,10.0604,10.0604,10.0604,10.0604,10.0604,10.0604,10.0604,10.0604,10.0604,10.0604,10.0604,10.0604,10.0604,10.0604,10.0604,10.0604,10.0604,10.0604,7.5209,0.0,0.0,0.0,0.0,0.0,0.0,0.0,0.0,0.0,0.0,0.0,0.0,0.0,0.0,0.0,0.0,0.0,0.0,0.0,0.0,0.0,8.7259,8.7504,8.8143,8.8986,8.9855,9.0763,9.1603,9.2198,9.249,9.2507,9.2514,9.2482,9.2482,9.2482,9.2482,9.3341,9.4239,9.5098,9.5996,9.6738,9.7323,9.7597,9.7714,9.7714,9.7714,9.7714,9.7714,9.7714,9.7714,9.7753,9.8377,9.8768,9.915,10.0304,10.0977,10.1501,10.2088,10.2397,10.2607,10.2612,10.2499,10.2378,10.2303,10.2177,10.199,10.1889,10.1722,10.1588,10.1516,10.1404,10.1289,10.1289,10.1289,10.1289,10.1289,10.1289,10.1289,10.1289,10.1289,10.1289,10.1289,10.1289,10.1289,10.1289,10.1289,10.1288,10.1208,10.1206,10.1085,10.0831,10.078,10.0696,10.0604,10.0604,10.0604,10.0604,10.0604,10.0604,10.0604,10.0604,10.0604,10.0604,10.0604,10.0604,10.0604,10.0604,10.0604,10.0604,10.0604,10.0604,0.0,0.0,0.0,0.0,0.0,0.0,0.0,0.0,0.0,0.0,0.0,0.0,0.0,0.0,0.0,0.0,0.0,0.0,0.0,0.0,8.6707,8.7242,8.7292,8.7643,8.8529,8.9398,9.0277,9.1145,9.2013,9.2498,9.2507,9.2514,9.2482,9.2482,9.2482,9.2678,9.299,9.3888,9.4747,9.5645,9.6503,9.7206,9.7714,9.7714,9.7714,9.7714,9.7714,9.7714,9.7714,9.7714,9.7909,9.826,9.8807,9.9392,10.0095,10.1094,10.17,10.1981,10.2491,10.2698,10.2616,10.2591,10.2615,10.2518,10.2272,10.219,10.2096,10.2019,10.1826,10.162,10.1591,10.1518,10.1404,10.1289,10.1289,10.1289,10.1289,10.1289,10.1289,10.1289,10.1289,10.1289,10.1289,10.1289,10.1289,10.1289,10.1289,10.1288,10.121,10.1208,10.1126,10.0875,10.0831,10.0703,10.0604,10.0604,10.0604,10.0604,10.0604,10.0604,10.0604,10.0604,10.0604,10.0604,10.0604,10.0604,10.0604,10.0604,10.0604,10.0604,10.0604,10.0604,0.0,0.0,0.0,0.0,0.0,0.0,0.0,0.0,0.0,0.0,0.0,0.0,0.0,0.0,0.0,0.0,0.0,0.0,0.0,0.0,8.7312,8.7302,8.7302,8.7702,8.8638,8.9457,9.0286,9.1249,9.2069,9.2507,9.2482,9.2482,9.2482,9.2482,9.2482,9.2912,9.381,9.4669,9.5527,9.6425,9.7284,9.7714,9.7714,9.7714,9.7714,9.7714,9.7714,9.7714,9.7714,9.7714,9.8221,9.9002,9.908,10.0095,10.15,10.1618,10.2108,10.2792,10.2683,10.2686,10.2685,10.2607,10.2594,10.2479,10.2412,10.2215,10.2085,10.2,10.192,10.1722,10.1581,10.1591,10.1481,10.1328,10.1289,10.1289,10.1289,10.1289,10.1289,10.1289,10.1289,10.1289,10.1289,10.1289,10.1289,10.1289,10.1289,10.1289,10.1289,10.121,10.1206,10.1004,10.0913,10.078,10.0566,10.0604,10.0604,10.0604,10.0604,10.0604,10.0604,10.0604,10.0604,10.0604,10.0604,10.0604,10.0604,10.0604,10.0604,10.0604,10.0604,10.0604,0.0,0.0,0.0,0.0,0.0,0.0,0.0,0.0,0.0,0.0,0.0,0.0,0.0,0.0,0.0,0.0,0.0,0.0,0.0,0.0,8.7386,8.7369,8.7386,8.7971,8.9476,8.9844,9.0602,9.2124,9.2397,9.2522,9.2482,9.2482,9.2482,9.2482,9.2482,9.2912,9.381,9.4669,9.5527,9.6425,9.7284,9.7714,9.7714,9.7714,9.7714,9.7714,9.7714,9.7714,9.7714,9.7714,9.8221,9.908,9.9744,10.0603,10.1618,10.2281,10.2616,10.2792,10.2782,10.271,10.2698,10.2724,10.2585,10.2576,10.2479,10.2373,10.2177,10.2112,10.1981,10.1819,10.1722,10.1624,10.1518,10.1481,10.1366,10.1289,10.1289,10.1289,10.1289,10.1289,10.1289,10.1289,10.1289,10.1289,10.1289,10.1289,10.1289,10.1289,10.1289,10.1288,10.121,10.1206,10.1004,10.0875,10.078,10.0688,10.0604,10.0604,10.0604,10.0604,10.0604,10.0604,10.0604,10.0604,10.0604,10.0604,10.0604,10.0604,10.0604,10.0604,10.0604,10.0604,0.0,0.0,0.0,0.0,0.0,0.0,0.0,0.0,0.0,0.0,0.0,0.0,0.0,0.0,0.0,0.0,0.0,0.0,0.0,8.7095,8.7401,8.7393,8.7752,8.8533,8.9813,9.0367,9.1155,9.2404,9.2482,9.2482,9.2482,9.2482,9.2482,9.2482,9.2482,9.3107,9.4395,9.4864,9.5762,9.7011,9.7479,9.7714,9.7714,9.7714,9.7714,9.7714,9.7714,9.7714,9.7714,9.8143,9.8846,9.9705,10.0485,10.1383,10.2203,10.2593,10.2781,10.2811,10.2792,10.28,10.2686,10.2698,10.2679,10.2594,10.2518,10.2417,10.2303,10.2203,10.2107,10.1881,10.1819,10.1693,10.1514,10.1479,10.1404,10.1289,10.1289,10.1289,10.1289,10.1289,10.1289,10.1289,10.1289,10.1289,10.1289,10.1289,10.1289,10.1289,10.1289,10.1289,10.1288,10.1208,10.1088,10.0962,10.0787,10.0703,10.0688,10.0604,10.0604,10.0604,10.0604,10.0604,10.0604,10.0604,10.0604,10.0604,10.0604,10.0604,10.0604,10.0604,10.0604,10.0604,0.0,0.0,0.0,0.0,0.0,0.0,0.0,0.0,0.0,0.0,0.0,0.0,0.0,0.0,0.0,0.0,8.4948,8.5573,8.7173,8.7407,8.7407,8.7407,8.8188,8.9047,8.9906,9.0804,9.1624,9.2443,9.2482,9.2482,9.2482,9.2482,9.2482,9.2482,9.2482,9.3341,9.5098,9.5098,9.5957,9.7714,9.7714,9.7714,9.7714,9.7714,9.7714,9.7714,9.7714,9.7792,9.7987,9.869,9.9588,10.0603,10.1188,10.2008,10.2789,10.2789,10.2789,10.2789,10.2802,10.2782,10.271,10.2712,10.2694,10.2591,10.2479,10.2399,10.2311,10.2201,10.2112,10.201,10.1881,10.1793,10.1585,10.1478,10.1366,10.1289,10.1289,10.1289,10.1289,10.1289,10.1289,10.1289,10.1289,10.1289,10.1289,10.1289,10.1289,10.1289,10.1289,10.1289,10.1288,10.1208,10.1208,10.1085,10.0913,10.0831,10.078,10.0612,10.0604,10.0604,10.0604,10.0604,10.0604,10.0604,10.0604,10.0604,10.0604,10.0604,10.0604,10.0604,10.0604,10.0604,0.0,0.0,0.0,0.0,0.0,0.0,0.0,0.0,0.0,0.0,0.0,0.0,0.0,0.0,0.0,8.4636,8.5416,8.6275,8.7251,8.7407,8.7407,8.7407,8.8188,8.9047,8.9906,9.0804,9.1624,9.2443,9.2482,9.2482,9.2482,9.2482,9.2482,9.2482,9.2482,9.3341,9.5098,9.5098,9.5957,9.7714,9.7714,9.7714,9.7714,9.7714,9.7714,9.7714,9.7714,9.8143,9.8846,9.8963,9.9939,10.1383,10.15,10.2008,10.2789,10.2789,10.2789,10.2789,10.2789,10.2811,10.2782,10.271,10.2712,10.2709,10.2591,10.2479,10.242,10.2311,10.219,10.2096,10.201,10.1812,10.1688,10.1585,10.1478,10.1404,10.1289,10.1289,10.1289,10.1289,10.1289,10.1289,10.1289,10.1289,10.1289,10.1289,10.1289,10.1289,10.1289,10.1289,10.1327,10.1288,10.117,10.1206,10.1088,10.0919,10.0787,10.0825,10.0688,10.0604,10.0604,10.0604,10.0604,10.0604,10.0604,10.0604,10.0604,10.0604,10.0604,10.0604,10.0604,10.0604,0.0,0.0,0.0,0.0,0.0,0.0,0.0,0.0,0.0,0.0,0.0,0.0,0.0,8.2957,8.3777,8.4675,8.5534,8.6392,8.729,8.7407,8.7407,8.7407,8.8618,8.9594,8.9945,9.1194,9.2131,9.2482,9.2482,9.2482,9.2482,9.2482,9.2482,9.2482,9.2482,9.3341,9.5098,9.5098,9.5957,9.7714,9.7714,9.7714,9.7714,9.7714,9.7714,9.7714,9.7714,9.8182,9.9041,9.9548,10.0407,10.15,10.2008,10.2515,10.2789,10.2789,10.2789,10.2789,10.2789,10.2811,10.2792,10.2683,10.2686,10.2685,10.2607,10.2594,10.2518,10.2417,10.2303,10.2203,10.2096,10.1873,10.1826,10.1688,10.1588,10.1518,10.1404,10.1404,10.1289,10.1289,10.1289,10.1289,10.1289,10.1289,10.1289,10.1289,10.1289,10.1289,10.1289,10.1289,10.1289,10.1289,10.1288,10.121,10.1167,10.1085,10.0995,10.0787,10.0703,10.0734,10.0604,10.0604,10.0604,10.0604,10.0604,10.0604,10.0604,10.0604,10.0604,10.0604,10.0604,10.0604,0.0,0.0,0.0,0.0,0.0,0.0,0.0,0.0,0.0,0.0,0.0,8.2293,8.2293,8.3152,8.405,8.4675,8.5729,8.6666,8.7329,8.7407,8.7407,8.7407,8.893,8.9984,8.9984,9.1507,9.2482,9.2482,9.2482,9.2482,9.2482,9.2482,9.2482,9.2482,9.2717,9.3576,9.5098,9.5527,9.6425,9.7714,9.7714,9.7714,9.7714,9.7714,9.7714,9.7714,9.7714,9.8338,9.9392,10.0017,10.0915,10.1891,10.2515,10.2789,10.2789,10.2789,10.2789,10.2789,10.2789,10.282,10.2802,10.2694,10.2698,10.2698,10.2585,10.2591,10.2594,10.2498,10.2373,10.2303,10.2177,10.2,10.1889,10.1826,10.1581,10.1478,10.1481,10.1404,10.1289,10.1289,10.1289,10.1289,10.1289,10.1289,10.1289,10.1289,10.1289,10.1289,10.1289,10.1289,10.1289,10.1289,10.1289,10.1288,10.117,10.1208,10.1126,10.0875,10.0793,10.078,10.0688,10.0604,10.0604,10.0604,10.0604,10.0604,10.0604,10.0604,10.0604,10.0604,10.0604,10.0604,0.0,0.0,0.0,0.0,0.0,0.0,0.0,0.0,0.0,0.0,8.2293,8.2293,8.2293,8.3621,8.4753,8.4792,8.6236,8.7368,8.7407,8.7407,8.7407,8.7407,8.893,8.9984,8.9984,9.1507,9.2482,9.2482,9.2482,9.2482,9.2482,9.2482,9.2482,9.2482,9.3302,9.4161,9.5098,9.6738,9.7597,9.7714,9.7714,9.7714,9.7714,9.7714,9.7714,9.7714,9.7714,9.8651,10.0212,10.029,10.1305,10.2711,10.2789,10.2789,10.2789,10.2789,10.2789,10.2789,10.2789,10.2789,10.2781,10.2802,10.2811,10.2698,10.2698,10.2718,10.2594,10.2499,10.2417,10.2303,10.2215,10.2085,10.1981,10.192,10.1826,10.1581,10.1404,10.1289,10.1289,10.1289,10.1289,10.1289,10.1289,10.1289,10.1289,10.1289,10.1289,10.1289,10.1289,10.1289,10.1289,10.1289,10.1289,10.1289,10.1327,10.121,10.1206,10.1206,10.0919,10.0787,10.0825,10.0688,10.0604,10.0604,10.0604,10.0604,10.0604,10.0604,10.0604,10.0604,10.0604,10.0604,0.0,0.0,0.0,0.0,0.0,0.0,0.0,0.0,0.0,8.2293,8.2293,8.2293,8.2293,8.366,8.4792,8.4792,8.6275,8.7407,8.7407,8.7407,8.7407,8.7407,8.893,8.9984,8.9984,9.1507,9.2482,9.2482,9.2482,9.2482,9.2482,9.2482,9.2482,9.2482,9.3341,9.4473,9.5918,9.7128,9.7714,9.7714,9.7714,9.7714,9.7714,9.7714,9.7714,9.7714,9.8299,9.9197,10.029,10.0915,10.1813,10.2789,10.2789,10.2789,10.2789,10.2789,10.2789,10.2789,10.2789,10.2789,10.2789,10.2802,10.2811,10.2698,10.2712,10.2694,10.2607,10.2594,10.2499,10.2417,10.2327,10.219,10.2123,10.1912,10.1787,10.1727,10.1514,10.1404,10.1289,10.1289,10.1289,10.1289,10.1289,10.1289,10.1289,10.1289,10.1289,10.1289,10.1289,10.1289,10.1289,10.1289,10.1289,10.1289,10.1289,10.1288,10.121,10.1167,10.1085,10.1,10.0787,10.078,10.0696,10.0604,10.0604,10.0604,10.0604,10.0604,10.0604,10.0604,10.0604,10.0604,0.0,0.0,0.0,0.0,0.0,0.0,0.0,0.0,8.2293,8.2293,8.2293,8.2293,8.2293,8.3426,8.448,8.4753,8.6002,8.7056,8.7368,8.7407,8.7407,8.7407,8.893,8.9984,8.9984,9.1507,9.2482,9.2482,9.2482,9.2482,9.2482,9.2482,9.2639,9.2912,9.3771,9.4942,9.6386,9.7245,9.7714,9.7714,9.7714,9.7714,9.7714,9.7714,9.7714,9.7753,9.8924,9.9744,10.0407,10.1188,10.2008,10.2789,10.2789,10.2789,10.2789,10.2789,10.2789,10.2789,10.2789,10.2789,10.2789,10.2811,10.2782,10.2722,10.2686,10.2685,10.2601,10.2591,10.2594,10.2499,10.2395,10.2303,10.2177,10.1981,10.178,10.1716,10.1693,10.1516,10.1404,10.1404,10.1289,10.1289,10.1289,10.1289,10.1289,10.1289,10.1289,10.1289,10.1289,10.1289,10.1289,10.1289,10.1289,10.1289,10.1289,10.1289,10.1288,10.121,10.1208,10.1126,10.0919,10.0793,10.078,10.0688,10.0566,10.0604,10.0604,10.0604,10.0604,10.0604,10.0604,10.0604,0.0,0.0,0.0,0.0,0.0,0.0,8.2098,0.0,8.2293,8.2293,8.2293,8.2293,8.2293,8.2957,8.3777,8.4636,8.5534,8.6392,8.729,8.7407,8.7407,8.7407,8.893,8.9984,8.9984,9.1507,9.2482,9.2482,9.2482,9.2482,9.2482,9.2482,9.2912,9.3771,9.4669,9.5527,9.6386,9.7245,9.7714,9.7714,9.7714,9.7714,9.7714,9.7714,9.7714,9.7831,9.9548,10.029,10.0407,10.1188,10.2008,10.2789,10.2789,10.2789,10.2789,10.2789,10.2789,10.2789,10.2789,10.2789,10.2789,10.2789,10.2811,10.2782,10.2683,10.2686,10.2685,10.2607,10.2612,10.2594,10.2399,10.2288,10.2203,10.2029,10.1989,10.1928,10.1716,10.1585,10.1479,10.1479,10.1404,10.1289,10.1289,10.1289,10.1289,10.1289,10.1289,10.1289,10.1289,10.1289,10.1289,10.1289,10.1289,10.1289,10.1289,10.1289,10.1289,10.1289,10.121,10.1167,10.1206,10.0995,10.0787,10.0787,10.0688,10.0604,10.0604,10.0604,10.0604,10.0604,10.0604,10.0604,7.7101,0.0,0.0,0.0,0.0,0.0,0.0,0.0,8.2293,8.2293,8.2293,8.2293,8.2293,8.2489,8.3113,8.4558,8.5534,8.6392,8.729,8.7407,8.7407,8.7407,8.8383,8.932,8.9945,9.0999,9.1858,9.2443,9.2482,9.2482,9.2482,9.2482,9.2912,9.3771,9.4669,9.5527,9.6386,9.7245,9.7714,9.7714,9.7714,9.7714,9.7714,9.7714,9.8026,9.869,9.9822,10.0603,10.1188,10.2086,10.2593,10.2789,10.2789,10.2789,10.2789,10.2789,10.2789,10.2789,10.2789,10.2789,10.2789,10.2789,10.2811,10.2792,10.2782,10.271,10.2698,10.2709,10.2585,10.2594,10.2399,10.2311,10.2318,10.2203,10.2085,10.2,10.1873,10.178,10.1722,10.1624,10.1516,10.1404,10.1404,10.1404,10.1289,10.1289,10.1289,10.1289,10.1289,10.1289,10.1289,10.1289,10.1289,10.1289,10.1289,10.1289,10.1289,10.1289,10.1288,10.1287,10.1167,10.1126,10.1,10.0787,10.078,10.0696,10.0604,10.0604,10.0604,10.0604,10.0604,10.0604,0.0,0.0,0.0,0.0,0.0,0.0,8.2176,8.2293,8.2293,8.2293,8.2293,8.2293,8.2293,8.2293,8.2723,8.405,8.4987,8.6002,8.7212,8.7407,8.7407,8.7407,8.8188,8.9047,8.9906,9.0804,9.1624,9.2443,9.2482,9.2482,9.2482,9.2482,9.2717,9.3224,9.4473,9.5332,9.584,9.7089,9.7714,9.7714,9.7714,9.7714,9.7714,9.7714,9.8182,9.9041,9.9939,10.0798,10.1618,10.2398,10.2789,10.2789,10.2789,10.2789,10.2789,10.2789,10.2789,10.2789,10.2789,10.2789,10.2789,10.2789,10.282,10.2802,10.2792,10.2811,10.2698,10.2712,10.2718,10.2594,10.2499,10.2399,10.2412,10.2303,10.2215,10.2177,10.2096,10.2,10.1912,10.1688,10.1588,10.1514,10.1514,10.1481,10.1404,10.1404,10.1328,10.1289,10.1289,10.1289,10.1289,10.1289,10.1289,10.1289,10.1289,10.1289,10.1289,10.1289,10.1289,10.1288,10.121,10.1208,10.1126,10.1038,10.0869,10.0703,10.0604,10.0604,10.0604,10.0604,10.0604,10.0604,0.0,0.0,0.0,0.0,0.0,0.0,8.2293,8.2293,8.2293,8.2293,8.2293,8.2293,8.2293,8.2293,8.2567,8.3386,8.4245,8.5377,8.7017,8.7329,8.7407,8.7407,8.8071,8.8891,8.975,9.0648,9.1507,9.2326,9.2443,9.2482,9.2482,9.2482,9.2482,9.2482,9.42,9.5098,9.5098,9.6816,9.7714,9.7714,9.7714,9.7714,9.7714,9.7714,9.8221,9.9197,9.9978,10.0798,10.1696,10.2515,10.2789,10.2789,10.2789,10.2789,10.2789,10.2789,10.2789,10.2789,10.2789,10.2789,10.2789,10.2789,10.2789,10.2789,10.2802,10.2792,10.2782,10.2712,10.2679,10.2591,10.2612,10.2615,10.2518,10.2412,10.2311,10.2303,10.2177,10.2112,10.2018,10.1819,10.1688,10.162,10.1585,10.1591,10.1479,10.1518,10.1404,10.1289,10.1289,10.1289,10.1289,10.1289,10.1289,10.1289,10.1289,10.1289,10.1289,10.1289,10.1289,10.1289,10.1289,10.121,10.1208,10.1206,10.0995,10.078,10.0566,10.0604,10.0604,10.0604,10.0604,10.0604,0.0,0.0,0.0,0.0,0.0,0.0,8.2293,8.2293,8.2293,8.2293,8.2293,8.2293,8.2293,8.2293,8.2567,8.3386,8.4245,8.5143,8.6197,8.6978,8.7407,8.7407,8.7564,8.7993,8.8852,8.975,9.0609,9.1467,9.2131,9.2482,9.2482,9.2482,9.2482,9.2482,9.42,9.5098,9.5098,9.6816,9.7714,9.7714,9.7714,9.7714,9.7714,9.7714,9.8572,10.0095,10.0212,10.1188,10.2593,10.2711,10.2789,10.2789,10.2789,10.2789,10.2789,10.2789,10.2789,10.2789,10.2789,10.2789,10.2789,10.2789,10.2789,10.2789,10.2781,10.2811,10.2782,10.2712,10.2685,10.2694,10.2591,10.2612,10.2576,10.2518,10.2498,10.2399,10.2303,10.2279,10.2215,10.2096,10.1912,10.1826,10.1722,10.162,10.1591,10.1479,10.1481,10.1404,10.1289,10.1289,10.1289,10.1289,10.1289,10.1289,10.1289,10.1289,10.1289,10.1289,10.1289,10.1289,10.1289,10.1288,10.1287,10.1206,10.1004,10.0913,10.078,10.0688,10.0604,10.0604,10.0604,10.0604,0.0,0.0,0.0,8.1669,0.0,0.0,0.0,8.2293,8.2293,8.2293,8.2293,8.2293,8.2293,8.2293,8.245,8.284,8.3582,8.448,8.5338,8.6588,8.7407,8.7407,8.7407,8.7759,8.8618,8.9477,9.0531,9.1819,9.2287,9.2482,9.2482,9.2482,9.2482,9.2482,9.42,9.5098,9.5098,9.6816,9.7714,9.7714,9.7714,9.7714,9.7714,9.7714,9.8651,10.029,10.029,10.1305,10.2789,10.2789,10.2789,10.2789,10.2789,10.2789,10.2789,10.2789,10.2789,10.2789,10.2789,10.2789,10.2789,10.2789,10.2789,10.2789,10.2789,10.2811,10.2782,10.28,10.2686,10.2685,10.2694,10.2585,10.2591,10.2594,10.2498,10.2518,10.2399,10.2417,10.2412,10.2215,10.21,10.199,10.1881,10.1787,10.1688,10.1585,10.1514,10.1481,10.1404,10.1328,10.1289,10.1289,10.1289,10.1289,10.1289,10.1289,10.1289,10.1289,10.1289,10.1289,10.1289,10.1289,10.1326,10.1206,10.1088,10.1004,10.0913,10.0831,10.0703,10.0604,10.0604,10.0604,0.0,0.0,0.0,0.0,0.0,8.2293,0.0,0.0,0.0,8.2293,8.2293,8.2293,8.2293,8.2293,8.2293,8.2293,8.2996,8.3816,8.4675,8.6158,8.7212,8.7368,8.7407,8.7681,8.8383,8.9398,9.0648,9.2131,9.2404,9.2482,9.2482,9.2482,9.2482,9.2482,9.42,9.5098,9.5098,9.6816,9.7714,9.7714,9.7714,9.7714,9.7714,9.7714,9.8651,10.029,10.029,10.1305,10.2789,10.2789,10.2789,10.2789,10.2789,10.2789,10.2789,10.2789,10.2789,10.2789,10.2789,10.2789,10.2789,10.2789,10.2789,10.2789,10.2789,10.2811,10.2802,10.2792,10.28,10.2712,10.2712,10.2685,10.2616,10.2607,10.2591,10.2591,10.2479,10.2518,10.2479,10.2412,10.2311,10.2279,10.2107,10.2019,10.1889,10.1793,10.162,10.1516,10.1479,10.1404,10.1289,10.1289,10.1289,10.1289,10.1289,10.1289,10.1289,10.1289,10.1289,10.1289,10.1289,10.1289,10.1288,10.1208,10.1208,10.1206,10.1004,10.1004,10.0913,10.0612,10.0612,10.0566,0.0,0.0,0.0,0.0,8.2293,0.0,0.0,0.0,8.2293,8.2293,0.0,0.0,0.0,0.0,0.0,8.2293,8.2996,8.3816,8.4675,8.5651,8.6549,8.7329,8.7407,8.7446,8.7525,8.9047,9.0413,9.135,9.2092,9.2482,9.2482,9.2482,9.2482,9.2482,9.42,9.5098,9.5098,9.6816,9.7714,9.7714,9.7714,9.7714,9.7714,9.7714,9.8651,10.029,10.029,10.1305,10.2789,10.2789,10.2789,10.2789,10.2789,10.2789,10.2789,10.2789,10.2789,10.2789,10.2789,10.2789,10.2789,10.2789,10.2789,10.2789,10.2789,10.2789,10.2781,10.2802,10.2792,10.2811,10.271,10.2698,10.2686,10.2698,10.2685,10.2709,10.2591,10.2594,10.2594,10.2499,10.2399,10.2311,10.2112,10.2,10.2019,10.1889,10.1793,10.1581,10.1516,10.1518,10.1366,10.1289,10.1289,10.1289,10.1289,10.1289,10.1289,10.1289,10.1289,10.1289,10.1289,10.1289,10.1327,10.1288,10.1288,10.1287,10.1206,10.1206,10.1004,10.0825,10.0825,10.0696,0.0,0.0,0.0,0.0,0.0,0.0,0.0,0.0,8.2293,0.0,0.0,0.0,0.0,0.0,0.0,0.0,8.2567,8.3074,8.3933,8.4792,8.5846,8.7251,8.7407,8.7603,8.811,8.9281,9.0374,9.1233,9.2053,9.2482,9.2482,9.2482,9.2482,9.2482,9.3693,9.4591,9.5098,9.6347,9.7206,9.7714,9.7714,9.7714,9.7714,9.7714,9.8651,10.029,10.029,10.1305,10.2789,10.2789,10.2789,10.2789,10.2789,10.2789,10.2789,10.2789,10.2789,10.2789,10.2789,10.2789,10.2789,10.2789,10.2789,10.2789,10.2789,10.2789,10.2789,10.282,10.2802,10.2792,10.2821,10.2683,10.271,10.2698,10.2686,10.2712,10.2694,10.2694,10.2585,10.2594,10.2479,10.2518,10.2412,10.2215,10.2096,10.1981,10.1889,10.1793,10.1581,10.1514,10.1481,10.1404,10.1328,10.1289,10.1289,10.1289,10.1289,10.1289,10.1289,10.1289,10.1289,10.1289,10.1289,10.1289,10.1289,10.1288,10.1287,10.1287,10.1167,10.1004,10.0913,10.078,8.2293,0.0,0.0,0.0,0.0,0.0,0.0,0.0,0.0,0.0,0.0,0.0,0.0,0.0,0.0,0.0,0.0,8.2567,8.3386,8.4245,8.5377,8.6861,8.7251,8.7642,8.8266,8.9125,9.0023,9.0882,9.1702,9.2287,9.2482,9.2482,9.2482,9.2482,9.3341,9.4239,9.5098,9.5957,9.6855,9.7714,9.7714,9.7714,9.7714,9.7714,9.8651,10.029,10.029,10.1305,10.2789,10.2789,10.2789,10.2789,10.2789,10.2789,10.2789,10.2789,10.2789,10.2789,10.2789,10.2789,10.2789,10.2789,10.2789,10.2789,10.2789,10.2789,10.2789,10.2789,10.282,10.2802,10.2802,10.2792,10.2694,10.2683,10.2683,10.271,10.2686,10.2698,10.2685,10.2585,10.2591,10.2594,10.2479,10.2373,10.219,10.2085,10.201,10.1889,10.1793,10.1581,10.1514,10.1479,10.1404,10.1328,10.1289,10.1289,10.1289,10.1289,10.1289,10.1289,10.1289,10.1289,10.1289,10.1289,10.1289,10.1289,10.1289,10.1289,10.1288,10.1208,10.0962,10.0913,0.0,0.0,0.0,8.2293,0.0,0.0,0.0,0.0,8.2293,0.0,0.0,0.0,0.0,0.0,0.0,0.0,0.0,0.0,0.0,8.4245,8.5143,8.6041,8.69,8.7407,8.7446,8.8227,8.9086,8.9984,9.0843,9.1663,9.2443,9.2482,9.2482,9.2482,9.3341,9.4239,9.5098,9.5957,9.6855,9.7714,9.7714,9.7714,9.7714,9.7714,9.8651,10.029,10.029,10.1305,10.2789,10.2789,10.2789,10.2789,10.2789,10.2789,10.2789,10.2789,10.2789,10.2789,10.2789,10.2789,10.2789,10.2789,10.2789,10.2789,10.2789,10.2789,10.2789,10.2789,10.2789,10.2789,10.2789,10.2789,10.2781,10.2792,10.2792,10.2782,10.271,10.2686,10.2698,10.2698,10.2585,10.2612,10.2612,10.2399,10.2327,10.2303,10.2112,10.1981,10.1889,10.1826,10.1616,10.1479,10.1518,10.1404,10.1289,10.1289,10.1289,10.1289,10.1289,10.1289,10.1289,10.1289,10.1289,10.1289,10.1289,10.1289,10.1289,10.1289,10.1289,10.1327,10.1208,10.1126,0.0,0.0,8.2293,8.2293,0.0,0.0,0.0,0.0,0.0,0.0,0.0,0.0,0.0,0.0,0.0,0.0,0.0,8.2567,0.0,8.4753,8.5963,8.6861,0.0,0.0,8.7407,8.8188,8.9047,8.9945,9.0804,9.1663,9.2443,9.2482,9.2482,9.2482,9.2795,9.3654,9.5098,9.5371,9.6269,9.7714,9.7714,9.7714,9.7714,9.7714,9.8651,10.029,10.029,10.1305,10.2789,10.2789,10.2789,10.2789,10.2789,10.2789,10.2789,10.2789,10.2789,10.2789,10.2789,10.2789,10.2789,10.2789,10.2789,10.2789,10.2789,10.2789,10.2789,10.2789,10.2789,10.2789,10.2789,10.2789,10.2789,10.282,10.282,10.2811,10.2782,10.2811,10.28,10.2698,10.2698,10.2694,10.2694,10.2612,10.2498,10.2311,10.2201,10.21,10.201,10.1889,10.1793,10.1616,10.1591,10.1518,10.1404,10.1404,10.1289,10.1289,10.1289,10.1289,10.1289,10.1289,10.1289,10.1289,10.1289,10.1289,10.1289,10.1289,10.1289,10.1289,10.1288,10.1208,8.3191,8.3191,0.0,8.3191,8.3191,0.0,8.3191,0.0,0.0,0.0,0.0,0.0,0.0,0.0,0.0,8.3191,8.3191,8.3465,0.0,8.5377,8.6431,0.0,0.0,0.0,0.0,8.7915,8.8735,8.9906,9.0531,9.1311,9.2443,9.2482,9.2482,9.2482,9.2482,9.3341,9.5098,9.5098,9.5957,9.7714,9.7714,9.7714,9.7714,9.7714,9.8651,10.029,10.029,10.1305,10.2789,10.2789,10.2789,10.2789,10.2789,10.2789,10.2789,10.2789,10.2789,10.2789,10.2789,10.2789,10.2789,10.2789,10.2789,10.2789,10.2789,10.2789,10.2789,10.2789,10.2789,10.2789,10.2789,10.2789,10.2789,10.2789,10.2789,10.2781,10.2811,10.2802,10.2782,10.2694,10.2698,10.2712,10.2698,10.2694,10.2612,10.2399,10.2295,10.2318,10.2112,10.201,10.1889,10.1826,10.1697,10.1591,10.1479,10.1366,10.1289,10.1289,10.1289,10.1289,10.1289,10.1289,10.1289,10.1289,10.1289,10.1289,10.1289,10.1289,10.1289,10.1289,10.1289,10.1288]},{"header":{"parameterUnit":"m.s-1","parameterCategory":1,"la1":30.6,"la2":29.2853,"lo1":-89.7004,"lo2":-87.6739,"dx":0.0162,"dy":0.0183,"nx":112,"ny":82,"refTime":"2023-01-29T18:00:00:Z","depth":0,"parameterNumber":3,"parameterNumberName":"V-component_of_WINDS"},"data":[0.0,0.0,0.0,0.0,0.0,0.0,0.0,0.0,0.0,0.0,0.0,0.0,0.0,0.0,0.0,0.0,0.0,0.0,0.0,0.0,0.0,0.0,0.0,0.0,0.0,0.0,0.0,0.0,0.0,0.0,0.0,0.0,0.0,0.0,0.0,0.0,0.0,0.0,0.0,0.0,0.0,0.0,0.0,0.0,0.0,0.0,0.0,0.0,0.0,0.0,0.0,0.0,0.0,0.0,0.0,0.0,0.0,0.0,0.0,0.0,0.0,0.0,0.0,0.0,0.0,0.0,0.0,0.0,0.0,0.0,0.0,0.0,0.0,0.0,0.0,0.0,0.0,0.0,0.0,0.0,0.0,0.0,0.0,0.0,0.0,0.0,0.0,0.0,0.0,0.0,0.0,-1.312,-1.3898,-1.4361,-1.4515,-1.4814,-1.4968,-1.4968,0.0,0.0,0.0,0.0,0.0,0.0,0.0,0.0,0.0,0.0,0.0,0.0,0.0,0.0,0.0,0.0,0.0,0.0,0.0,0.0,0.0,0.0,0.0,0.0,0.0,0.0,0.0,0.0,0.0,0.0,0.0,0.0,0.0,0.0,0.0,0.0,0.0,0.0,0.0,0.0,0.0,0.0,0.0,0.0,0.0,0.0,0.0,0.0,0.0,0.0,0.0,0.0,0.0,0.0,0.0,0.0,0.0,0.0,0.0,0.0,0.0,0.0,0.0,0.0,0.0,0.0,0.0,0.0,0.0,0.0,0.0,0.0,0.0,0.0,0.0,0.0,0.0,0.0,0.0,0.0,0.0,0.0,0.0,0.0,0.0,0.0,0.0,0.0,0.0,0.0,0.0,0.0,0.0,0.0,0.0,0.0,0.0,0.0,0.0,0.0,0.0,0.0,0.0,0.0,-1.2811,-1.359,-1.4053,-1.4515,-1.4814,-1.4968,-1.4968,-1.4968,0.0,0.0,0.0,0.0,0.0,0.0,0.0,0.0,0.0,0.0,0.0,0.0,0.0,0.0,0.0,0.0,0.0,0.0,0.0,0.0,0.0,0.0,0.0,0.0,0.0,0.0,0.0,0.0,0.0,0.0,0.0,0.0,0.0,0.0,0.0,0.0,0.0,0.0,0.0,0.0,0.0,0.0,0.0,0.0,0.0,0.0,0.0,0.0,0.0,0.0,0.0,0.0,0.0,0.0,0.0,0.0,0.0,0.0,0.0,0.0,0.0,0.0,0.0,0.0,0.0,0.0,0.0,0.0,0.0,0.0,0.0,0.0,0.0,0.0,0.0,0.0,0.0,0.0,0.0,0.0,0.0,0.0,0.0,0.0,0.0,0.0,0.0,0.0,0.0,0.0,0.0,0.0,0.0,0.0,0.0,0.0,0.0,0.0,0.0,0.0,0.0,0.0,0.0,-1.2965,-1.3428,-1.3898,-1.4353,-1.4814,-1.4968,-1.4968,-1.4968,-1.4968,-1.4968,0.0,0.0,0.0,0.0,0.0,0.0,0.0,0.0,0.0,0.0,0.0,0.0,0.0,0.0,0.0,0.0,0.0,0.0,0.0,0.0,0.0,0.0,0.0,0.0,0.0,0.0,0.0,0.0,0.0,0.0,0.0,0.0,0.0,0.0,0.0,0.0,0.0,0.0,0.0,0.0,0.0,0.0,0.0,0.0,0.0,0.0,0.0,0.0,0.0,0.0,0.0,0.0,0.0,0.0,0.0,0.0,0.0,0.0,0.0,0.0,0.0,0.0,0.0,0.0,0.0,0.0,0.0,0.0,0.0,0.0,0.0,0.0,0.0,0.0,0.0,0.0,0.0,0.0,0.0,0.0,0.0,0.0,0.0,0.0,0.0,0.0,0.0,0.0,0.0,0.0,0.0,0.0,0.0,0.0,0.0,0.0,0.0,0.0,0.0,0.0,0.0,0.0,-1.3428,-1.3737,-1.4045,-1.4661,-1.4968,-1.4968,-1.4968,-1.4968,-1.4968,-1.4968,0.0,0.0,0.0,0.0,0.0,0.0,0.0,0.0,0.0,0.0,0.0,0.0,0.0,0.0,0.0,0.0,0.0,0.0,0.0,0.0,0.0,0.0,0.0,0.0,0.0,0.0,0.0,0.0,0.0,0.0,0.0,0.0,0.0,0.0,0.0,0.0,0.0,0.0,0.0,0.0,0.0,0.0,0.0,0.0,0.0,0.0,0.0,0.0,0.0,0.0,0.0,0.0,0.0,0.0,0.0,0.0,0.0,0.0,0.0,0.0,0.0,0.0,0.0,0.0,0.0,0.0,0.0,0.0,0.0,0.0,0.0,0.0,0.0,0.0,0.0,0.0,0.0,0.0,0.0,0.0,0.0,0.0,0.0,0.0,0.0,0.0,0.0,0.0,0.0,0.0,0.0,0.0,0.0,0.0,0.0,0.0,0.0,0.0,0.0,0.0,0.0,0.0,-1.3267,-1.3737,-1.3722,-1.4499,-1.4968,-1.4968,-1.4968,-1.4968,-1.4968,-1.4968,0.0,0.0,0.0,0.0,0.0,0.0,0.0,0.0,0.0,0.0,0.0,0.0,0.0,0.0,0.0,0.0,0.0,0.0,0.0,0.0,0.0,0.0,0.0,0.0,0.0,0.0,0.0,0.0,0.0,0.0,0.0,0.0,0.0,0.0,0.0,0.0,0.0,0.0,0.0,0.0,0.0,0.0,0.0,0.0,0.0,0.0,0.0,0.0,0.0,0.0,0.0,0.0,0.0,0.0,0.0,0.0,0.0,0.0,0.0,0.0,0.0,0.0,0.0,0.0,0.0,0.0,0.0,0.0,0.0,0.0,0.0,0.0,0.0,0.0,0.0,0.0,0.0,0.0,0.0,0.0,0.0,0.0,0.0,0.0,0.0,0.0,0.0,0.0,0.0,0.0,0.0,0.0,0.0,0.0,0.0,0.0,0.0,0.0,0.0,0.0,0.0,0.0,-1.3259,-1.3883,0.0,-1.4806,-1.4968,-1.4968,-1.4968,-1.4968,-1.4968,0.0,0.0,0.0,0.0,0.0,0.0,0.0,0.0,0.0,0.0,0.0,0.0,0.0,0.0,0.0,0.0,0.0,0.0,0.0,0.0,0.0,0.0,0.0,0.0,0.0,0.0,0.0,0.0,0.0,0.0,0.0,0.0,0.0,0.0,0.0,0.0,0.0,0.0,0.0,0.0,0.0,0.0,0.0,0.0,0.0,0.0,0.0,0.0,0.0,0.0,0.0,0.0,0.0,0.0,0.0,0.0,0.0,0.0,0.0,0.0,0.0,0.0,0.0,0.0,0.0,0.0,0.0,0.0,0.0,0.0,0.0,0.0,0.0,0.0,0.0,0.0,0.0,0.0,0.0,0.0,0.0,0.0,0.0,0.0,0.0,0.0,0.0,0.0,0.0,0.0,0.0,0.0,0.0,0.0,0.0,0.0,0.0,0.0,0.0,0.0,0.0,0.0,-1.3267,-1.3729,-1.4353,0.0,-1.4968,-1.4968,-1.4968,-1.4968,-1.4968,-1.4968,0.0,0.0,0.0,0.0,0.0,0.0,0.0,0.0,0.0,0.0,0.0,0.0,0.0,0.0,0.0,0.0,0.0,0.0,0.0,0.0,0.0,0.0,0.0,0.0,0.0,0.0,0.0,0.0,0.0,0.0,0.0,0.0,0.0,0.0,0.0,0.0,0.0,0.0,0.0,0.0,0.0,0.0,0.0,0.0,0.0,0.0,0.0,0.0,0.0,0.0,0.0,0.0,0.0,0.0,0.0,0.0,0.0,0.0,0.0,0.0,0.0,0.0,0.0,0.0,0.0,0.0,0.0,0.0,0.0,0.0,0.0,0.0,0.0,0.0,0.0,0.0,0.0,0.0,0.0,0.0,0.0,0.0,0.0,0.0,0.0,0.0,0.0,0.0,0.0,0.0,0.0,0.0,0.0,0.0,0.0,0.0,0.0,0.0,0.0,0.0,0.0,0.0,-1.4708,-1.5017,-1.4992,-1.4968,-1.4968,-1.4968,-1.4968,-1.4968,-1.4968,0.0,0.0,0.0,0.0,0.0,0.0,0.0,0.0,0.0,0.0,0.0,0.0,0.0,0.0,0.0,0.0,0.0,0.0,0.0,0.0,0.0,0.0,0.0,0.0,0.0,0.0,0.0,0.0,0.0,0.0,0.0,0.0,0.0,0.0,0.0,0.0,0.0,0.0,0.0,0.0,0.0,0.0,0.0,0.0,0.0,0.0,0.0,0.0,0.0,0.0,0.0,0.0,0.0,0.0,0.0,0.0,0.0,0.0,0.0,0.0,0.0,0.0,0.0,0.0,0.0,0.0,0.0,0.0,0.0,0.0,0.0,0.0,0.0,0.0,0.0,0.0,0.0,0.0,0.0,0.0,0.0,0.0,0.0,0.0,0.0,0.0,0.0,0.0,0.0,0.0,0.0,0.0,0.0,0.0,0.0,0.0,0.0,0.0,0.0,0.0,0.0,0.0,0.0,-1.4855,-1.4992,-1.5025,-1.4983,-1.4999,-1.5047,-1.5011,-1.5072,-1.4999,-1.4999,0.0,0.0,0.0,0.0,0.0,0.0,0.0,0.0,0.0,0.0,0.0,0.0,0.0,0.0,0.0,0.0,0.0,0.0,0.0,0.0,0.0,0.0,0.0,0.0,0.0,0.0,0.0,0.0,0.0,0.0,0.0,0.0,0.0,0.0,0.0,0.0,0.0,0.0,0.0,0.0,0.0,0.0,0.0,0.0,0.0,0.0,0.0,0.0,0.0,0.0,0.0,0.0,0.0,0.0,0.0,0.0,0.0,0.0,0.0,0.0,0.0,0.0,0.0,0.0,0.0,0.0,0.0,0.0,0.0,0.0,0.0,0.0,0.0,0.0,0.0,0.0,0.0,0.0,0.0,0.0,0.0,0.0,0.0,0.0,0.0,0.0,0.0,0.0,0.0,0.0,0.0,0.0,0.0,0.0,0.0,0.0,0.0,0.0,0.0,0.0,0.0,0.0,-1.4943,-1.4991,-1.5063,-1.5011,-1.5192,-1.5398,-1.5345,-1.5415,-1.535,-1.5019,0.0,0.0,0.0,0.0,0.0,0.0,0.0,0.0,0.0,0.0,0.0,0.0,0.0,0.0,0.0,0.0,0.0,0.0,0.0,0.0,0.0,0.0,0.0,0.0,0.0,0.0,0.0,0.0,0.0,0.0,0.0,0.0,0.0,0.0,0.0,0.0,0.0,0.0,0.0,0.0,0.0,0.0,0.0,0.0,0.0,0.0,0.0,0.0,0.0,0.0,0.0,0.0,0.0,0.0,0.0,0.0,0.0,0.0,0.0,0.0,0.0,0.0,0.0,0.0,0.0,0.0,0.0,0.0,0.0,0.0,0.0,0.0,0.0,0.0,0.0,0.0,0.0,0.0,0.0,0.0,0.0,0.0,0.0,0.0,0.0,0.0,0.0,0.0,0.0,0.0,0.0,0.0,0.0,0.0,0.0,0.0,0.0,0.0,0.0,0.0,0.0,0.0,-1.512,-1.509,-1.5026,-1.5042,-1.5704,-1.6048,-1.6065,-1.6048,-1.5704,-1.5202,0.0,0.0,0.0,0.0,0.0,0.0,0.0,0.0,0.0,0.0,0.0,0.0,0.0,0.0,0.0,0.0,0.0,0.0,0.0,0.0,0.0,0.0,0.0,0.0,0.0,0.0,0.0,0.0,0.0,0.0,0.0,0.0,0.0,0.0,0.0,0.0,0.0,0.0,0.0,0.0,0.0,0.0,0.0,0.0,0.0,0.0,0.0,0.0,0.0,0.0,0.0,0.0,0.0,0.0,0.0,0.0,0.0,0.0,0.0,0.0,-1.2406,0.0,0.0,0.0,0.0,0.0,0.0,0.0,0.0,0.0,0.0,0.0,0.0,0.0,0.0,0.0,0.0,0.0,0.0,0.0,0.0,0.0,0.0,0.0,0.0,0.0,0.0,0.0,0.0,0.0,0.0,0.0,0.0,0.0,0.0,0.0,0.0,0.0,0.0,0.0,0.0,0.0,-1.5789,-1.5822,-1.5737,-1.5868,-1.5885,-1.595,-1.5926,-1.5975,-1.5885,-1.5723,-1.5762,0.0,0.0,0.0,0.0,0.0,0.0,0.0,0.0,0.0,0.0,0.0,0.0,0.0,0.0,0.0,0.0,0.0,0.0,0.0,0.0,0.0,0.0,0.0,0.0,0.0,0.0,0.0,0.0,0.0,0.0,0.0,0.0,0.0,0.0,0.0,0.0,0.0,0.0,0.0,0.0,0.0,0.0,0.0,0.0,0.0,0.0,0.0,0.0,0.0,0.0,0.0,0.0,0.0,0.0,0.0,0.0,0.0,0.0,0.0,0.0,-1.2501,0.0,0.0,0.0,0.0,0.0,0.0,0.0,0.0,0.0,0.0,0.0,0.0,0.0,0.0,0.0,0.0,0.0,0.0,0.0,0.0,0.0,0.0,0.0,0.0,0.0,0.0,0.0,0.0,0.0,0.0,0.0,0.0,0.0,0.0,0.0,0.0,0.0,0.0,0.0,0.0,-1.5971,-1.6054,-1.5975,-1.6065,-1.6073,-1.5943,-1.604,-1.5959,-1.6073,-1.6073,-1.5991,0.0,0.0,0.0,0.0,0.0,0.0,0.0,0.0,0.0,0.0,0.0,0.0,0.0,0.0,0.0,0.0,0.0,0.0,0.0,0.0,0.0,0.0,0.0,0.0,0.0,0.0,0.0,0.0,0.0,0.0,0.0,0.0,0.0,0.0,0.0,0.0,0.0,0.0,0.0,0.0,0.0,0.0,0.0,0.0,0.0,0.0,0.0,0.0,0.0,0.0,0.0,0.0,0.0,-1.2501,-1.2501,-1.2501,-1.2501,-1.2501,-1.2501,-1.2501,-1.2501,-1.2501,-1.2501,0.0,0.0,0.0,0.0,0.0,0.0,0.0,0.0,0.0,0.0,0.0,0.0,0.0,0.0,0.0,0.0,0.0,0.0,0.0,0.0,0.0,0.0,0.0,0.0,-1.2514,-1.2574,-1.261,0.0,0.0,0.0,0.0,0.0,0.0,0.0,0.0,0.0,0.0,0.0,-1.5991,-1.5951,-1.6048,-1.6048,-1.6048,-1.6048,-1.6048,-1.6048,-1.6048,-1.6048,-1.6048,-1.5983,0.0,0.0,0.0,0.0,0.0,0.0,0.0,0.0,0.0,0.0,0.0,0.0,0.0,0.0,0.0,0.0,0.0,0.0,0.0,0.0,0.0,0.0,0.0,0.0,0.0,0.0,0.0,0.0,0.0,0.0,0.0,0.0,-1.1619,-1.1619,0.0,0.0,0.0,0.0,0.0,0.0,0.0,0.0,0.0,0.0,0.0,0.0,0.0,-1.2474,-1.2474,-1.2494,-1.2501,-1.2501,-1.2501,-1.2501,-1.2501,-1.2501,-1.2501,-1.2501,-1.2501,0.0,-1.2501,-1.2501,0.0,0.0,0.0,0.0,0.0,0.0,0.0,0.0,0.0,0.0,0.0,0.0,0.0,0.0,0.0,0.0,0.0,0.0,0.0,0.0,0.0,0.0,-1.2568,-1.2536,-1.2422,-1.2595,0.0,-1.2901,-1.2569,-1.2569,-1.2901,0.0,0.0,0.0,0.0,0.0,0.0,0.0,-1.6008,-1.6032,-1.6048,-1.6048,-1.6048,-1.6048,-1.6048,-1.6048,-1.6048,-1.6048,-1.6048,-1.6032,-1.6008,-1.6008,0.0,0.0,0.0,0.0,0.0,0.0,0.0,0.0,0.0,0.0,0.0,0.0,0.0,0.0,0.0,0.0,0.0,0.0,0.0,0.0,0.0,0.0,0.0,0.0,0.0,0.0,0.0,0.0,0.0,-1.1619,-1.1619,-1.1619,-1.1619,-1.1653,0.0,0.0,0.0,0.0,0.0,0.0,0.0,0.0,0.0,-1.2406,-1.2467,-1.2501,-1.2501,-1.2501,-1.2501,-1.2501,-1.2501,-1.2501,-1.2501,-1.2501,-1.2501,-1.2501,-1.2501,-1.2501,-1.2501,-1.2501,-1.2501,-1.2501,0.0,0.0,0.0,0.0,-1.2501,-1.2501,-1.2501,-1.2501,-1.2501,-1.2501,0.0,0.0,0.0,0.0,0.0,0.0,0.0,0.0,0.0,0.0,-1.304,-1.2949,-1.3024,-1.3078,-1.3401,-1.3139,-1.3003,0.0,-1.404,-1.5077,-1.5918,0.0,0.0,0.0,0.0,-1.6048,-1.6048,-1.6048,-1.6081,-1.6012,-1.602,-1.606,-1.5989,-1.6076,-1.602,-1.602,-1.5932,-1.6048,-1.6048,-1.6048,-1.6048,0.0,0.0,0.0,0.0,0.0,0.0,0.0,0.0,0.0,0.0,0.0,0.0,0.0,0.0,0.0,0.0,0.0,0.0,0.0,0.0,0.0,0.0,0.0,0.0,0.0,0.0,0.0,0.0,-1.1619,-1.1633,-1.1667,-1.1674,-1.1728,0.0,0.0,0.0,0.0,0.0,0.0,-1.2345,-1.244,-1.2501,-1.2501,-1.2501,-1.2501,-1.2501,-1.2501,-1.2501,-1.2501,-1.2501,-1.2501,-1.2501,-1.2501,-1.2501,-1.2501,-1.2501,-1.2501,-1.2501,-1.2501,-1.2501,-1.2501,-1.2501,-1.2501,-1.2501,-1.2501,-1.2501,-1.2508,-1.2549,-1.2556,-1.2562,-1.2447,-1.246,-1.246,-1.246,0.0,0.0,0.0,0.0,-1.2802,-1.2675,-1.3017,-1.336,-1.3394,-1.3322,-1.3391,-1.3384,-1.3802,-1.4016,0.0,-1.5039,-1.6073,-1.604,0.0,0.0,0.0,0.0,-1.5956,-1.6004,-1.6012,-1.606,-1.6013,-1.6197,-1.6253,-1.6212,-1.6277,-1.6197,-1.6021,-1.6076,-1.6012,-1.6012,-1.5964,-1.594,-1.594,0.0,0.0,0.0,0.0,0.0,0.0,0.0,0.0,0.0,0.0,0.0,0.0,0.0,0.0,0.0,0.0,0.0,0.0,0.0,0.0,0.0,0.0,0.0,0.0,0.0,0.0,0.0,0.0,0.0,-1.1803,-1.1823,0.0,0.0,0.0,0.0,-1.2277,-1.2413,-1.2488,-1.2488,-1.2501,-1.2501,-1.2501,-1.2501,-1.2501,-1.2501,-1.2501,-1.2501,-1.2501,-1.2501,-1.2501,-1.2501,-1.2501,-1.2501,-1.2501,-1.2501,-1.2501,-1.2501,-1.2501,-1.2501,-1.2501,-1.2501,-1.2501,-1.2501,-1.2501,-1.2501,-1.2522,-1.2507,-1.2554,-1.2581,-1.2562,-1.2442,-1.2442,-1.2442,-1.2942,0.0,0.0,-1.329,-1.3325,-1.3295,-1.3329,-1.337,-1.3349,-1.3376,-1.3376,-1.3376,-1.4721,-1.5899,0.0,-1.5883,-1.6048,-1.6048,0.0,-1.5932,-1.5917,-1.5941,-1.6005,-1.6002,-1.6018,-1.6026,-1.6034,-1.6568,-1.7103,-1.7111,-1.7103,-1.6746,-1.6034,-1.6026,-1.6018,-1.6018,-1.6029,-1.5941,-1.5941,-1.5956,0.0,0.0,0.0,0.0,0.0,0.0,0.0,0.0,0.0,0.0,0.0,0.0,0.0,0.0,0.0,0.0,0.0,0.0,0.0,0.0,0.0,0.0,0.0,0.0,0.0,0.0,0.0,0.0,-1.1823,-1.1918,0.0,-1.2196,-1.2257,-1.2325,-1.242,-1.2474,-1.2501,-1.2501,-1.2501,-1.2501,-1.2501,-1.2501,-1.2501,-1.2501,-1.2501,-1.2501,-1.2501,-1.2501,-1.2501,-1.2508,-1.2447,-1.2487,-1.2494,-1.243,-1.247,-1.247,-1.247,-1.2574,-1.2494,-1.2437,-1.247,-1.247,-1.247,-1.247,-1.2476,-1.2529,-1.2715,-1.3054,-1.3109,-1.3123,-1.3143,-1.3071,-1.326,-1.345,-1.3384,-1.3411,-1.3425,-1.3473,-1.3322,-1.3336,-1.3376,-1.339,-1.3749,-1.4862,-1.556,-1.5933,-1.6029,-1.5957,-1.6044,-1.6036,-1.5965,-1.6061,-1.5947,-1.6479,-1.6681,-1.6746,-1.6754,-1.6625,-1.6747,-1.6935,-1.7157,-1.7091,-1.7173,-1.6943,-1.6755,-1.6649,-1.6754,-1.6754,-1.6697,-1.6479,-1.5955,-1.6069,-1.5981,0.0,0.0,0.0,0.0,0.0,0.0,0.0,0.0,0.0,0.0,0.0,0.0,0.0,0.0,0.0,0.0,0.0,0.0,0.0,0.0,0.0,0.0,0.0,0.0,0.0,0.0,-1.187,-1.1972,-1.2074,-1.2196,-1.2345,-1.2359,-1.24,-1.2494,-1.2501,-1.2501,-1.2501,-1.2501,-1.2501,-1.2501,-1.2501,-1.2501,-1.2501,-1.2549,-1.2576,-1.2576,-1.2474,-1.2494,-1.2501,-1.2437,-1.2641,-1.2813,-1.2755,-1.2795,-1.2795,-1.2842,-1.2802,-1.2722,-1.2775,-1.2795,-1.2795,-1.2795,-1.2795,-1.2802,-1.2849,-1.3064,-1.3443,-1.3443,-1.3443,-1.3457,-1.3391,-1.3418,-1.3439,-1.3376,-1.3403,-1.3403,-1.3403,-1.3437,-1.3471,-1.3458,-1.3832,-1.4587,-1.5716,-1.6253,-1.6454,-1.6382,-1.6124,-1.6045,-1.6397,-1.6325,-1.6422,-1.6307,-1.6853,-1.7057,-1.7107,-1.7115,-1.7165,-1.7107,-1.7124,-1.7165,-1.7104,-1.7189,-1.7124,-1.7124,-1.7181,-1.7115,-1.7115,-1.7065,-1.6853,-1.6315,-1.643,-1.6172,-1.6045,0.0,0.0,0.0,0.0,0.0,0.0,0.0,0.0,0.0,0.0,0.0,0.0,0.0,0.0,0.0,0.0,0.0,0.0,0.0,0.0,0.0,0.0,0.0,-1.183,-1.1837,-1.1959,-1.2257,-1.2291,-1.2352,-1.2488,-1.2501,-1.2501,-1.2501,-1.2501,-1.2501,-1.2501,-1.2501,-1.2501,-1.2508,-1.2508,-1.2508,-1.2515,-1.2501,-1.2574,-1.2574,-1.2562,-1.2468,-1.2468,-1.2475,-1.2802,-1.3465,-1.3465,-1.3472,-1.3479,-1.3457,-1.3349,-1.3336,-1.336,-1.3472,-1.3472,-1.3472,-1.3472,-1.3325,-1.3464,-1.3446,-1.3403,-1.3403,-1.3403,-1.3403,-1.3403,-1.3403,-1.3403,-1.3403,-1.341,-1.341,-1.341,-1.3351,-1.3452,-1.3432,-1.4754,-1.6097,-1.6081,-1.66,-1.712,-1.7128,-1.6592,-1.6236,-1.6949,-1.7128,-1.7016,-1.7017,-1.705,0.0,-1.7088,-1.7112,-1.7112,-1.7112,-1.7112,-1.7112,-1.7112,-1.7112,-1.7112,-1.7112,-1.7112,-1.7112,-1.7112,-1.7132,-1.705,-1.705,-1.704,-1.6763,-1.6057,0.0,0.0,0.0,0.0,0.0,0.0,0.0,0.0,0.0,0.0,0.0,0.0,0.0,0.0,0.0,0.0,0.0,0.0,0.0,0.0,0.0,0.0,-1.183,-1.183,-1.2026,-1.2196,-1.2277,-1.2379,-1.2461,-1.2501,-1.2501,-1.2501,-1.2501,-1.2501,-1.2501,-1.2501,-1.2501,-1.2549,-1.2501,-1.2507,-1.2561,-1.2503,-1.2549,-1.2728,-1.3228,-1.3109,-1.3123,-1.313,-1.3233,-1.3281,-1.3457,-1.3398,-1.3446,-1.3453,-1.3322,-1.3342,-1.3336,-1.3459,-1.3446,-1.3446,-1.3446,-1.3446,-1.3453,-1.3329,-1.337,-1.3403,-1.3403,-1.3403,-1.3403,-1.3403,-1.3403,-1.3424,-1.3365,-1.3392,-1.3418,-1.3343,-1.3396,-1.3593,-1.3926,-1.5523,-1.682,-1.6763,-1.6959,-1.7173,-1.7124,-1.6966,-1.6925,-1.6984,-1.7066,-1.7165,-1.7039,-1.7047,0.0,-1.7104,-1.7112,-1.7112,-1.7112,-1.7112,-1.7112,-1.7112,-1.7112,-1.7112,-1.7112,-1.7112,-1.7112,-1.7112,-1.7071,-1.7047,-1.7047,-1.705,-1.6959,0.0,0.0,0.0,0.0,0.0,0.0,0.0,0.0,0.0,0.0,0.0,0.0,0.0,0.0,0.0,0.0,0.0,0.0,0.0,0.0,0.0,0.0,-1.1938,-1.2026,-1.2026,-1.2176,-1.2311,-1.2372,-1.2454,-1.2501,-1.2501,-1.2501,-1.2501,-1.2501,-1.2501,-1.2528,-1.2434,-1.244,-1.2507,-1.2496,-1.2827,-1.2868,-1.2956,-1.2856,-1.3051,-1.338,-1.345,-1.3478,-1.3478,-1.3398,-1.3432,-1.3439,-1.3363,-1.3403,-1.3403,-1.3403,-1.3403,0.0,0.0,0.0,0.0,0.0,-1.3403,-1.3403,-1.3403,-1.3444,-1.3325,-1.3325,-1.3365,-1.3412,-1.3412,-1.3412,-1.3432,-1.3343,-1.3546,-1.3736,-1.381,-1.37,-1.4091,-1.5138,-1.6246,-1.7033,-1.7124,-1.714,-1.7173,-1.7096,-1.7112,0.0,-1.7156,-1.7047,-1.7112,-1.7112,-1.7112,-1.7136,-1.7033,-1.7041,-1.7073,-1.7137,-1.7145,-1.7145,-1.7145,-1.7145,0.0,0.0,0.0,-1.7185,-1.7112,-1.7112,0.0,0.0,0.0,-1.714,-1.714,-1.7033,0.0,0.0,-1.647,-1.6406,0.0,0.0,0.0,0.0,0.0,0.0,0.0,0.0,0.0,0.0,0.0,0.0,0.0,0.0,0.0,0.0,-1.2115,-1.2298,-1.2311,-1.2318,-1.2359,-1.2488,-1.2501,-1.2501,-1.2501,-1.2501,-1.2508,-1.2528,-1.2528,-1.2434,-1.2423,0.0,0.0,0.0,0.0,-1.3325,-1.3346,-1.3471,-1.337,-1.337,-1.3336,-1.3403,-1.3403,-1.3417,-1.3424,-1.3424,-1.3444,-1.3451,-1.3451,-1.3451,-1.3451,-1.3451,-1.3437,-1.3437,-1.3451,-1.3451,-1.3451,-1.3451,-1.3451,0.0,0.0,-1.3479,-1.3559,-1.3488,-1.3488,-1.3488,-1.3495,-1.3508,-1.3865,-1.4222,-1.4228,-1.4506,-1.4966,-1.6735,-1.7023,-1.7128,-1.7112,-1.7128,-1.7145,-1.7145,-1.7153,-1.7169,-1.7169,-1.7153,-1.7145,-1.7145,-1.7153,-1.7049,-1.7023,-1.7226,-1.7282,-1.7246,0.0,0.0,-1.7262,-1.7262,-1.7262,-1.7262,-1.7127,-1.7153,-1.7177,-1.7169,-1.7161,-1.7145,-1.7145,-1.7128,-1.7112,-1.7112,-1.7112,-1.7104,-1.714,-1.717,0.0,0.0,0.0,0.0,0.0,0.0,0.0,0.0,0.0,0.0,0.0,0.0,0.0,0.0,0.0,-1.2162,-1.225,-1.2332,-1.2447,-1.2461,-1.2474,-1.2501,-1.2501,-1.2501,-1.2501,-1.2501,-1.2549,-1.2514,-1.2527,-1.243,-1.2575,-1.2915,-1.3311,-1.3295,-1.3301,-1.3363,-1.348,-1.3342,-1.3356,-1.3356,0.0,0.0,-1.3403,-1.3358,-1.3412,-1.3418,-1.3356,-1.3409,-1.3409,-1.3933,-1.3933,-1.3743,-1.3978,-1.4175,-1.411,-1.3756,-1.3756,-1.3756,-1.3756,-1.3599,-1.3449,-1.3974,-1.4173,-1.4194,-1.4194,-1.4194,0.0,-1.4167,-1.4201,-1.4222,-1.4331,-1.5447,-1.6721,-1.708,-1.7104,-1.7112,-1.7112,-1.7049,-1.7145,-1.7145,-1.7071,-1.7158,-1.7158,-1.7055,-1.7145,-1.7145,-1.7079,-1.7174,-1.7026,-1.7591,-1.7985,-1.8018,-1.8018,-1.8018,-1.8018,-1.8018,-1.8018,-1.8018,-1.7616,-1.7575,-1.7534,-1.7534,-1.729,-1.7145,-1.7145,-1.7073,-1.7112,-1.7112,-1.7112,-1.7112,-1.7047,-1.7015,0.0,0.0,0.0,0.0,0.0,0.0,0.0,0.0,0.0,0.0,0.0,-1.1748,0.0,0.0,-1.2115,-1.2264,-1.2352,-1.242,-1.2488,-1.2501,-1.2501,-1.2501,-1.2501,-1.2501,-1.2501,-1.2569,-1.2487,-1.2561,-1.28,-1.2915,-1.2896,-1.3233,-1.3464,-1.3446,-1.3453,-1.3329,-1.3403,-1.3403,-1.3437,-1.3345,-1.3345,-1.3378,-1.3452,-1.3702,-1.3913,-1.3913,-1.381,-1.3844,-1.3844,-1.4194,-1.4242,-1.4125,-1.4235,-1.4372,-1.4201,-1.4194,-1.4022,-1.4022,-1.4022,-1.3892,-1.3953,-1.4139,-1.4368,-1.4249,-1.4249,-1.4249,-1.427,-1.4345,-1.4352,-1.4534,-1.5513,-1.6424,-1.7153,-1.7057,-1.7073,-1.7089,-1.7169,-1.7079,-1.7142,-1.7518,-1.7591,-1.764,-1.764,-1.7648,-1.7624,-1.7714,-1.7591,-1.7672,-1.7579,-1.7969,-1.8193,-1.8284,-1.8292,-1.8292,-1.8292,-1.8292,-1.8251,-1.8168,-1.7969,-1.7737,-1.7648,-1.764,-1.7599,-1.733,-1.733,-1.7282,-1.7372,-1.7372,-1.7372,-1.7372,-1.7372,-1.7283,0.0,0.0,0.0,0.0,0.0,0.0,0.0,0.0,-1.1619,-1.1619,-1.1735,-1.1837,-1.187,-1.2101,-1.2298,-1.2325,-1.2427,-1.2501,-1.2501,-1.2501,-1.2515,-1.2542,-1.2542,-1.2542,-1.2542,-1.2521,-1.2621,-1.2648,-1.3095,-1.3394,-1.3377,-1.3384,-1.3439,-1.3397,-1.3431,-1.3444,-1.3444,-1.3471,-1.3553,-1.3499,-1.3499,-1.3559,-1.3666,-1.405,-1.4242,-1.4242,-1.4277,-1.4291,-1.4291,-1.4291,-1.4361,-1.4297,-1.4297,-1.4222,-1.4291,-1.4291,-1.4291,-1.4291,-1.4291,-1.4368,-1.4297,-1.4297,-1.438,-1.4299,-1.4299,-1.4299,-1.4306,-1.4326,-1.4319,-1.4673,-1.6533,-1.7073,-1.7081,-1.7031,-1.725,-1.729,-1.7238,-1.7294,-1.7507,-1.8077,-1.8292,-1.8135,-1.8135,-1.8251,-1.8284,-1.8292,-1.811,-1.8184,-1.8141,-1.8166,-1.8215,-1.816,-1.8176,-1.8176,-1.8176,-1.8176,-1.8119,-1.8174,-1.7965,-1.79,-1.7936,-1.7746,-1.7729,-1.7697,-1.7697,-1.7681,-1.764,-1.764,-1.764,-1.764,-1.764,-1.7486,-1.1619,-1.1619,-1.1619,-1.1619,-1.1619,-1.1619,0.0,0.0,-1.1619,-1.1619,-1.1735,-1.187,-1.2013,-1.2176,-1.2332,-1.2461,-1.2488,-1.2501,-1.2501,-1.2501,-1.2549,-1.2527,-1.2541,-1.2541,-1.2541,-1.2516,-1.2655,-1.3281,-1.3308,-1.3384,-1.337,-1.3376,-1.3383,-1.3403,-1.3365,-1.3432,-1.3432,-1.3906,-1.4152,-1.4173,-1.4173,-1.418,-1.4201,-1.434,-1.4228,-1.4235,-1.4366,-1.4251,-1.4251,-1.4251,-1.4258,-1.4272,-1.4272,-1.4265,-1.4251,-1.4251,-1.4251,-1.4251,-1.4251,-1.4258,-1.4272,-1.4272,-1.4285,-1.4299,-1.4299,-1.4299,-1.4326,-1.4256,-1.4269,-1.4654,-1.6649,-1.7041,-1.7026,-1.7041,-1.7616,-1.8002,-1.8018,-1.8151,-1.8084,-1.8267,-1.8207,-1.8119,-1.8119,-1.8135,-1.828,-1.8108,-1.8207,-1.8127,-1.8144,-1.8152,-1.8152,-1.8176,-1.8176,-1.8176,-1.8176,-1.8176,-1.8168,-1.8152,-1.8144,-1.8135,-1.8119,-1.8119,-1.8046,-1.7892,-1.7884,-1.7802,-1.764,-1.764,-1.764,-1.764,-1.764,-1.7616,-1.1619,-1.1619,0.0,0.0,-1.1619,-1.1619,-1.1619,-1.1619,-1.164,-1.1728,-1.1857,-1.1858,-1.2162,-1.2311,-1.2433,0.0,-1.2501,-1.2501,-1.2501,-1.2576,-1.2494,-1.2561,-1.2881,-1.2956,-1.3034,-1.2996,-1.3112,-1.3336,-1.3425,-1.3336,-1.3397,-1.3485,-1.3365,-1.3365,-1.333,-1.3579,-1.3926,-1.4166,-1.4242,-1.4333,-1.4333,-1.4374,-1.429,-1.4352,-1.4386,-1.4386,-1.4272,-1.4299,-1.4299,-1.4299,-1.4346,-1.4421,-1.4421,-1.4475,-1.4536,-1.4367,-1.4299,-1.4299,-1.4299,-1.4353,-1.4421,-1.4428,-1.4482,-1.437,-1.437,-1.437,-1.4376,-1.4236,-1.5355,-1.6664,-1.7483,-1.7664,-1.7672,-1.7778,-1.7993,-1.8209,-1.8125,-1.8207,-1.8256,-1.8256,-1.8599,-1.8919,-1.8919,-1.8625,-1.8468,-1.8403,-1.8551,-1.8527,-1.8527,-1.8428,-1.8493,-1.8691,-1.8493,-1.8493,-1.8493,-1.8493,-1.8493,-1.8493,-1.8395,-1.8338,-1.8338,-1.8233,-1.8144,-1.807,-1.807,-1.803,-1.7949,-1.7949,-1.7949,-1.7949,-1.7949,-1.7949,-1.1619,0.0,0.0,-1.1619,-1.1619,-1.1619,-1.1619,-1.1647,-1.1563,-1.1663,-1.1837,-1.2005,-1.2112,-1.2406,-1.2501,-1.2501,-1.2501,-1.2515,-1.2556,-1.2501,-1.2594,-1.2682,-1.3205,-1.3322,-1.3422,-1.3343,-1.3404,-1.3404,-1.3376,-1.3464,-1.3464,-1.3432,-1.3512,-1.3688,-1.3653,-1.3905,-1.4263,-1.4305,-1.4381,-1.4311,-1.4311,-1.4373,-1.4299,-1.434,-1.436,-1.436,-1.4401,-1.4421,-1.4421,-1.4421,-1.4482,-1.4577,-1.4577,-1.4638,-1.4713,-1.4502,-1.4421,-1.4421,-1.4421,-1.4489,-1.4577,-1.4577,-1.4464,-1.4551,-1.4368,-1.4551,-1.4557,-1.4571,-1.6271,-1.8176,-1.8193,-1.8184,-1.8209,-1.8149,-1.8182,-1.8231,-1.8404,-1.8257,-1.8265,-1.8314,-1.8831,-1.9129,-1.9319,-1.9038,-1.8728,-1.8728,-1.8847,-1.8781,-1.8732,-1.8647,-1.8728,-1.892,-1.8728,-1.8728,-1.8728,-1.8728,-1.8728,-1.8728,-1.8598,-1.8525,-1.8525,-1.8395,-1.833,-1.833,-1.833,-1.8306,-1.8249,-1.8249,-1.8225,-1.8176,-1.8176,-1.8176,0.0,0.0,-1.1619,-1.1619,-1.1619,-1.1619,-1.1619,-1.1576,-1.1524,-1.1677,-1.1918,-1.2126,-1.2132,-1.2253,-1.2501,-1.2501,-1.2501,-1.2556,-1.2541,-1.2561,-1.2675,-1.3295,-1.3336,-1.3398,0.0,-1.339,-1.3397,-1.3397,-1.3365,-1.3445,-1.3445,-1.3409,-1.366,-1.4187,-1.434,-1.4242,-1.4242,-1.4217,-1.4285,-1.4292,-1.4292,-1.4292,-1.4306,-1.4441,-1.4502,-1.4516,-1.4665,-1.4726,-1.4726,-1.4726,-1.4726,-1.4733,-1.4733,-1.4733,-1.474,-1.4726,-1.4726,-1.4726,-1.4726,-1.4726,-1.4733,-1.4733,-1.474,-1.4929,-1.474,-1.4929,-1.5139,-1.5257,-1.6627,-1.8198,-1.8127,-1.816,-1.816,-1.8168,-1.8168,-1.8217,-1.86,-1.8641,-1.8691,-1.8671,-1.8712,-1.8912,-1.9313,-1.9121,-1.8929,-1.8929,-1.8866,-1.8907,-1.8937,-1.8728,-1.8728,-1.8728,-1.8728,-1.8728,-1.8728,-1.8728,-1.8728,-1.8728,-1.872,-1.872,-1.872,-1.8712,-1.8704,-1.8704,-1.8704,-1.8623,-1.8444,-1.8444,-1.8355,-1.8176,-1.8176,-1.8176,0.0,0.0,-1.1619,-1.1619,-1.1687,-1.1762,-1.161,-1.1724,-1.1858,-1.1958,-1.1907,-1.1848,-1.2253,-1.2467,-1.2501,-1.2501,-1.2427,-1.2507,-1.2561,-1.2901,-1.3226,-1.3329,-1.3432,0.0,0.0,0.0,0.0,-1.3372,-1.3425,-1.3499,-1.394,-1.3912,-1.4167,-1.4347,-1.4325,-1.4224,-1.4224,-1.4272,-1.4299,-1.4299,-1.4394,-1.4441,-1.4441,-1.4597,-1.4665,-1.4665,-1.4719,-1.474,-1.474,-1.474,-1.4801,-1.4896,-1.4896,-1.495,-1.5031,-1.5031,-1.5031,-1.5004,-1.4808,-1.4808,-1.4896,-1.4896,-1.4957,-1.5038,-1.5031,-1.5038,-1.5231,-1.5265,-1.6614,-1.8192,-1.8527,-1.8559,-1.8584,-1.8509,-1.8541,-1.8558,-1.8623,-1.8838,-1.9055,-1.9113,-1.9027,-1.9101,-1.9303,-1.9199,-1.9086,-1.9086,-1.9029,-1.9004,-1.9077,-1.9077,-1.9077,-1.9077,-1.9077,-1.9077,-1.9077,-1.9077,-1.9077,-1.9077,-1.8964,-1.8899,-1.8899,-1.8785,-1.8728,-1.8728,-1.8728,-1.8696,-1.8631,-1.8631,-1.8598,-1.8541,-1.8541,-1.8541,0.0,-1.1619,-1.1633,-1.1536,-1.1616,-1.1697,-1.175,-1.1729,-1.1861,-1.1954,-1.1861,-1.2079,-1.2481,-1.2501,-1.2522,-1.2569,-1.2501,-1.2601,-1.2715,-1.3219,-1.3363,-1.3418,-1.3342,-1.3424,0.0,0.0,0.0,-1.3445,-1.3552,-1.3831,-1.4277,-1.4249,-1.4331,-1.4331,-1.4251,-1.4299,-1.4299,-1.4299,-1.4326,-1.438,-1.4523,-1.459,-1.4597,-1.4753,-1.4821,-1.4828,-1.4875,-1.4896,-1.4896,-1.4896,-1.4957,-1.5045,-1.5045,-1.5099,-1.4993,-1.4993,-1.4838,-1.4663,-1.4798,-1.4964,-1.5045,-1.5045,-1.5106,-1.5194,-1.5248,-1.5262,-1.5276,-1.5309,-1.6481,-1.8057,-1.855,-1.8756,-1.8781,-1.8704,-1.8728,-1.8744,-1.8801,-1.9019,-1.9237,-1.9311,-1.9216,-1.9281,-1.9281,-1.938,-1.9256,-1.9256,-1.9207,-1.9191,-1.9248,-1.9256,-1.9256,-1.9256,-1.9256,-1.9256,-1.9256,-1.9256,-1.9256,-1.9256,-1.9142,-1.9077,-1.9077,-1.8972,-1.8915,-1.8915,-1.8915,-1.8883,-1.8818,-1.8818,-1.8785,-1.8728,-1.8728,-1.8728,-1.1619,-1.1626,-1.166,-1.1643,-1.1544,-1.1744,-1.204,-1.1881,-1.1676,-1.1676,-1.2093,-1.2501,0.0,0.0,-1.2562,-1.2548,-1.2581,-1.2688,-1.3301,-1.3349,-1.3404,0.0,0.0,0.0,0.0,0.0,0.0,-1.3479,0.0,-1.4256,-1.4263,-1.4224,-1.4299,-1.4299,-1.4299,-1.4306,-1.4312,-1.4319,-1.4387,-1.4523,-1.4679,-1.4753,-1.476,-1.4909,-1.4984,-1.4991,-1.5126,-1.5181,-1.5181,-1.5187,-1.5194,-1.5194,-1.5201,-1.4825,-1.4448,-1.4448,-1.4153,-1.4056,-1.4878,-1.5208,-1.5208,-1.5208,-1.5208,-1.5235,-1.5384,-1.5425,-1.5452,-1.5574,-1.6394,-1.7381,-1.8367,-1.8753,-1.8937,-1.8953,-1.8761,-1.8801,-1.8964,-1.8996,-1.9045,-1.9224,-1.9256,-1.9264,-1.9272,-1.9272,-1.9272,-1.9289,-1.9427,-1.9467,-1.9297,-1.9281,-1.9289,-1.9289,-1.9289,-1.9289,-1.9289,-1.9289,-1.9281,-1.9272,-1.9272,-1.9264,-1.9256,-1.9256,-1.9256,-1.9256,-1.9256,-1.9175,-1.8996,-1.8996,-1.8915,-1.8753,-1.8753,-1.8753,-1.1619,-1.1549,-1.1636,-1.167,-1.1851,-1.1874,-1.1756,-1.2026,-1.2286,-1.2286,-1.232,-1.2501,0.0,0.0,0.0,-1.2561,-1.2915,0.0,-1.3329,-1.3439,0.0,0.0,0.0,-1.3412,-1.3452,-1.3831,0.0,0.0,-1.4208,-1.4297,-1.4238,-1.4278,-1.4299,-1.4299,-1.4299,-1.4353,-1.4455,-1.457,-1.4645,-1.4685,-1.4835,-1.4909,-1.4916,-1.5065,-1.5126,-1.5133,-1.5167,-1.5181,-1.5187,-1.4924,-1.478,-1.4787,-1.4514,-1.4168,-1.4168,-1.4168,-1.3994,-1.4024,-1.418,-1.4552,-1.4943,-1.5328,-1.552,-1.5527,-1.5567,-1.5581,-1.5787,-1.5822,-1.6609,-1.7611,-1.7726,-1.8332,-1.8956,-1.9094,-1.9126,-1.9134,-1.9175,-1.9191,-1.9199,-1.9248,-1.9256,-1.9297,-1.9427,-1.9443,-1.9492,-1.963,-1.9695,-1.9654,-1.9467,-1.9565,-1.9654,-1.9654,-1.9654,-1.9654,-1.9654,-1.9654,-1.9597,-1.9459,-1.9443,-1.9394,-1.9264,-1.9256,-1.9256,-1.9256,-1.9256,-1.9232,-1.9191,-1.9191,-1.9167,-1.9126,-1.9126,-1.9126,-1.1549,-1.1623,-1.1563,-1.1541,-1.1697,-1.1835,-1.2053,-1.2286,-1.2501,-1.2501,-1.2501,0.0,0.0,0.0,0.0,0.0,0.0,0.0,-1.3432,-1.3349,-1.3424,0.0,-1.3405,0.0,-1.381,-1.4153,-1.4277,0.0,-1.4352,-1.4386,-1.4292,-1.4299,-1.4326,-1.4394,-1.4394,-1.4462,-1.4611,-1.4767,-1.4841,-1.4841,-1.4991,-1.5065,-1.5065,-1.5147,-1.5221,-1.5282,0.0,-1.4937,-1.5003,-1.4514,-1.4347,-1.436,-1.4049,-1.3885,-1.3691,-1.3691,-1.3532,-1.3384,-1.3774,-1.4012,-1.444,-1.5094,-1.5248,-1.5261,-1.5515,-1.5737,-1.5945,-1.6014,-1.6622,-1.7426,-1.7508,-1.8113,-1.893,-1.9232,-1.9256,-1.9256,-1.9256,-1.9256,-1.9281,-1.9354,-1.9435,-1.9524,-1.9613,-1.963,-1.967,-1.9776,-1.9857,-1.9873,-1.9768,-1.9776,-1.9792,-1.9792,-1.9792,-1.9792,-1.9792,-1.9792,-1.9743,-1.9638,-1.963,-1.9589,-1.95,-1.9492,-1.9492,-1.9492,-1.941,-1.937,-1.937,-1.9297,-1.9256,-1.9256,-1.9256,-1.9256,-1.1643,-1.1563,-1.1649,-1.1598,-1.1676,-1.188,-1.2313,-1.2501,-1.2501,-1.2501,0.0,-1.2508,-1.2528,0.0,-1.2648,-1.3297,0.0,-1.3418,-1.3383,-1.3417,-1.3478,-1.3439,-1.3492,-1.379,-1.4228,-1.427,-1.4338,-1.4292,-1.4299,-1.4299,-1.4299,-1.4319,-1.4394,-1.4543,-1.4563,-1.4638,-1.4767,-1.4923,-1.4997,-1.5004,-1.5126,-1.5194,-1.5215,-1.5215,-1.5107,-1.5247,-1.4674,-1.4546,-1.4667,-1.4097,-1.3909,-1.3909,-1.3739,-1.355,-1.2959,-1.2959,-1.2836,-1.2529,-1.3127,-1.3393,-1.3649,-1.4409,-1.4718,-1.4938,-1.5649,-1.5886,-1.5913,-1.6042,-1.6474,-1.7062,-1.7474,-1.8061,-1.8655,-1.9256,-1.9272,-1.9297,-1.9297,-1.9313,-1.937,-1.9524,-1.9678,-1.98,-1.9825,-1.9825,-1.9833,-1.9857,-1.9995,-2.0101,-2.0101,-1.9963,-1.9857,-1.9857,-1.9857,-1.9857,-1.9857,-1.9857,-1.9849,-1.9825,-1.9825,-1.9817,-1.9792,-1.9792,-1.9792,-1.9792,-1.963,-1.9549,-1.9549,-1.9402,-1.9329,-1.9329,-1.9329,-1.9329,-1.167,-1.156,-1.1598,-1.165,-1.1906,-1.2313,-1.2494,-1.2501,0.0,0.0,0.0,-1.2542,-1.2507,-1.2489,0.0,-1.3281,0.0,0.0,0.0,0.0,-1.3425,0.0,0.0,0.0,0.0,0.0,0.0,0.0,0.0,-1.4299,-1.4299,-1.4414,-1.455,-1.4699,-1.4821,-1.4903,-1.493,-1.5072,-1.5147,-1.5147,-1.5167,-1.5248,-1.5371,-1.4983,-1.4878,-1.4822,-1.4429,0.0,-1.4085,-1.381,-1.3262,-1.288,-1.2583,-1.2028,-1.1629,-1.1629,-1.1639,-1.1659,-1.2258,-1.2269,-1.2679,-1.403,-1.4806,-1.5209,-1.5433,-1.5645,-1.6049,-1.6076,-1.6474,-1.7062,-1.7474,-1.8061,-1.8655,-1.9256,-1.937,-1.9467,-1.9467,-1.9589,-1.9703,-1.9735,-1.9768,-1.9841,-1.9995,-2.002,-2.0068,-2.0206,-2.0255,-2.0279,-2.0279,-2.0247,-2.0231,-2.0231,-2.0231,-2.0231,-2.0231,-2.0231,-2.0166,-2.0028,-2.002,-1.9946,-1.9792,-1.9792,-1.9792,-1.9792,-1.976,-1.9743,-1.9743,-1.9711,-1.9695,-1.9695,-1.9695,-1.9695,-1.1623,-1.1808,-1.1993,-1.2066,-1.2293,-1.2501,-1.2501,0.0,0.0,0.0,0.0,-1.2549,-1.2541,0.0,0.0,0.0,0.0,0.0,0.0,0.0,0.0,0.0,0.0,0.0,0.0,0.0,0.0,0.0,0.0,-1.4414,-1.4414,-1.4631,-1.4787,-1.4855,-1.5004,-1.5079,-1.5079,-1.5147,-1.5181,-1.5181,-1.5073,-1.4957,-1.503,-1.4527,-1.4442,-1.458,-1.3988,-1.3638,-1.3308,-1.2974,-1.24,-1.2007,-1.1664,-1.1483,-1.1282,-1.1282,-1.1282,-1.1282,-1.1683,-1.1884,-1.2284,-1.3084,-1.3884,-1.4482,-1.5081,-1.5479,-1.5678,-1.6083,-1.6275,-1.6693,-1.7178,-1.7791,-1.8413,-1.8915,-1.9396,-1.9654,-1.9654,-1.98,-1.9938,-1.9938,-2.0003,-2.0093,-2.0182,-2.0198,-2.0231,-2.0304,-2.032,-2.032,-2.032,-2.032,-2.032,-2.032,-2.032,-2.032,-2.032,-2.032,-2.0288,-2.0206,-2.0198,-2.0158,-2.0068,-2.0068,-2.0068,-2.0068,-1.9979,-1.9938,-1.9938,-1.9833,-1.9792,-1.9792,-1.9792,-1.9792,-1.1762,-1.2065,-1.2519,-1.2474,-1.2501,-1.2501,-1.2501,-1.2501,0.0,0.0,0.0,-1.2562,-1.243,0.0,0.0,0.0,0.0,0.0,0.0,0.0,0.0,0.0,0.0,0.0,0.0,0.0,0.0,0.0,0.0,0.0,-1.4611,-1.4841,-1.4984,-1.5018,-1.5126,-1.5181,-1.5181,-1.5026,-1.504,-1.504,-1.4616,-1.4514,-1.4546,-1.4073,-1.4,-1.3935,-1.3336,-1.2996,-1.2489,-1.2084,-1.1483,-1.0881,-1.0881,-1.0881,-1.0681,-1.0681,-1.0681,-1.0881,-1.0881,-1.1297,-1.1723,-1.2125,-1.2912,-1.3889,-1.4881,-1.5299,-1.5525,-1.5931,-1.6151,-1.6405,-1.6926,-1.7559,-1.8202,-1.8994,-1.9645,-1.9857,-1.9898,-2.002,-2.0125,-2.0125,-2.0231,-2.032,-2.032,-2.032,-2.032,-2.032,-2.032,-2.032,-2.032,-2.032,-2.0336,-2.0377,-2.0344,-2.032,-2.032,-2.032,-2.032,-2.032,-2.032,-2.032,-2.032,-2.032,-2.032,-2.032,-2.019,-2.0125,-2.0125,-1.9971,-1.9906,-1.9906,-1.9906,-1.9906,-1.223,-1.2525,-1.2488,-1.2501,-1.2501,-1.2501,-1.2501,0.0,0.0,0.0,-1.2528,-1.246,-1.2575,0.0,0.0,0.0,0.0,0.0,0.0,0.0,0.0,0.0,0.0,0.0,0.0,0.0,0.0,0.0,0.0,0.0,-1.493,-1.4957,-1.5031,-1.516,-1.5174,-1.5181,-1.5181,-1.4747,-1.4622,-1.4622,-1.4186,-1.4128,-1.425,-1.3863,-1.3348,-1.3073,-1.2468,-1.1879,0.0,-1.1483,-1.0685,-0.9882,-0.9882,-0.9275,-0.8467,-0.8467,-0.8672,-0.9279,-0.9681,-1.034,-1.082,-1.2039,-1.2977,-1.3889,-1.4476,-1.4969,-1.5681,-1.6085,-1.6381,-1.6687,-1.7116,-1.7727,-1.8383,-1.979,-2.0044,-2.0085,-2.0239,-2.0288,-2.0296,-2.0296,-2.0312,-2.032,-2.032,-2.032,-2.032,-2.032,-2.032,-2.032,-2.032,-2.032,-2.0385,-2.0556,-2.0418,-2.032,-2.032,-2.032,-2.032,-2.032,-2.032,-2.032,-2.032,-2.032,-2.032,-2.032,-2.0304,-2.0296,-2.0296,-2.0279,-2.0271,-2.0271,-2.0271,-2.0271,-1.2429,-1.2553,-1.2501,-1.2501,-1.2508,-1.2515,-1.2515,0.0,0.0,-1.1256,-1.1005,-1.096,-1.0976,-1.223,0.0,0.0,0.0,0.0,0.0,0.0,0.0,0.0,0.0,0.0,0.0,0.0,0.0,0.0,0.0,0.0,-1.4164,-1.4725,-1.4939,-1.4798,-1.4805,-1.4656,-1.4368,-1.4228,-1.4106,-1.4192,-1.3939,-1.3643,-1.3302,-1.2781,-1.2442,-1.1884,-1.1683,-1.1082,0.0,-1.0284,-0.9677,-0.8672,-0.8672,-0.85,-0.8133,-0.8133,-0.8368,-0.8614,-0.9227,-0.9656,-1.0304,-1.1535,-1.2318,-1.3096,-1.3909,-1.456,-1.5214,-1.5832,-1.6279,-1.6544,-1.6845,-1.7348,-1.8262,-1.9376,-1.9807,-1.9823,-2.0304,-2.032,-2.032,-2.032,-2.032,-2.032,-2.032,-2.032,-2.0361,-2.0466,-2.0483,-2.0523,-2.0629,-2.0637,-2.0669,-2.0742,-2.0596,-2.0483,-2.0483,-2.0483,-2.0442,-2.0328,-2.032,-2.032,-2.032,-2.032,-2.032,-2.032,-2.032,-2.032,-2.032,-2.032,-2.032,-2.032,-2.032,-2.032,-1.2498,-1.2427,-1.2501,-1.2508,-1.2515,-1.236,0.0,0.0,0.0,-1.0314,-0.9939,-1.0056,-1.0174,-1.1451,-1.2585,0.0,0.0,-1.2618,0.0,0.0,0.0,0.0,0.0,0.0,0.0,0.0,0.0,0.0,0.0,0.0,-1.3682,-1.4435,-1.4617,-1.4241,-1.4279,-1.4159,-1.3871,-1.3765,-1.3655,-1.3556,-1.3291,-1.2759,-1.2363,-1.2048,-1.1483,-1.0881,-1.0881,-1.0279,0.0,-0.9275,-0.8687,-0.7897,-0.7897,-0.7741,-0.7802,-0.7802,-0.7834,-0.8087,-0.8707,-0.9135,-0.9983,-1.1226,-1.1866,-1.2517,-1.3554,-1.4358,-1.5153,-1.5564,-1.6214,-1.668,-1.6996,-1.7308,-1.802,-1.9067,-1.9276,-1.9485,-1.9903,-2.0111,-2.0111,-2.032,-2.032,-2.0336,-2.0393,-2.0401,-2.0466,-2.0645,-2.0669,-2.0718,-2.084,-2.0856,-2.0872,-2.0929,-2.0824,-2.0734,-2.0677,-2.0669,-2.0612,-2.0483,-2.0474,-2.0474,-2.0474,-2.0426,-2.0401,-2.0401,-2.0344,-2.032,-2.032,-2.032,-2.032,-2.032,-2.032,-2.032,-1.2461,-1.2501,-1.2508,-1.2515,-1.2522,-1.2044,0.0,0.0,0.0,-1.0008,-0.9955,-1.0078,-1.0678,-1.0633,-1.0744,-1.0693,-1.071,0.0,0.0,0.0,0.0,0.0,0.0,0.0,0.0,0.0,0.0,0.0,0.0,0.0,-1.3682,-1.3688,-1.3688,-1.3688,-1.381,-1.3871,-1.3877,-1.3561,-1.3296,-1.2705,-1.2227,-1.1884,-1.1282,-1.1282,-1.0681,-0.9681,-0.9681,-0.9074,0.0,-0.8065,-0.7911,-0.7365,-0.7365,-0.6994,-0.6635,-0.6635,-0.7052,-0.7469,-0.8087,-0.8757,-0.9449,-1.1331,-1.182,-1.2118,-1.3174,-1.4359,-1.5301,-1.5704,-1.6439,-1.7181,-1.7601,-1.7811,-1.802,-1.8432,-1.8641,-1.885,-1.9276,-1.9493,-1.9702,-2.0111,-2.032,-2.0377,-2.0564,-2.0596,-2.0653,-2.0824,-2.0848,-2.0848,-2.0856,-2.0856,-2.0921,-2.11,-2.1124,-2.1051,-2.0864,-2.0848,-2.0848,-2.0848,-2.0848,-2.0848,-2.0848,-2.0686,-2.0596,-2.0596,-2.0409,-2.032,-2.032,-2.032,-2.032,-2.032,-2.032,-2.032,-1.2488,-1.2508,-1.2515,-1.2515,-1.1578,-1.063,-1.0158,0.0,0.0,0.0,0.0,-1.0212,-1.0661,-1.0777,-1.0699,-1.0732,-1.097,-1.1233,0.0,0.0,0.0,0.0,0.0,0.0,0.0,0.0,0.0,0.0,0.0,0.0,-1.2172,-1.2248,-1.2488,-1.3251,-1.2904,-1.2813,-1.2585,-1.2077,-1.1753,-1.1833,-1.1668,-1.1082,-1.0284,-1.0284,-0.9677,-0.8672,-0.8672,-0.8298,-0.7537,-0.7537,-0.7374,-0.6814,-0.6814,-0.6853,-0.6698,-0.6698,-0.6725,-0.7182,-0.8028,-0.8464,-0.8907,-1.0804,-1.1671,-1.2122,-1.2757,-1.3996,-1.5431,-1.6276,-1.6735,-1.6978,-1.7188,-1.7188,-1.7398,-1.802,-1.802,-1.823,-1.885,-1.9276,-1.9524,-1.9844,-2.0296,-2.0564,-2.0742,-2.0775,-2.0832,-2.101,-2.1043,-2.1083,-2.1197,-2.1213,-2.1238,-2.1295,-2.1295,-2.123,-2.1059,-2.1043,-2.0986,-2.0864,-2.0856,-2.0856,-2.0856,-2.0799,-2.0775,-2.0775,-2.0718,-2.0686,-2.0686,-2.0686,-2.0629,-2.0507,-2.0377,-2.032,0.0,-1.2515,-1.236,-1.1734,-1.0791,0.0,0.0,0.0,0.0,0.0,0.0,0.0,0.0,-0.9667,-0.9736,-0.9736,-1.0677,-1.1306,0.0,0.0,0.0,0.0,0.0,0.0,0.0,0.0,0.0,0.0,0.0,0.0,-1.1287,-1.1161,-1.1625,-1.2288,-1.21,-1.1773,-1.1521,-1.1362,-1.1021,-1.0685,-1.0685,-1.0079,-0.9074,-0.9074,-0.8687,-0.7907,-0.7907,-0.734,0.0,-0.6789,-0.641,-0.6046,-0.6254,-0.629,-0.6552,-0.676,-0.6785,-0.703,-0.8096,-0.8521,-0.8734,-1.0428,-1.1699,-1.2334,-1.318,-1.4235,-1.55,-1.6348,-1.6768,-1.6978,-1.6978,-1.6978,-1.6978,-1.7398,-1.7398,-1.7622,-1.8303,-1.8738,-1.9001,-1.9379,-2.0056,-2.0324,-2.0714,-2.0738,-2.1019,-2.1197,-2.1222,-2.1254,-2.136,-2.1384,-2.1384,-2.1384,-2.1384,-2.1343,-2.123,-2.1222,-2.1173,-2.1059,-2.1051,-2.1051,-2.1051,-2.0994,-2.0954,-2.0954,-2.0889,-2.0856,-2.0856,-2.0856,-2.0799,-2.0694,-2.0572,-2.0523,0.0,0.0,0.0,0.0,0.0,0.0,0.0,0.0,0.0,0.0,0.0,0.0,0.0,0.0,-0.8056,-0.806,-0.9844,-1.0987,0.0,0.0,0.0,0.0,0.0,0.0,0.0,0.0,0.0,0.0,0.0,0.0,-1.0619,-1.0633,-1.0727,-1.0918,-1.0932,-1.0937,-1.0937,-1.1035,-1.048,-0.9681,-0.9681,-0.9074,-0.8069,-0.8072,-0.7708,0.0,-0.7371,-0.6794,-0.5816,-0.5816,-0.543,-0.5052,-0.5685,-0.5926,-0.5969,-0.6605,-0.6818,-0.703,-0.8093,-0.8521,-0.8734,-1.064,-1.1911,-1.2968,-1.403,-1.4868,-1.5493,-1.592,-1.6558,-1.6978,-1.6978,-1.6985,-1.6998,-1.6998,-1.7005,-1.7264,-1.7826,-1.8067,-1.833,-1.8911,-1.9585,-2.0069,-2.0248,-2.0714,-2.1197,-2.136,-2.1384,-2.1384,-2.1384,-2.1384,-2.1384,-2.1384,-2.1384,-2.1384,-2.1384,-2.1384,-2.1384,-2.1384,-2.1384,-2.1384,-2.1384,-2.123,-2.1148,-2.1148,-2.0978,-2.0889,-2.0889,-2.088,-2.0872,-2.0872,-2.0856,-2.0856,0.0,0.0,0.0,0.0,0.0,0.0,0.0,0.0,0.0,0.0,0.0,0.0,0.0,0.0,0.0,-0.8484,-0.8744,-0.9185,0.0,0.0,0.0,0.0,0.0,0.0,0.0,0.0,0.0,0.0,0.0,-1.0321,-0.9653,-0.9726,-0.9428,-0.875,-0.881,-0.9244,-1.0049,-0.9263,-0.8672,-0.8471,-0.8471,-0.8069,-0.7468,-0.7522,-0.6942,-0.6142,-0.6185,-0.5821,-0.5241,-0.5241,-0.5058,-0.5099,-0.5311,-0.5532,-0.5969,-0.6182,-0.6392,-0.6818,-0.7668,-0.8093,-0.8946,-1.1064,-1.1911,-1.2334,-1.3391,-1.4446,-1.5493,-1.592,-1.6558,-1.6978,-1.6978,-1.706,-1.7141,-1.7141,-1.7229,-1.7324,-1.7573,-1.7794,-1.8273,-1.8647,-1.911,-1.9814,-2.042,-2.0451,-2.0897,-2.1384,-2.1384,-2.1384,-2.1384,-2.1384,-2.1384,-2.1384,-2.1384,-2.1384,-2.1384,-2.1384,-2.1384,-2.1384,-2.1384,-2.1384,-2.1384,-2.1343,-2.1319,-2.1319,-2.1278,-2.1254,-2.1254,-2.1124,-2.1059,-2.1059,-2.0921,-2.0856,0.0,0.0,0.0,0.0,0.0,0.0,0.0,0.0,0.0,0.0,0.0,0.0,0.0,0.0,0.0,0.0,-0.844,0.0,0.0,0.0,0.0,0.0,0.0,0.0,0.0,0.0,0.0,0.0,0.0,-0.9432,-0.8555,-0.8637,-0.8526,-0.8007,-0.7848,-0.8069,-0.8873,-0.8471,-0.8069,-0.7666,-0.7666,-0.7279,-0.6502,-0.6534,-0.6167,-0.539,-0.5417,-0.5245,-0.4655,-0.4655,-0.4456,-0.4263,-0.4689,-0.5115,-0.5543,-0.5969,-0.6395,-0.6818,-0.7453,-0.8306,-0.9155,-1.1276,-1.1911,-1.2132,-1.3248,-1.4533,-1.5368,-1.5729,-1.6387,-1.708,-1.708,-1.7188,-1.7297,-1.7297,-1.7358,-1.7439,-1.7507,-1.7738,-1.8003,-1.8156,-1.8629,-1.9301,-1.961,-2.0073,-2.0513,-2.0945,-2.1156,-2.1384,-2.1384,-2.1384,-2.1384,-2.1384,-2.1384,-2.1384,-2.1384,-2.1384,-2.1384,-2.1384,-2.1384,-2.1384,-2.1384,-2.1384,-2.1384,-2.1384,-2.1384,-2.1384,-2.1384,-2.1295,-2.1246,-2.1246,-2.114,-2.11,0.0,0.0,0.0,0.0,0.0,0.0,0.0,0.0,0.0,0.0,0.0,0.0,0.0,0.0,0.0,0.0,0.0,0.0,0.0,0.0,0.0,0.0,0.0,0.0,0.0,0.0,0.0,0.0,0.0,-0.8153,-0.7645,-0.7721,-0.7794,-0.7864,-0.7264,-0.7264,-0.7663,-0.7867,-0.7666,-0.7062,-0.7062,-0.6491,-0.5526,-0.5535,-0.5381,-0.4837,-0.4843,-0.4655,-0.4261,-0.4261,-0.3837,-0.3411,-0.405,-0.4474,-0.5115,-0.5543,-0.6182,-0.6818,-0.7456,-0.8518,-0.9583,-1.1294,-1.1935,-1.2166,-1.3348,-1.4451,-1.5497,-1.5381,-1.6279,-1.7229,-1.7229,-1.7344,-1.7453,-1.7453,-1.7473,-1.7521,-1.765,-1.7684,-1.7717,-1.7846,-1.8316,-1.853,-1.8757,-1.9632,-2.0278,-2.0505,-2.0945,-2.1376,-2.1384,-2.1384,-2.1384,-2.1384,-2.1384,-2.1384,-2.1384,-2.1384,-2.1384,-2.1384,-2.1384,-2.1384,-2.1384,-2.1384,-2.1384,-2.1384,-2.1384,-2.1384,-2.1384,-2.1384,-2.1384,-2.1384,-2.1384,-2.1384,0.0,0.0,0.0,0.0,0.0,0.0,0.0,0.0,0.0,0.0,0.0,0.0,0.0,0.0,0.0,0.0,0.0,0.0,0.0,0.0,0.0,0.0,0.0,0.0,0.0,0.0,0.0,0.0,0.0,-0.7572,-0.7055,-0.7126,-0.6994,-0.6659,-0.6256,-0.6055,-0.6055,-0.6461,-0.6458,-0.5853,-0.5853,-0.5678,-0.5117,-0.5158,-0.479,-0.4421,0.0,-0.4044,-0.3624,-0.3624,-0.3411,-0.3412,-0.3411,-0.3837,-0.4474,-0.5115,-0.5541,-0.6395,-0.7884,-0.8521,-0.8957,-1.0734,-1.1616,-1.2277,-1.3032,-1.436,-1.5662,-1.5637,-1.6505,-1.7385,-1.7385,-1.75,-1.7616,-1.7616,-1.7704,-1.7812,-1.7826,-1.7826,-1.7846,-1.786,-1.7867,-1.8095,-1.853,-1.8757,-1.9419,-2.0285,-2.0513,-2.0717,-2.1384,-2.1384,-2.1384,-2.1384,-2.1384,-2.1384,-2.1384,-2.1384,-2.1384,-2.1384,-2.1384,-2.1384,-2.1384,-2.1384,-2.1384,-2.1384,-2.1384,-2.1384,-2.1384,-2.1384,-2.1384,-2.1384,-2.1384,-2.1384,-1.0025,0.0,0.0,0.0,0.0,0.0,0.0,0.0,0.0,0.0,0.0,0.0,0.0,0.0,0.0,0.0,0.0,0.0,0.0,0.0,0.0,0.0,0.0,0.0,0.0,0.0,0.0,0.0,0.0,-0.7043,-0.6719,-0.6384,-0.6227,-0.6055,-0.5452,-0.5248,-0.5248,-0.5452,-0.5452,-0.5251,-0.5275,-0.4904,-0.4539,-0.458,-0.4202,-0.3816,-0.3831,-0.3624,-0.3412,-0.3412,-0.3412,-0.3412,-0.3412,-0.3837,-0.4474,-0.5328,-0.5969,-0.6605,-0.7668,-0.8332,-0.8797,-1.0338,-1.146,-1.2173,-1.2927,-1.4271,-1.5385,-1.5882,-1.673,-1.7541,-1.7541,-1.765,-1.7758,-1.7758,-1.7812,-1.786,-1.786,-1.786,-1.786,-1.786,-1.786,-1.8088,-1.8316,-1.853,-1.8978,-1.9405,-2.0073,-2.0513,-2.0945,-2.1156,-2.1384,-2.1384,-2.1384,-2.1384,-2.1384,-2.1384,-2.1384,-2.1384,-2.1384,-2.1384,-2.1384,-2.1384,-2.1384,-2.1384,-2.1384,-2.1384,-2.1384,-2.1384,-2.1384,-2.1384,-2.1384,-2.1384,-1.0068,-0.8711,0.0,0.0,0.0,0.0,0.0,0.0,0.0,0.0,0.0,0.0,0.0,0.0,0.0,0.0,0.0,0.0,0.0,0.0,0.0,0.0,0.0,0.0,0.0,0.0,0.0,0.0,-0.683,-0.6699,-0.6167,-0.5824,-0.5652,-0.545,-0.4847,-0.4645,-0.4645,-0.4444,-0.4444,-0.4645,-0.4687,-0.4524,-0.3945,-0.3982,-0.3806,-0.3412,-0.3412,-0.3412,-0.3412,-0.3412,-0.3412,-0.3412,-0.3412,-0.3837,-0.4474,-0.5328,-0.6189,-0.6837,-0.7476,-0.8161,-0.8874,-0.9756,-1.1112,-1.2277,-1.2822,-1.3958,-1.5081,-1.5838,-1.6678,-1.7478,-1.7704,-1.7772,-1.786,-1.786,-1.786,-1.786,-1.786,-1.786,-1.786,-1.786,-1.786,-1.786,-1.786,-1.8316,-1.853,-1.875,-1.9405,-2.0073,-2.0505,-2.0945,-2.1156,-2.1384,-2.1384,-2.1384,-2.1384,-2.1384,-2.1384,-2.1384,-2.1384,-2.1384,-2.1384,-2.1384,-2.1384,-2.1384,-2.1384,-2.1384,-2.1384,-2.1384,-2.1384,-2.1384,-2.1384,-2.1384,-1.0019,-0.8777,0.0,0.0,0.0,0.0,0.0,0.0,0.0,0.0,0.0,0.0,0.0,0.0,0.0,0.0,0.0,0.0,0.0,0.0,0.0,0.0,0.0,0.0,0.0,0.0,0.0,-0.696,-0.6635,-0.6109,-0.5767,-0.5623,-0.545,-0.4847,-0.4242,-0.4038,-0.4038,-0.3635,-0.3635,-0.404,-0.4077,-0.3909,-0.3322,-0.3352,-0.3384,-0.3412,-0.3412,-0.3412,-0.3412,-0.3412,-0.3412,-0.3412,-0.3412,-0.3837,-0.4474,-0.4902,-0.557,-0.6253,-0.733,-0.8236,-0.8743,-0.9473,-1.104,-1.2392,-1.2487,-1.3854,-1.5407,-1.5868,-1.6533,-1.7197,-1.7619,-1.786,-1.786,-1.786,-1.786,-1.786,-1.786,-1.786,-1.786,-1.786,-1.786,-1.786,-1.786,-1.7867,-1.8088,-1.853,-1.8757,-1.9199,-2.0285,-2.0513,-2.0717,-2.1384,-2.1384,-2.1384,-2.1384,-2.1384,-2.1384,-2.1384,-2.1384,-2.1384,-2.1384,-2.1384,-2.1384,-2.1384,-2.1384,-2.1384,-2.1384,-2.1384,-2.1384,-2.1384,-2.1384,-2.1384,-0.8772,-0.8228,-0.7681,-0.6598,0.0,0.0,0.0,0.0,0.0,0.0,0.0,0.0,0.0,0.0,0.0,0.0,0.0,0.0,0.0,0.0,0.0,0.0,0.0,0.0,0.0,0.0,-0.6566,-0.6632,-0.6103,-0.5764,-0.5618,-0.5036,-0.4442,-0.4242,-0.3836,-0.3433,-0.3433,-0.3231,-0.3239,-0.3667,-0.3495,-0.3527,-0.3351,-0.3381,-0.3401,-0.3412,-0.3412,-0.3412,-0.3412,-0.3412,-0.3412,-0.3412,-0.3412,-0.3837,-0.4265,-0.4931,-0.5596,-0.6263,-0.6951,-0.7658,-0.8375,-0.9065,-1.0211,-1.1599,-1.2298,-1.3202,-1.4309,-1.5652,-1.6317,-1.6754,-1.7632,-1.786,-1.786,-1.786,-1.786,-1.786,-1.786,-1.786,-1.786,-1.786,-1.786,-1.786,-1.786,-1.786,-1.7867,-1.8095,-1.853,-1.8757,-1.9419,-2.0065,-2.0513,-2.0717,-2.1156,-2.1384,-2.1384,-2.1384,-2.1384,-2.1384,-2.1384,-2.1384,-2.1384,-2.1384,-2.1384,-2.1384,-2.1384,-2.1384,-2.1384,-2.1384,-2.1384,-2.1384,-2.1384,-2.1384,-0.724,-0.7015,-0.6941,-0.5642,0.0,0.0,0.0,0.0,0.0,0.0,0.0,0.0,0.0,0.0,0.0,0.0,0.0,0.0,0.0,0.0,0.0,0.0,0.0,0.0,0.0,-0.6345,-0.6215,-0.608,-0.5742,-0.5395,-0.5246,-0.4442,-0.3836,-0.3836,-0.3433,-0.323,-0.323,-0.3239,-0.326,-0.3291,-0.3321,-0.3345,-0.3367,-0.3397,-0.3412,-0.3412,-0.3412,-0.3412,-0.3412,-0.3412,-0.3412,-0.3412,-0.3412,-0.363,-0.4069,-0.474,-0.5415,-0.588,-0.6574,-0.7283,-0.8227,-0.8667,-0.9813,-1.0978,-1.2084,-1.299,-1.3642,-1.5424,-1.5868,-1.6317,-1.7424,-1.786,-1.786,-1.786,-1.786,-1.786,-1.786,-1.786,-1.786,-1.786,-1.786,-1.786,-1.786,-1.786,-1.786,-1.786,-1.8316,-1.853,-1.875,-1.9405,-2.0073,-2.0505,-2.0953,-2.1384,-2.1384,-2.1384,-2.1384,-2.1384,-2.1384,-2.1384,-2.1384,-2.1384,-2.1384,-2.1384,-2.1384,-2.1384,-2.1384,-2.1384,-2.1384,-2.1384,-2.1384,-2.1384,-0.5733,-0.5446,0.0,0.0,0.0,0.0,0.0,0.0,0.0,0.0,0.0,0.0,0.0,0.0,0.0,0.0,0.0,0.0,0.0,0.0,0.0,0.0,0.0,0.0,-0.6098,-0.6153,-0.6021,-0.5494,-0.5544,-0.5198,-0.4036,-0.4038,-0.3836,-0.323,-0.323,-0.323,-0.323,-0.326,-0.3291,-0.3321,-0.3352,-0.3366,-0.3367,-0.3399,-0.3412,-0.3412,-0.3412,-0.3412,-0.3412,-0.3412,-0.3412,-0.3412,-0.3412,-0.343,-0.3673,-0.4103,-0.4802,-0.5313,-0.5979,-0.7125,-0.83,-0.8744,-0.9858,-1.0978,-1.2084,-1.299,-1.3652,-1.4764,-1.5652,-1.6317,-1.676,-1.7424,-1.786,-1.786,-1.786,-1.786,-1.786,-1.786,-1.786,-1.786,-1.786,-1.786,-1.786,-1.786,-1.786,-1.786,-1.786,-1.8088,-1.853,-1.8757,-1.9192,-2.0285,-2.0953,-2.1384,-2.1384,-2.1384,-2.1384,-2.1384,-2.1384,-2.1384,-2.1384,-2.1384,-2.1384,-2.1384,-2.1384,-2.1384,-2.1384,-2.1384,-2.1384,-2.1384,-2.1384,-2.1384,-0.6249,0.0,0.0,0.0,0.0,0.0,0.0,0.0,0.0,0.0,0.0,0.0,0.0,0.0,0.0,0.0,0.0,0.0,0.0,0.0,0.0,0.0,-0.5337,-0.516,-0.5584,-0.5248,-0.5102,-0.4955,-0.46,-0.4429,-0.4038,-0.3635,-0.3433,-0.323,-0.323,-0.323,-0.323,-0.326,-0.3291,-0.3321,-0.3352,-0.3378,-0.3399,-0.3408,-0.3412,-0.3412,-0.3412,-0.3412,-0.3412,-0.3412,-0.3412,-0.3414,-0.3435,-0.3449,-0.3679,-0.416,-0.485,-0.5319,-0.602,-0.6711,-0.7625,-0.8076,-0.8967,-0.9858,-1.0978,-1.2093,-1.2975,-1.432,-1.5202,-1.6317,-1.676,-1.7424,-1.786,-1.786,-1.786,-1.786,-1.786,-1.786,-1.786,-1.786,-1.786,-1.786,-1.786,-1.786,-1.786,-1.786,-1.786,-1.8088,-1.853,-1.8757,-1.9192,-2.0285,-2.0733,-2.0945,-2.1384,-2.1384,-2.1384,-2.1384,-2.1384,-2.1384,-2.1384,-2.1384,-2.1384,-2.1384,-2.1384,-2.1384,-2.1384,-2.1384,-2.1384,-2.1384,-2.1384,-2.1384,0.0,0.0,0.0,0.0,0.0,0.0,0.0,0.0,0.0,0.0,0.0,0.0,0.0,0.0,0.0,0.0,0.0,0.0,0.0,0.0,-0.4734,-0.4954,-0.4766,-0.4785,-0.5027,-0.4881,-0.4534,-0.4378,-0.4218,-0.3836,-0.3635,-0.3433,-0.323,-0.323,-0.323,-0.3236,-0.3247,-0.3279,-0.3309,-0.334,-0.337,-0.3395,-0.3412,-0.3412,-0.3412,-0.3412,-0.3412,-0.3412,-0.3412,-0.3412,-0.3419,-0.3431,-0.345,-0.3471,-0.3495,-0.3972,-0.444,-0.5122,-0.582,-0.6281,-0.6951,-0.7849,-0.8527,-0.9195,-1.0524,-1.1643,-1.2762,-1.3658,-1.4764,-1.5868,-1.6545,-1.6988,-1.7652,-1.786,-1.786,-1.786,-1.786,-1.786,-1.786,-1.786,-1.786,-1.786,-1.786,-1.786,-1.786,-1.786,-1.786,-1.8088,-1.8302,-1.853,-1.8971,-2.0065,-2.0285,-2.0717,-2.1384,-2.1384,-2.1384,-2.1384,-2.1384,-2.1384,-2.1384,-2.1384,-2.1384,-2.1384,-2.1384,-2.1384,-2.1384,-2.1384,-2.1384,-2.1384,-2.1384,-2.1384,0.0,0.0,0.0,0.0,0.0,0.0,0.0,0.0,0.0,0.0,0.0,0.0,0.0,0.0,0.0,0.0,0.0,0.0,0.0,0.0,-0.4385,-0.4575,-0.4575,-0.4404,-0.4451,-0.4493,-0.4337,-0.3785,-0.3819,-0.3635,-0.323,-0.323,-0.323,-0.323,-0.323,-0.3245,-0.3276,-0.3306,-0.3336,-0.3367,-0.3397,-0.3412,-0.3412,-0.3412,-0.3412,-0.3412,-0.3412,-0.3412,-0.3412,-0.3412,-0.343,-0.3457,-0.346,-0.3495,-0.3544,-0.3549,-0.4012,-0.4488,-0.5157,-0.5831,-0.6505,-0.7625,-0.83,-0.9191,-1.0312,-1.142,-1.2534,-1.3202,-1.4097,-1.5202,-1.5862,-1.6545,-1.721,-1.7639,-1.786,-1.786,-1.786,-1.786,-1.786,-1.786,-1.786,-1.786,-1.786,-1.786,-1.786,-1.786,-1.786,-1.786,-1.786,-1.8302,-1.8757,-1.9405,-2.0073,-2.0733,-2.1376,-2.1384,-2.1384,-2.1384,-2.1384,-2.1384,-2.1384,-2.1384,-2.1384,-2.1384,-2.1384,-2.1384,-2.1384,-2.1384,-2.1384,-2.1384,-2.1384,-2.1384,0.0,0.0,0.0,0.0,0.0,0.0,0.0,0.0,0.0,0.0,0.0,0.0,0.0,0.0,0.0,0.0,0.0,0.0,0.0,0.0,-0.3624,-0.4006,-0.3624,-0.3649,-0.4102,-0.3726,-0.3362,-0.3418,-0.3428,-0.3231,-0.323,-0.323,-0.323,-0.323,-0.323,-0.3245,-0.3276,-0.3306,-0.3336,-0.3367,-0.3397,-0.3412,-0.3412,-0.3412,-0.3412,-0.3412,-0.3412,-0.3412,-0.3412,-0.3412,-0.343,-0.346,-0.3483,-0.3513,-0.3549,-0.3572,-0.4032,-0.4488,-0.4712,-0.5383,-0.6281,-0.6508,-0.7398,-0.8523,-0.9191,-1.0308,-1.1416,-1.2312,-1.3652,-1.4536,-1.5202,-1.6096,-1.6988,-1.721,-1.7646,-1.786,-1.786,-1.786,-1.786,-1.786,-1.786,-1.786,-1.786,-1.786,-1.786,-1.786,-1.786,-1.786,-1.786,-1.8088,-1.8302,-1.8757,-1.9405,-2.0065,-2.0733,-2.1172,-2.1384,-2.1384,-2.1384,-2.1384,-2.1384,-2.1384,-2.1384,-2.1384,-2.1384,-2.1384,-2.1384,-2.1384,-2.1384,-2.1384,-2.1384,-2.1384,0.0,0.0,0.0,0.0,0.0,0.0,0.0,0.0,0.0,0.0,0.0,0.0,0.0,0.0,0.0,0.0,0.0,0.0,0.0,-0.3041,-0.3243,-0.3434,-0.3256,-0.3285,-0.3529,-0.3353,-0.3183,-0.3227,-0.323,-0.323,-0.323,-0.323,-0.323,-0.323,-0.323,-0.3251,-0.3296,-0.3313,-0.3344,-0.3388,-0.3404,-0.3412,-0.3412,-0.3412,-0.3412,-0.3412,-0.3412,-0.3412,-0.3412,-0.3427,-0.3452,-0.3482,-0.3509,-0.354,-0.3569,-0.3583,-0.3814,-0.4039,-0.4488,-0.5163,-0.5831,-0.6281,-0.718,-0.83,-0.8744,-0.9862,-1.0978,-1.1871,-1.299,-1.4092,-1.4536,-1.5652,-1.6533,-1.6982,-1.7424,-1.786,-1.786,-1.786,-1.786,-1.786,-1.786,-1.786,-1.786,-1.786,-1.786,-1.786,-1.786,-1.786,-1.786,-1.786,-1.8088,-1.853,-1.8964,-1.9625,-2.0505,-2.0717,-2.1172,-2.1384,-2.1384,-2.1384,-2.1384,-2.1384,-2.1384,-2.1384,-2.1384,-2.1384,-2.1384,-2.1384,-2.1384,-2.1384,-2.1384,-2.1384,0.0,0.0,0.0,0.0,0.0,0.0,0.0,0.0,0.0,0.0,0.0,0.0,0.0,0.0,0.0,0.0,-0.2966,-0.2988,-0.3044,-0.3052,-0.3052,-0.3052,-0.308,-0.311,-0.314,-0.3171,-0.32,-0.3228,-0.323,-0.323,-0.323,-0.323,-0.323,-0.323,-0.323,-0.326,-0.3321,-0.3321,-0.3351,-0.3412,-0.3412,-0.3412,-0.3412,-0.3412,-0.3412,-0.3412,-0.3412,-0.3415,-0.3422,-0.3446,-0.3478,-0.3513,-0.3534,-0.3562,-0.3589,-0.3589,-0.3589,-0.3589,-0.4264,-0.4712,-0.5383,-0.6057,-0.6956,-0.7849,-0.8741,-0.9634,-1.0528,-1.1193,-1.2312,-1.343,-1.4092,-1.4986,-1.6089,-1.6754,-1.7418,-1.786,-1.786,-1.786,-1.786,-1.786,-1.786,-1.786,-1.786,-1.786,-1.786,-1.786,-1.786,-1.786,-1.786,-1.786,-1.8088,-1.853,-1.853,-1.9192,-2.0073,-2.0285,-2.0733,-2.1156,-2.1384,-2.1384,-2.1384,-2.1384,-2.1384,-2.1384,-2.1384,-2.1384,-2.1384,-2.1384,-2.1384,-2.1384,-2.1384,-2.1384,0.0,0.0,0.0,0.0,0.0,0.0,0.0,0.0,0.0,0.0,0.0,0.0,0.0,0.0,0.0,-0.2956,-0.2983,-0.3013,-0.3047,-0.3052,-0.3052,-0.3052,-0.308,-0.311,-0.314,-0.3171,-0.32,-0.3228,-0.323,-0.323,-0.323,-0.323,-0.323,-0.323,-0.323,-0.326,-0.3321,-0.3321,-0.3351,-0.3412,-0.3412,-0.3412,-0.3412,-0.3412,-0.3412,-0.3412,-0.3412,-0.3427,-0.3452,-0.3456,-0.349,-0.354,-0.3544,-0.3562,-0.3589,-0.3589,-0.3589,-0.3589,-0.3589,-0.4039,-0.4712,-0.5383,-0.6057,-0.6732,-0.7849,-0.8741,-0.9411,-1.0528,-1.1643,-1.2762,-1.343,-1.4309,-1.5424,-1.6089,-1.6754,-1.7197,-1.786,-1.786,-1.786,-1.786,-1.786,-1.786,-1.786,-1.786,-1.786,-1.786,-1.786,-1.786,-1.786,-1.786,-1.7867,-1.8088,-1.8522,-1.8757,-1.8964,-1.9845,-2.0505,-2.0513,-2.1172,-2.1384,-2.1384,-2.1384,-2.1384,-2.1384,-2.1384,-2.1384,-2.1384,-2.1384,-2.1384,-2.1384,-2.1384,-2.1384,0.0,0.0,0.0,0.0,0.0,0.0,0.0,0.0,0.0,0.0,0.0,0.0,0.0,-0.2897,-0.2926,-0.2957,-0.2987,-0.3017,-0.3048,-0.3052,-0.3052,-0.3052,-0.3095,-0.3129,-0.3141,-0.3185,-0.3217,-0.323,-0.323,-0.323,-0.323,-0.323,-0.323,-0.323,-0.323,-0.326,-0.3321,-0.3321,-0.3351,-0.3412,-0.3412,-0.3412,-0.3412,-0.3412,-0.3412,-0.3412,-0.3412,-0.3429,-0.3459,-0.3476,-0.3506,-0.3544,-0.3562,-0.358,-0.3589,-0.3589,-0.3589,-0.3589,-0.3589,-0.4039,-0.4488,-0.5157,-0.5831,-0.6505,-0.7625,-0.83,-0.8744,-0.9862,-1.0978,-1.1871,-1.2762,-1.3864,-1.4764,-1.5424,-1.6317,-1.6988,-1.7424,-1.7652,-1.786,-1.786,-1.786,-1.786,-1.786,-1.786,-1.786,-1.786,-1.786,-1.786,-1.786,-1.786,-1.786,-1.786,-1.8088,-1.8302,-1.875,-1.9192,-1.986,-2.0505,-2.0717,-2.0953,-2.1384,-2.1384,-2.1384,-2.1384,-2.1384,-2.1384,-2.1384,-2.1384,-2.1384,-2.1384,-2.1384,-2.1384,0.0,0.0,0.0,0.0,0.0,0.0,0.0,0.0,0.0,0.0,0.0,-0.2874,-0.2874,-0.2904,-0.2935,-0.2957,-0.2994,-0.3026,-0.305,-0.3052,-0.3052,-0.3052,-0.3106,-0.3142,-0.3142,-0.3195,-0.323,-0.323,-0.323,-0.323,-0.323,-0.323,-0.323,-0.323,-0.3238,-0.3268,-0.3321,-0.3336,-0.3367,-0.3412,-0.3412,-0.3412,-0.3412,-0.3412,-0.3412,-0.3412,-0.3412,-0.3434,-0.3471,-0.3493,-0.3524,-0.3558,-0.358,-0.3589,-0.3589,-0.3589,-0.3589,-0.3589,-0.3589,-0.3815,-0.4264,-0.4933,-0.5607,-0.6281,-0.7398,-0.7849,-0.83,-0.9418,-1.0308,-1.0978,-1.2093,-1.3202,-1.432,-1.4764,-1.5862,-1.6754,-1.721,-1.7652,-1.786,-1.786,-1.786,-1.786,-1.786,-1.786,-1.786,-1.786,-1.786,-1.786,-1.786,-1.786,-1.786,-1.786,-1.786,-1.8088,-1.8522,-1.853,-1.8971,-2.0065,-2.0278,-2.0733,-2.1172,-2.1384,-2.1384,-2.1384,-2.1384,-2.1384,-2.1384,-2.1384,-2.1384,-2.1384,-2.1384,-2.1384,0.0,0.0,0.0,0.0,0.0,0.0,0.0,0.0,0.0,0.0,-0.2874,-0.2874,-0.2874,-0.292,-0.296,-0.2961,-0.3011,-0.3051,-0.3052,-0.3052,-0.3052,-0.3052,-0.3106,-0.3142,-0.3142,-0.3195,-0.323,-0.323,-0.323,-0.323,-0.323,-0.323,-0.323,-0.323,-0.3258,-0.3288,-0.3321,-0.3378,-0.3408,-0.3412,-0.3412,-0.3412,-0.3412,-0.3412,-0.3412,-0.3412,-0.3412,-0.3445,-0.3499,-0.3502,-0.3538,-0.3587,-0.3589,-0.3589,-0.3589,-0.3589,-0.3589,-0.3589,-0.3589,-0.3589,-0.3814,-0.4264,-0.4938,-0.5607,-0.6281,-0.7183,-0.83,-0.8967,-0.9862,-1.0978,-1.142,-1.2534,-1.3652,-1.4097,-1.4764,-1.5862,-1.7424,-1.786,-1.786,-1.786,-1.786,-1.786,-1.786,-1.786,-1.786,-1.786,-1.786,-1.786,-1.786,-1.786,-1.786,-1.786,-1.786,-1.786,-1.7867,-1.8302,-1.8757,-1.8757,-1.9845,-2.0505,-2.0513,-2.1172,-2.1384,-2.1384,-2.1384,-2.1384,-2.1384,-2.1384,-2.1384,-2.1384,-2.1384,-2.1384,0.0,0.0,0.0,0.0,0.0,0.0,0.0,0.0,0.0,-0.2874,-0.2874,-0.2874,-0.2874,-0.2921,-0.2961,-0.2961,-0.3013,-0.3052,-0.3052,-0.3052,-0.3052,-0.3052,-0.3106,-0.3142,-0.3142,-0.3195,-0.323,-0.323,-0.323,-0.323,-0.323,-0.323,-0.323,-0.323,-0.326,-0.3299,-0.335,-0.3392,-0.3412,-0.3412,-0.3412,-0.3412,-0.3412,-0.3412,-0.3412,-0.3412,-0.3433,-0.3464,-0.3502,-0.3524,-0.3555,-0.3589,-0.3589,-0.3589,-0.3589,-0.3589,-0.3589,-0.3589,-0.3589,-0.3589,-0.3589,-0.4264,-0.4938,-0.5607,-0.6057,-0.6956,-0.7625,-0.83,-0.8967,-0.9862,-1.0755,-1.1643,-1.2539,-1.387,-1.4758,-1.543,-1.6533,-1.7424,-1.786,-1.786,-1.786,-1.786,-1.786,-1.786,-1.786,-1.786,-1.786,-1.786,-1.786,-1.786,-1.786,-1.786,-1.786,-1.786,-1.786,-1.8088,-1.8302,-1.875,-1.9192,-1.9632,-2.0505,-2.0733,-2.0945,-2.1384,-2.1384,-2.1384,-2.1384,-2.1384,-2.1384,-2.1384,-2.1384,-2.1384,0.0,0.0,0.0,0.0,0.0,0.0,0.0,0.0,-0.2874,-0.2874,-0.2874,-0.2874,-0.2874,-0.2913,-0.295,-0.296,-0.3003,-0.304,-0.3051,-0.3052,-0.3052,-0.3052,-0.3106,-0.3142,-0.3142,-0.3195,-0.323,-0.323,-0.323,-0.323,-0.323,-0.323,-0.3235,-0.3245,-0.3275,-0.3315,-0.3366,-0.3396,-0.3412,-0.3412,-0.3412,-0.3412,-0.3412,-0.3412,-0.3412,-0.3414,-0.3454,-0.3483,-0.3506,-0.3534,-0.3562,-0.3589,-0.3589,-0.3589,-0.3589,-0.3589,-0.3589,-0.3589,-0.3589,-0.3589,-0.3589,-0.4039,-0.4712,-0.5159,-0.5831,-0.6505,-0.7175,-0.7849,-0.83,-0.8967,-1.0085,-1.0978,-1.2093,-1.3652,-1.4531,-1.4975,-1.5652,-1.676,-1.7652,-1.7652,-1.786,-1.786,-1.786,-1.786,-1.786,-1.786,-1.786,-1.786,-1.786,-1.786,-1.786,-1.786,-1.786,-1.786,-1.786,-1.786,-1.8088,-1.8302,-1.853,-1.8971,-1.9845,-2.0278,-2.0733,-2.1172,-2.1376,-2.1384,-2.1384,-2.1384,-2.1384,-2.1384,-2.1384,-2.1384,0.0,0.0,0.0,0.0,0.0,0.0,-0.2867,0.0,-0.2874,-0.2874,-0.2874,-0.2874,-0.2874,-0.2897,-0.2926,-0.2956,-0.2987,-0.3017,-0.3048,-0.3052,-0.3052,-0.3052,-0.3106,-0.3142,-0.3142,-0.3195,-0.323,-0.323,-0.323,-0.323,-0.323,-0.323,-0.3245,-0.3275,-0.3306,-0.3336,-0.3366,-0.3396,-0.3412,-0.3412,-0.3412,-0.3412,-0.3412,-0.3412,-0.3412,-0.3416,-0.3476,-0.3502,-0.3506,-0.3534,-0.3562,-0.3589,-0.3589,-0.3589,-0.3589,-0.3589,-0.3589,-0.3589,-0.3589,-0.3589,-0.3589,-0.3589,-0.4039,-0.4712,-0.5157,-0.5831,-0.6505,-0.7625,-0.8076,-0.83,-0.9634,-1.0751,-1.1871,-1.298,-1.388,-1.4325,-1.4975,-1.6089,-1.6982,-1.6982,-1.7424,-1.786,-1.786,-1.786,-1.786,-1.786,-1.786,-1.786,-1.786,-1.786,-1.786,-1.786,-1.786,-1.786,-1.786,-1.786,-1.786,-1.786,-1.8302,-1.875,-1.8757,-1.986,-2.0505,-2.0505,-2.1172,-2.1384,-2.1384,-2.1384,-2.1384,-2.1384,-2.1384,-2.1384,-0.2692,0.0,0.0,0.0,0.0,0.0,0.0,0.0,-0.2874,-0.2874,-0.2874,-0.2874,-0.2874,-0.2881,-0.2902,-0.2953,-0.2987,-0.3017,-0.3048,-0.3052,-0.3052,-0.3052,-0.3086,-0.3119,-0.3141,-0.3178,-0.3208,-0.3228,-0.323,-0.323,-0.323,-0.323,-0.3245,-0.3275,-0.3306,-0.3336,-0.3366,-0.3396,-0.3412,-0.3412,-0.3412,-0.3412,-0.3412,-0.3412,-0.3423,-0.3446,-0.3486,-0.3513,-0.3534,-0.3565,-0.3583,-0.3589,-0.3589,-0.3589,-0.3589,-0.3589,-0.3589,-0.3589,-0.3589,-0.3589,-0.3589,-0.3589,-0.4039,-0.4488,-0.4712,-0.5383,-0.6281,-0.6732,-0.7398,-0.83,-0.9634,-1.0528,-1.1206,-1.1871,-1.2534,-1.3202,-1.3864,-1.4531,-1.5202,-1.6096,-1.676,-1.7197,-1.7197,-1.7652,-1.786,-1.786,-1.786,-1.786,-1.786,-1.786,-1.786,-1.786,-1.786,-1.786,-1.786,-1.786,-1.786,-1.786,-1.8088,-1.8316,-1.875,-1.8971,-1.9632,-2.0505,-2.0733,-2.0945,-2.1384,-2.1384,-2.1384,-2.1384,-2.1384,-2.1384,0.0,0.0,0.0,0.0,0.0,0.0,-0.287,-0.2874,-0.2874,-0.2874,-0.2874,-0.2874,-0.2874,-0.2874,-0.2889,-0.2935,-0.2968,-0.3003,-0.3046,-0.3052,-0.3052,-0.3052,-0.308,-0.311,-0.314,-0.3171,-0.32,-0.3228,-0.323,-0.323,-0.323,-0.323,-0.3238,-0.3255,-0.3299,-0.3329,-0.3347,-0.339,-0.3412,-0.3412,-0.3412,-0.3412,-0.3412,-0.3412,-0.3429,-0.3459,-0.349,-0.352,-0.3549,-0.3576,-0.3589,-0.3589,-0.3589,-0.3589,-0.3589,-0.3589,-0.3589,-0.3589,-0.3589,-0.3589,-0.3589,-0.3589,-0.3815,-0.4264,-0.4488,-0.4938,-0.5607,-0.6057,-0.7183,-0.83,-0.8967,-0.9634,-1.0312,-1.0978,-1.142,-1.2093,-1.2762,-1.3202,-1.387,-1.5424,-1.6317,-1.6533,-1.6533,-1.721,-1.7424,-1.7424,-1.7639,-1.786,-1.786,-1.786,-1.786,-1.786,-1.786,-1.786,-1.786,-1.786,-1.786,-1.786,-1.786,-1.8088,-1.8302,-1.853,-1.8971,-1.964,-2.0293,-2.0717,-2.1384,-2.1384,-2.1384,-2.1384,-2.1384,-2.1384,0.0,0.0,0.0,0.0,0.0,0.0,-0.2874,-0.2874,-0.2874,-0.2874,-0.2874,-0.2874,-0.2874,-0.2874,-0.2883,-0.2912,-0.2942,-0.2981,-0.3039,-0.305,-0.3052,-0.3052,-0.3076,-0.3104,-0.3134,-0.3165,-0.3195,-0.3224,-0.3228,-0.323,-0.323,-0.323,-0.323,-0.323,-0.329,-0.3321,-0.3321,-0.3381,-0.3412,-0.3412,-0.3412,-0.3412,-0.3412,-0.3412,-0.343,-0.3464,-0.3491,-0.352,-0.3551,-0.358,-0.3589,-0.3589,-0.3589,-0.3589,-0.3589,-0.3589,-0.3589,-0.3589,-0.3589,-0.3589,-0.3589,-0.3589,-0.3589,-0.3589,-0.4264,-0.4488,-0.4712,-0.6057,-0.718,-0.7849,-0.8076,-0.8527,-0.9195,-1.0312,-1.0528,-1.0978,-1.2093,-1.2312,-1.2752,-1.4536,-1.5424,-1.5868,-1.6089,-1.6545,-1.6982,-1.6988,-1.7424,-1.786,-1.786,-1.786,-1.786,-1.786,-1.786,-1.786,-1.786,-1.786,-1.786,-1.786,-1.786,-1.786,-1.786,-1.8302,-1.853,-1.8757,-1.986,-2.0733,-2.1376,-2.1384,-2.1384,-2.1384,-2.1384,-2.1384,0.0,0.0,0.0,0.0,0.0,0.0,-0.2874,-0.2874,-0.2874,-0.2874,-0.2874,-0.2874,-0.2874,-0.2874,-0.2883,-0.2912,-0.2942,-0.2973,-0.301,-0.3037,-0.3052,-0.3052,-0.3058,-0.3073,-0.3103,-0.3134,-0.3164,-0.3194,-0.3217,-0.323,-0.323,-0.323,-0.323,-0.323,-0.329,-0.3321,-0.3321,-0.3381,-0.3412,-0.3412,-0.3412,-0.3412,-0.3412,-0.3412,-0.3442,-0.3495,-0.3499,-0.3534,-0.3583,-0.3587,-0.3589,-0.3589,-0.3589,-0.3589,-0.3589,-0.3589,-0.3589,-0.3589,-0.3589,-0.3589,-0.3589,-0.3589,-0.3589,-0.3589,-0.3814,-0.4039,-0.4712,-0.6057,-0.6505,-0.6956,-0.7849,-0.8076,-0.8523,-0.9195,-0.9418,-0.9634,-1.0978,-1.1201,-1.142,-1.2762,-1.387,-1.4764,-1.5202,-1.5868,-1.6545,-1.6982,-1.721,-1.7424,-1.786,-1.786,-1.786,-1.786,-1.786,-1.786,-1.786,-1.786,-1.786,-1.786,-1.786,-1.786,-1.786,-1.8088,-1.8316,-1.8757,-1.9405,-2.0073,-2.0733,-2.1172,-2.1384,-2.1384,-2.1384,-2.1384,0.0,0.0,0.0,-0.2852,0.0,0.0,0.0,-0.2874,-0.2874,-0.2874,-0.2874,-0.2874,-0.2874,-0.2874,-0.2879,-0.2893,-0.2919,-0.295,-0.298,-0.3024,-0.3052,-0.3052,-0.3052,-0.3065,-0.3095,-0.3125,-0.3161,-0.3206,-0.3223,-0.323,-0.323,-0.323,-0.323,-0.323,-0.329,-0.3321,-0.3321,-0.3381,-0.3412,-0.3412,-0.3412,-0.3412,-0.3412,-0.3412,-0.3445,-0.3502,-0.3502,-0.3538,-0.3589,-0.3589,-0.3589,-0.3589,-0.3589,-0.3589,-0.3589,-0.3589,-0.3589,-0.3589,-0.3589,-0.3589,-0.3589,-0.3589,-0.3589,-0.3589,-0.3589,-0.4039,-0.4712,-0.5163,-0.5831,-0.6505,-0.6956,-0.7398,-0.7849,-0.83,-0.8517,-0.8744,-0.9634,-0.9862,-1.0312,-1.142,-1.2084,-1.2975,-1.4092,-1.4758,-1.5424,-1.6089,-1.6533,-1.721,-1.7424,-1.7639,-1.786,-1.786,-1.786,-1.786,-1.786,-1.786,-1.786,-1.786,-1.786,-1.786,-1.786,-1.786,-1.8095,-1.8757,-1.8964,-1.9405,-2.0073,-2.0285,-2.0717,-2.1384,-2.1384,-2.1384,0.0,0.0,0.0,0.0,0.0,-0.2874,0.0,0.0,0.0,-0.2874,-0.2874,-0.2874,-0.2874,-0.2874,-0.2874,-0.2874,-0.2898,-0.2927,-0.2957,-0.3009,-0.3046,-0.3051,-0.3052,-0.3062,-0.3086,-0.3122,-0.3165,-0.3217,-0.3227,-0.323,-0.323,-0.323,-0.323,-0.323,-0.329,-0.3321,-0.3321,-0.3381,-0.3412,-0.3412,-0.3412,-0.3412,-0.3412,-0.3412,-0.3445,-0.3502,-0.3502,-0.3538,-0.3589,-0.3589,-0.3589,-0.3589,-0.3589,-0.3589,-0.3589,-0.3589,-0.3589,-0.3589,-0.3589,-0.3589,-0.3589,-0.3589,-0.3589,-0.3589,-0.3589,-0.4039,-0.4264,-0.4488,-0.5163,-0.6057,-0.6057,-0.6505,-0.6951,-0.7625,-0.7849,-0.7849,-0.8741,-0.8744,-0.9191,-1.0312,-1.0528,-1.1201,-1.299,-1.3658,-1.432,-1.4986,-1.5868,-1.676,-1.6982,-1.7424,-1.786,-1.786,-1.786,-1.786,-1.786,-1.786,-1.786,-1.786,-1.786,-1.786,-1.786,-1.786,-1.8088,-1.853,-1.853,-1.8757,-1.9405,-1.9405,-2.0073,-2.1156,-2.1156,-2.1376,0.0,0.0,0.0,0.0,-0.2874,0.0,0.0,0.0,-0.2874,-0.2874,0.0,0.0,0.0,0.0,0.0,-0.2874,-0.2898,-0.2927,-0.2957,-0.2991,-0.3022,-0.305,-0.3052,-0.3054,-0.3056,-0.311,-0.3157,-0.319,-0.3216,-0.323,-0.323,-0.323,-0.323,-0.323,-0.329,-0.3321,-0.3321,-0.3381,-0.3412,-0.3412,-0.3412,-0.3412,-0.3412,-0.3412,-0.3445,-0.3502,-0.3502,-0.3538,-0.3589,-0.3589,-0.3589,-0.3589,-0.3589,-0.3589,-0.3589,-0.3589,-0.3589,-0.3589,-0.3589,-0.3589,-0.3589,-0.3589,-0.3589,-0.3589,-0.3589,-0.3589,-0.3814,-0.4264,-0.4488,-0.4938,-0.5383,-0.5607,-0.5831,-0.6281,-0.6505,-0.6732,-0.7849,-0.83,-0.83,-0.8967,-0.9634,-1.0528,-1.2312,-1.3202,-1.3658,-1.432,-1.4986,-1.5862,-1.676,-1.6988,-1.7418,-1.786,-1.786,-1.786,-1.786,-1.786,-1.786,-1.786,-1.786,-1.786,-1.786,-1.786,-1.7867,-1.8088,-1.8088,-1.8316,-1.8757,-1.8757,-1.9405,-2.0513,-2.0513,-2.0945,0.0,0.0,0.0,0.0,0.0,0.0,0.0,0.0,-0.2874,0.0,0.0,0.0,0.0,0.0,0.0,0.0,-0.2883,-0.2901,-0.2931,-0.2961,-0.2998,-0.3047,-0.3052,-0.3059,-0.3077,-0.3118,-0.3156,-0.3186,-0.3215,-0.323,-0.323,-0.323,-0.323,-0.323,-0.3272,-0.3303,-0.3321,-0.3365,-0.3395,-0.3412,-0.3412,-0.3412,-0.3412,-0.3412,-0.3445,-0.3502,-0.3502,-0.3538,-0.3589,-0.3589,-0.3589,-0.3589,-0.3589,-0.3589,-0.3589,-0.3589,-0.3589,-0.3589,-0.3589,-0.3589,-0.3589,-0.3589,-0.3589,-0.3589,-0.3589,-0.3589,-0.3589,-0.3815,-0.4264,-0.4488,-0.4714,-0.5157,-0.5383,-0.5607,-0.5831,-0.6057,-0.6956,-0.6956,-0.7398,-0.83,-0.8741,-0.9195,-1.0312,-1.142,-1.2762,-1.3652,-1.432,-1.4986,-1.5862,-1.6533,-1.721,-1.7424,-1.7639,-1.786,-1.786,-1.786,-1.786,-1.786,-1.786,-1.786,-1.786,-1.786,-1.786,-1.786,-1.786,-1.8088,-1.8316,-1.8316,-1.875,-1.9405,-2.0073,-2.0733,-0.2874,0.0,0.0,0.0,0.0,0.0,0.0,0.0,0.0,0.0,0.0,0.0,0.0,0.0,0.0,0.0,0.0,-0.2883,-0.2912,-0.2942,-0.2981,-0.3033,-0.3047,-0.3061,-0.3082,-0.3112,-0.3144,-0.3174,-0.3202,-0.3223,-0.323,-0.323,-0.323,-0.323,-0.326,-0.3291,-0.3321,-0.3351,-0.3382,-0.3412,-0.3412,-0.3412,-0.3412,-0.3412,-0.3445,-0.3502,-0.3502,-0.3538,-0.3589,-0.3589,-0.3589,-0.3589,-0.3589,-0.3589,-0.3589,-0.3589,-0.3589,-0.3589,-0.3589,-0.3589,-0.3589,-0.3589,-0.3589,-0.3589,-0.3589,-0.3589,-0.3589,-0.3589,-0.3815,-0.4264,-0.4264,-0.4488,-0.4933,-0.5157,-0.5157,-0.5383,-0.5831,-0.6281,-0.6505,-0.7398,-0.7849,-0.83,-0.8741,-1.0308,-1.1643,-1.2534,-1.343,-1.432,-1.4986,-1.5862,-1.6533,-1.6982,-1.7424,-1.7639,-1.786,-1.786,-1.786,-1.786,-1.786,-1.786,-1.786,-1.786,-1.786,-1.786,-1.786,-1.786,-1.786,-1.786,-1.8088,-1.853,-1.9625,-2.0073,0.0,0.0,0.0,-0.2874,0.0,0.0,0.0,0.0,-0.2874,0.0,0.0,0.0,0.0,0.0,0.0,0.0,0.0,0.0,0.0,-0.2942,-0.2973,-0.3005,-0.3035,-0.3052,-0.3054,-0.3081,-0.3111,-0.3142,-0.3172,-0.3201,-0.3228,-0.323,-0.323,-0.323,-0.326,-0.3291,-0.3321,-0.3351,-0.3382,-0.3412,-0.3412,-0.3412,-0.3412,-0.3412,-0.3445,-0.3502,-0.3502,-0.3538,-0.3589,-0.3589,-0.3589,-0.3589,-0.3589,-0.3589,-0.3589,-0.3589,-0.3589,-0.3589,-0.3589,-0.3589,-0.3589,-0.3589,-0.3589,-0.3589,-0.3589,-0.3589,-0.3589,-0.3589,-0.3589,-0.3589,-0.3589,-0.3589,-0.3814,-0.4488,-0.4488,-0.4712,-0.5383,-0.5831,-0.6281,-0.6281,-0.7398,-0.8076,-0.8076,-0.9634,-1.0755,-1.0978,-1.2312,-1.3652,-1.432,-1.4764,-1.564,-1.6982,-1.6988,-1.7197,-1.786,-1.786,-1.786,-1.786,-1.786,-1.786,-1.786,-1.786,-1.786,-1.786,-1.786,-1.786,-1.786,-1.786,-1.786,-1.7867,-1.853,-1.8971,0.0,0.0,-0.2874,-0.2874,0.0,0.0,0.0,0.0,0.0,0.0,0.0,0.0,0.0,0.0,0.0,0.0,0.0,-0.2883,0.0,-0.296,-0.3002,-0.3033,0.0,0.0,-0.3052,-0.308,-0.311,-0.3141,-0.3171,-0.3201,-0.3228,-0.323,-0.323,-0.323,-0.324,-0.327,-0.3321,-0.333,-0.3362,-0.3412,-0.3412,-0.3412,-0.3412,-0.3412,-0.3445,-0.3502,-0.3502,-0.3538,-0.3589,-0.3589,-0.3589,-0.3589,-0.3589,-0.3589,-0.3589,-0.3589,-0.3589,-0.3589,-0.3589,-0.3589,-0.3589,-0.3589,-0.3589,-0.3589,-0.3589,-0.3589,-0.3589,-0.3589,-0.3589,-0.3589,-0.3589,-0.3589,-0.3589,-0.3815,-0.3815,-0.4039,-0.4712,-0.4938,-0.5163,-0.5607,-0.6281,-0.6956,-0.6956,-0.8076,-0.9418,-1.0528,-1.1193,-1.2084,-1.343,-1.432,-1.4986,-1.564,-1.6545,-1.6988,-1.7197,-1.7652,-1.786,-1.786,-1.786,-1.786,-1.786,-1.786,-1.786,-1.786,-1.786,-1.786,-1.786,-1.786,-1.786,-1.786,-1.8088,-1.853,-0.2905,-0.2905,0.0,-0.2905,-0.2905,0.0,-0.2905,0.0,0.0,0.0,0.0,0.0,0.0,0.0,0.0,-0.2905,-0.2905,-0.2915,0.0,-0.2981,-0.3018,0.0,0.0,0.0,0.0,-0.307,-0.3099,-0.314,-0.3161,-0.3189,-0.3228,-0.323,-0.323,-0.323,-0.323,-0.326,-0.3321,-0.3321,-0.3351,-0.3412,-0.3412,-0.3412,-0.3412,-0.3412,-0.3445,-0.3502,-0.3502,-0.3538,-0.3589,-0.3589,-0.3589,-0.3589,-0.3589,-0.3589,-0.3589,-0.3589,-0.3589,-0.3589,-0.3589,-0.3589,-0.3589,-0.3589,-0.3589,-0.3589,-0.3589,-0.3589,-0.3589,-0.3589,-0.3589,-0.3589,-0.3589,-0.3589,-0.3589,-0.3589,-0.3589,-0.3814,-0.4039,-0.4264,-0.4712,-0.4933,-0.5607,-0.6057,-0.6281,-0.6956,-0.8076,-0.9634,-1.0301,-1.1206,-1.2312,-1.343,-1.432,-1.4764,-1.588,-1.6545,-1.6982,-1.7646,-1.786,-1.786,-1.786,-1.786,-1.786,-1.786,-1.786,-1.786,-1.786,-1.786,-1.786,-1.786,-1.786,-1.786,-1.786,-1.8088]}]]